GFSGL_con_3kmhel_000.txt.gz
Helicity
138 104 115 94 71 68 68 70 75 102 177 281 297 234 121 98 84 94 92 70 95 118 117 119 105 102 108 122 134 136 131 133 136 115 115 83 81 97 91 92 310 251 130
99 82 75 65 57 51 52 50 59 135 188 197 196 141 128 109 83 85 80 94 113 106 96 98 100 111 131 150 159 144 131 112 120 111 103 86 96 103 110 88 54 270 275
94 57 39 48 50 42 46 60 95 137 174 147 136 130 154 98 86 89 87 107 89 79 90 121 145 157 169 165 153 137 114 103 108 136 95 95 94 96 114 76 91 7 91
66 50 63 59 37 45 72 89 114 134 133 142 135 120 99 90 85 115 101 72 87 110 135 164 179 177 171 162 134 122 118 117 102 107 97 67 87 89 128 107 80 60 5
77 84 78 60 65 82 99 115 128 126 121 115 115 131 83 109 125 103 88 106 111 133 156 163 169 167 133 131 143 139 124 130 107 95 77 57 93 98 129 105 92 73 51
98 91 105 109 106 117 128 127 118 117 128 134 143 119 129 139 143 119 117 115 121 148 146 157 163 156 132 109 89 67 76 93 82 75 67 65 27 113 100 111 88 78 88
137 142 145 139 133 139 131 125 124 124 129 128 109 111 180 166 157 154 155 124 134 135 144 146 145 149 97 110 83 60 58 50 43 59 65 53 49 33 58 89 75 53 66
155 160 167 164 155 148 134 122 123 127 105 121 139 135 157 132 147 129 102 107 105 95 103 121 138 109 87 71 86 77 68 56 53 59 62 61 46 45 47 45 37 29 44
164 185 173 166 162 149 136 115 111 116 139 154 146 165 151 129 109 93 100 94 79 72 80 120 127 84 49 33 65 69 66 61 42 27 25 17 16 22 47 48 41 28 28
182 179 171 167 163 151 133 108 117 126 138 186 186 152 147 120 107 94 95 87 75 77 95 105 85 54 27 29 53 63 81 55 36 20 32 19 -6 5 18 37 26 46 42
183 175 169 166 173 160 137 130 124 149 186 175 174 155 145 121 91 82 73 69 74 79 87 97 86 21 18 20 25 70 68 47 33 10 -2 -2 -11 -19 -2 -7 -1 22 30
177 164 159 171 190 179 140 120 140 169 175 157 158 143 126 100 74 62 58 53 56 91 80 85 82 18 17 22 31 21 39 38 45 22 0 -5 -7 -7 -6 -3 -3 2 14
166 158 147 153 172 169 130 124 160 167 155 135 140 139 115 97 78 46 56 56 62 78 76 56 40 26 20 35 26 30 55 61 23 18 15 16 18 24 25 14 16 10 8
169 156 135 156 161 178 148 137 141 133 132 135 154 138 118 99 76 71 80 76 64 69 63 66 55 33 12 30 45 56 70 66 19 8 25 42 44 41 42 29 26 25 30
160 145 138 152 164 177 147 133 118 114 124 131 128 132 138 98 89 89 75 85 71 67 69 65 65 46 10 9 17 44 62 67 -17 24 37 51 62 65 52 43 37 41 39
136 124 133 127 134 173 153 128 96 82 61 69 98 130 122 103 94 73 62 68 60 65 71 65 62 53 13 -6 -9 -13 30 -38 -3 26 36 41 48 58 58 50 40 45 41
124 114 114 131 132 144 150 126 125 107 81 77 79 92 102 107 93 85 81 75 74 79 79 68 72 54 40 -19 -22 -25 -23 -40 -26 -5 15 31 41 34 40 42 48 42 45
114 100 111 112 121 137 149 142 149 142 129 98 78 77 84 94 94 91 84 115 95 93 93 87 74 69 36 11 -34 -32 -30 -24 -36 -40 -24 4 13 7 7 23 29 20 26
109 114 106 114 101 96 131 142 138 140 146 120 87 73 67 83 95 95 93 144 118 101 98 94 92 82 68 45 -11 -43 -40 -31 -21 -19 -27 -20 1 8 10 8 13 16 13
110 103 108 120 121 110 113 125 122 130 135 108 96 80 82 116 133 135 133 133 134 124 115 110 95 93 85 65 33 -4 -39 -40 -33 -24 -11 -9 -8 -10 -1 9 9 6 12
128 135 132 140 135 130 114 115 119 122 110 105 96 80 95 132 124 130 125 130 135 132 128 137 119 111 101 85 57 20 4 -27 -31 -28 -18 -8 4 0 5 7 5 8 13
135 152 135 140 152 140 114 111 113 125 128 124 103 66 82 114 108 108 119 112 123 144 142 156 149 146 129 115 92 61 20 -1 -14 -20 -18 -14 -4 8 19 13 13 14 23
131 138 133 139 140 136 96 104 109 118 118 118 125 104 105 113 114 117 120 102 109 114 128 164 167 149 148 141 129 105 68 25 7 1 -10 -11 -7 1 9 16 25 22 27
114 122 135 138 133 141 130 112 120 120 118 116 122 130 125 124 120 119 120 108 107 104 123 142 161 169 162 162 145 116 83 59 43 18 3 -3 -7 -3 2 7 19 21 31
118 112 138 130 128 144 143 139 139 144 156 148 121 136 142 150 152 139 127 123 119 117 105 125 142 153 161 169 156 123 95 72 58 38 30 12 -4 -4 2 4 10 20 26
113 102 112 120 127 138 154 152 156 161 160 163 167 176 149 160 201 197 161 142 118 115 107 114 126 139 158 165 154 130 114 85 71 51 49 33 13 7 8 9 12 14 24

GFSGL_con_3kmhel_006.txt.gz
Helicity
102 89 138 110 105 103 84 77 74 67 74 73 90 126 102 109 88 81 102 92 74 61 66 72 69 61 71 80 92 109 122 121 128 108 93 72 58 56 55 70 67 67 48
124 156 131 132 115 95 80 67 71 64 73 78 90 97 80 83 71 101 87 65 76 84 75 71 68 73 63 68 90 103 121 121 150 107 70 66 62 50 54 65 80 51 47
171 144 137 106 93 90 78 78 76 75 74 74 81 102 93 92 92 91 80 70 101 100 89 67 59 52 55 76 89 110 138 156 143 113 80 70 62 53 62 68 68 42 54
144 118 102 87 94 90 90 84 88 88 94 100 88 87 105 97 101 106 112 99 121 110 81 69 64 64 77 97 101 111 130 134 109 100 87 70 64 59 68 64 74 33 42
120 95 88 87 90 103 103 105 105 94 96 110 127 133 113 111 124 104 95 76 121 85 68 77 83 123 100 90 113 108 105 85 99 88 81 75 68 61 61 55 54 39 72
105 79 85 97 106 113 120 122 99 94 107 105 100 98 112 135 166 135 126 79 78 70 82 80 80 89 115 74 59 67 54 70 65 74 72 82 43 45 20 22 13 36 56
91 87 95 109 111 119 132 118 120 109 109 102 89 84 104 139 140 128 94 70 76 85 80 77 76 85 61 82 73 36 44 54 61 58 61 47 32 25 23 27 28 53 59
101 101 112 108 116 120 128 123 128 115 108 111 103 99 108 183 139 119 78 64 74 79 77 69 70 62 86 89 51 31 33 42 51 65 62 35 19 -20 -3 20 58 95 58
118 118 99 115 116 124 130 128 119 128 109 113 115 110 124 180 151 120 71 78 79 67 67 63 69 48 79 46 33 25 23 30 49 61 33 22 9 -1 -5 -13 14 51 56
131 117 117 115 127 130 129 125 125 138 132 139 118 121 177 163 159 121 85 83 77 61 58 58 81 73 37 25 33 28 27 27 31 39 26 20 25 29 33 24 2 -18 57
120 106 102 113 131 131 130 129 132 140 164 160 131 127 140 137 143 123 98 70 67 64 62 58 58 58 25 19 21 30 31 6 42 52 23 16 11 13 17 21 13 -10 -17
102 103 98 124 145 142 125 120 151 145 166 151 122 113 123 125 129 132 91 65 67 64 60 57 46 27 19 25 29 31 -3 34 56 49 20 9 5 8 5 4 8 -1 0
97 89 103 113 118 126 124 125 151 149 139 122 105 92 80 126 102 112 77 62 58 69 64 43 23 27 31 43 79 34 -2 29 45 40 14 3 5 22 37 60 47 35 18
76 84 103 115 140 112 117 124 129 143 118 106 87 73 72 93 95 79 71 68 84 66 68 45 41 54 55 63 57 53 17 11 36 43 20 13 16 22 32 10 17 35 45
80 87 85 103 100 93 82 96 127 94 105 90 85 82 82 76 76 91 77 73 75 79 59 45 44 45 47 52 55 51 12 -5 -7 33 25 9 8 18 20 30 36 31 30
78 76 88 91 95 85 87 87 110 83 125 112 103 105 78 68 91 86 91 76 60 67 52 38 43 45 44 46 50 44 28 -11 -17 -1 25 14 -3 13 32 39 39 57 66
62 70 79 83 79 84 101 101 88 137 106 111 123 125 105 60 86 70 82 79 65 75 60 44 47 49 47 48 53 52 34 15 -21 -20 -8 9 5 4 25 30 42 52 52
49 78 81 75 89 91 103 114 120 108 113 106 118 121 126 92 80 74 76 88 72 98 77 60 51 52 55 55 57 58 51 30 5 -19 -28 -9 -7 4 9 10 24 40 57
81 83 93 103 113 104 100 105 106 107 108 84 84 121 114 96 88 80 94 100 68 53 54 62 70 75 70 72 80 79 66 46 18 -1 -18 -22 -11 -7 -2 5 13 17 25
86 107 114 112 114 107 106 104 104 122 112 85 81 59 59 144 114 96 112 121 102 72 61 58 64 72 84 88 97 103 88 68 44 15 3 -15 -19 -17 -4 0 5 15 17
114 104 105 92 95 111 123 114 103 103 117 89 79 93 96 78 90 95 99 114 122 85 81 72 76 85 90 100 99 103 105 88 71 41 11 -1 -12 -21 -13 -8 5 7 14
148 134 108 106 98 111 98 97 99 96 91 114 91 75 110 114 93 89 96 107 115 113 101 88 83 86 92 91 95 108 105 102 87 69 38 12 -7 -14 -16 -15 -7 5 15
170 159 151 137 128 113 118 102 101 95 86 97 112 99 101 128 125 104 108 136 150 142 125 118 117 101 103 109 98 97 96 93 91 89 69 42 11 -2 -9 -12 -9 -5 7
183 166 143 135 143 138 127 108 104 83 86 82 98 116 110 122 138 146 152 158 156 170 197 190 142 125 113 137 120 103 96 107 100 95 87 69 40 19 1 -6 -9 -2 -2
178 173 147 125 134 133 126 109 102 86 75 67 72 78 84 95 105 109 114 117 133 173 191 213 213 159 127 144 131 110 111 132 110 93 87 74 64 43 23 10 5 -6 1
245 201 133 115 99 108 108 94 98 90 82 69 63 68 66 61 67 77 86 102 108 113 143 187 208 202 178 130 124 132 151 141 127 107 80 68 64 61 50 31 22 13 8

GFSGL_con_3kmhel_009.txt.gz
Helicity
215 183 118 108 147 111 124 113 101 79 74 83 97 99 99 111 63 77 87 53 81 115 97 74 83 91 91 79 72 66 65 70 116 116 106 108 123 97 69 60 52 49 61
219 145 91 161 126 128 122 107 95 66 80 88 101 107 84 87 79 101 70 64 62 71 64 100 124 87 65 58 66 63 84 86 132 128 101 102 83 76 54 44 48 44 54
160 77 149 160 129 117 106 102 82 87 84 83 93 100 107 120 94 62 58 69 68 98 120 142 132 74 76 81 95 102 105 105 151 144 117 95 86 65 51 47 47 54 38
101 133 210 165 120 114 102 98 102 90 86 94 102 132 97 106 79 69 76 88 95 77 93 119 96 79 100 136 103 96 113 133 119 119 101 84 72 55 57 63 69 47 40
131 175 188 147 100 81 107 97 111 104 93 87 131 105 106 109 161 150 90 80 97 90 79 85 84 145 119 107 82 87 99 103 101 87 84 79 68 63 71 54 42 22 23
174 175 158 118 82 98 104 98 92 93 118 102 127 124 121 96 278 182 117 87 74 83 92 92 81 86 127 88 42 54 55 58 58 66 78 73 53 58 53 28 26 24 38
174 154 108 82 83 93 77 81 93 131 131 111 131 107 136 158 232 176 119 84 77 85 86 80 78 84 89 106 105 61 43 40 100 101 60 56 58 49 36 13 8 7 -7
288 203 97 92 75 71 81 81 111 125 128 145 121 123 122 274 263 172 110 70 89 90 86 78 73 87 148 97 68 47 38 29 33 86 80 64 57 22 10 8 3 1 4
250 94 86 76 82 76 82 95 113 125 119 136 111 147 130 228 249 172 101 86 92 88 80 71 98 70 142 81 48 44 30 25 33 56 52 49 27 27 31 25 22 18 5
168 87 78 73 76 69 85 98 105 120 114 131 155 167 177 193 240 163 104 92 91 84 66 79 125 117 97 53 48 49 41 27 27 19 45 25 14 17 57 59 30 18 10
165 73 64 74 66 74 83 99 101 107 119 197 235 162 141 123 198 162 117 89 89 80 76 81 97 114 58 34 38 56 60 45 27 39 43 26 15 4 1 11 28 30 18
69 79 60 71 86 89 86 78 80 95 164 179 219 132 123 109 148 148 120 87 83 70 72 78 72 52 27 27 31 52 46 41 40 24 40 25 10 -1 -13 -15 11 20 3
83 51 56 78 90 88 81 72 88 117 180 165 157 137 80 88 134 199 140 96 66 70 74 65 40 31 29 35 55 56 48 45 21 17 35 16 7 7 18 31 67 82 57
35 39 67 76 98 72 76 72 98 109 133 166 137 115 69 90 95 196 146 93 66 74 68 68 43 52 51 62 51 55 65 49 38 4 22 21 12 -1 0 -19 2 11 89
34 51 77 89 78 69 85 76 80 99 150 120 123 106 117 120 80 113 133 106 103 123 103 61 46 49 44 38 42 49 53 51 30 9 2 24 13 -8 -16 -6 -6 11 69
52 74 83 90 86 102 101 91 71 77 87 100 123 141 142 120 121 85 91 91 102 99 82 57 47 54 53 43 38 44 51 52 47 15 -15 1 12 4 -16 20 16 16 63
64 86 88 98 84 104 136 133 127 94 134 120 124 130 134 127 119 82 75 80 85 96 84 58 51 52 54 51 45 50 54 66 55 39 1 -14 -2 6 13 4 29 28 19
67 68 85 91 106 118 125 147 145 137 131 140 130 120 110 116 109 110 90 89 85 100 73 62 56 63 68 61 55 66 75 77 56 45 15 -4 -11 -7 -4 6 17 22 35
78 101 112 127 131 129 110 113 137 140 150 132 109 162 112 95 105 104 124 127 94 85 73 78 76 65 80 79 87 100 109 93 84 66 33 9 -6 -12 -12 2 4 16 34
99 123 154 153 145 148 122 102 100 131 144 139 136 117 75 135 132 123 140 143 127 100 105 75 62 67 71 88 94 99 103 101 100 88 61 33 3 -11 -19 -11 -1 8 16
135 154 227 239 200 165 143 130 105 106 116 115 120 127 120 116 128 113 114 133 136 122 120 113 101 104 105 111 102 99 91 86 95 95 81 62 39 -6 -14 -16 -10 -3 10
178 195 237 263 225 203 181 149 140 130 115 112 103 89 119 164 140 119 104 100 117 125 138 142 117 107 115 119 125 124 99 96 99 87 87 80 67 33 0 -15 -13 -6 -3
181 205 235 232 216 185 159 158 144 154 112 97 91 93 90 145 157 126 111 116 124 122 126 138 164 178 160 138 164 172 132 107 99 98 82 78 74 61 36 -1 -9 -10 0
175 187 210 214 190 153 140 139 152 152 121 97 93 90 78 84 118 109 102 116 123 122 129 153 174 170 175 201 180 173 139 125 133 111 93 79 73 72 60 35 8 2 -10
177 167 223 232 188 224 162 115 108 134 114 94 95 84 84 82 78 82 91 91 87 92 90 118 150 188 217 198 216 200 135 141 147 108 107 75 70 76 68 52 37 17 9
166 146 133 145 215 176 113 73 100 124 115 123 106 89 83 89 77 59 58 56 60 65 72 95 107 123 197 249 194 218 197 186 176 150 107 81 73 67 65 61 59 48 33

GFSGL_con_3kmhel_012.txt.gz
Helicity
484 372 353 257 183 154 159 205 169 133 107 110 112 125 129 133 133 157 161 121 181 118 86 123 125 80 100 135 145 123 123 111 113 100 88 111 111 48 59 81 61 54 62
450 400 352 249 158 142 174 199 168 123 111 106 110 110 89 106 206 154 151 137 157 190 119 97 139 179 161 142 168 158 165 148 126 116 114 88 64 81 88 73 65 56 54
378 427 306 231 163 151 175 161 136 118 117 111 107 73 101 171 159 99 108 187 164 143 101 100 81 111 142 162 145 117 93 104 137 148 120 115 111 88 67 76 59 62 44
465 311 246 217 167 193 179 135 114 117 130 100 76 60 155 138 131 142 188 213 160 164 142 132 116 149 170 145 109 101 105 111 110 115 113 101 85 71 84 66 59 53 41
426 248 245 274 283 206 136 112 111 148 104 58 39 73 168 168 136 229 216 173 163 151 137 138 145 156 133 161 103 99 113 97 95 88 94 87 80 89 84 74 72 58 53
305 299 348 354 293 319 214 131 122 95 66 110 83 88 152 224 241 246 204 172 128 122 133 125 139 115 172 113 107 136 90 113 104 123 126 111 92 68 66 68 27 23 38
340 359 318 413 421 165 67 72 64 76 115 139 124 150 178 315 291 261 212 159 126 118 123 136 129 120 177 159 141 103 73 45 47 87 79 95 97 110 95 46 12 25 30
373 356 570 411 261 53 86 88 83 123 146 166 169 167 225 305 287 269 206 150 134 129 143 121 122 143 169 142 105 78 68 63 65 86 86 87 103 90 79 66 56 42 31
480 543 418 106 179 97 87 70 103 116 146 167 175 213 340 338 264 237 176 169 144 130 122 106 111 127 189 140 88 69 60 63 54 30 13 41 51 25 47 82 97 81 58
447 259 362 250 71 80 78 89 101 125 155 160 213 317 357 338 237 210 175 171 144 128 110 95 142 188 153 95 82 77 70 64 71 56 64 73 49 40 13 35 78 95 75
645 738 377 66 99 64 85 118 123 123 122 138 233 260 281 255 200 167 167 145 130 133 107 93 154 145 102 61 56 81 74 81 59 72 63 33 46 28 2 -7 1 76 77
798 411 124 76 68 85 86 90 111 101 97 152 256 254 198 168 228 177 151 130 124 122 93 90 106 90 47 44 52 51 47 62 93 85 49 43 22 16 15 22 34 72 163
277 160 90 57 81 82 123 90 99 101 90 191 249 220 182 133 220 226 183 162 112 105 89 80 74 52 39 62 44 85 77 88 84 86 79 42 32 26 24 16 -6 17 38
57 27 27 43 65 91 99 99 104 106 146 188 222 222 207 151 165 246 212 189 129 111 74 72 91 77 82 92 67 65 106 104 95 101 84 29 46 42 13 11 -10 -8 -21
10 -6 25 69 78 85 94 131 136 120 143 175 169 177 184 196 207 199 176 180 162 146 129 119 88 84 78 75 69 73 95 100 97 99 65 44 9 13 14 9 11 -46 -47
16 48 71 89 98 94 97 107 141 103 88 98 130 135 157 193 225 169 140 123 154 184 154 119 94 76 88 80 73 73 93 111 138 88 72 55 15 4 11 38 -1 3 -24
70 77 96 97 103 110 121 142 144 129 96 97 103 120 139 176 172 156 133 115 118 155 155 117 93 85 83 87 83 77 96 143 138 114 83 48 25 -0 -0 21 13 6 16
113 97 109 121 104 130 154 154 142 152 150 147 126 127 129 148 162 150 136 136 152 144 142 120 92 88 92 106 95 92 118 134 124 127 99 78 54 17 -9 -5 -1 12 21
123 138 138 166 179 176 167 162 151 131 128 155 160 161 175 140 156 129 138 184 173 154 146 141 119 98 96 120 129 126 141 126 124 131 111 104 78 44 -7 -14 -12 2 21
115 143 174 198 213 201 210 212 211 180 162 146 151 160 171 178 186 188 175 169 165 145 130 130 124 110 109 126 157 173 149 138 119 123 121 112 96 77 24 -15 -13 -12 -3
131 158 171 219 262 253 263 285 270 224 198 188 150 136 123 139 195 244 237 198 163 140 133 128 137 144 140 145 154 195 182 152 131 122 115 102 92 92 63 29 -14 -13 -13
148 169 187 202 211 262 311 275 235 221 194 188 176 150 95 116 128 121 195 233 195 169 157 142 149 152 162 184 198 235 214 184 163 154 126 114 96 81 74 61 16 -2 -13
183 198 201 212 211 213 244 225 190 155 150 149 147 179 128 109 108 98 109 225 225 146 128 131 140 156 179 185 198 223 236 236 213 191 168 130 103 77 64 65 55 26 11
182 194 198 191 154 152 154 157 337 162 166 146 125 164 119 102 92 76 86 158 176 126 137 138 128 117 137 197 222 230 245 231 260 210 203 166 122 81 75 59 54 51 41
138 137 142 138 125 126 115 113 86 158 130 101 126 107 112 114 101 81 84 102 106 107 97 99 91 81 88 107 166 259 306 260 244 271 219 170 125 93 86 76 53 50 45
114 117 140 136 116 105 100 89 233 271 184 127 157 185 187 179 162 141 116 109 117 121 84 74 64 52 52 76 95 178 306 324 279 296 268 175 124 109 94 74 50 60 42

GFSGL_con_3kmhel_018.txt.gz
Helicity
539 471 487 452 410 370 332 305 309 286 272 249 245 219 190 157 127 128 114 107 135 175 173 156 142 133 139 155 164 159 153 137 150 134 121 71 47 39 55 67 60 62 67
551 570 562 524 487 464 396 336 365 310 258 271 213 167 129 105 82 85 87 118 128 148 158 154 119 113 139 150 145 136 126 111 116 111 89 57 50 62 69 70 73 69 68
665 603 570 525 456 429 387 356 333 301 303 288 205 162 146 104 104 101 112 166 171 165 167 161 152 151 149 141 134 132 119 110 109 103 100 102 87 75 78 83 67 56 53
629 595 590 499 458 413 384 413 372 357 397 250 199 97 135 105 85 157 188 181 188 193 191 184 171 142 132 124 137 132 119 115 96 104 99 83 70 61 90 75 45 62 60
599 600 528 461 414 464 513 488 560 454 366 308 125 155 122 100 123 199 223 211 202 193 188 193 165 127 103 138 155 124 127 101 102 104 87 66 47 37 30 48 64 64 70
564 540 481 476 551 666 753 777 826 782 598 170 109 139 114 146 157 226 273 260 227 232 227 215 178 176 178 186 175 152 117 104 104 102 91 76 84 56 55 55 72 78 67
537 486 569 681 834 863 911 1018 1065 714 222 85 112 93 116 169 155 267 292 271 262 205 185 197 167 184 177 161 144 133 122 110 94 105 89 100 56 60 58 55 78 96 90
624 672 797 931 957 983 975 1012 801 175 118 117 67 59 100 137 217 295 315 285 272 217 188 171 158 160 153 146 134 122 102 84 78 82 97 83 86 74 80 70 70 45 56
820 911 986 1051 1076 839 1032 631 154 94 124 114 69 69 116 158 228 267 292 288 256 197 176 152 141 146 124 128 128 104 73 70 73 58 53 43 31 30 55 60 43 14 -4
968 1032 1219 959 638 706 443 135 149 194 106 44 66 107 107 160 194 224 259 257 239 201 155 135 124 137 127 113 118 96 83 78 77 73 90 81 66 64 38 70 51 30 31
1004 707 892 593 709 274 205 141 173 89 63 60 89 103 122 170 200 180 203 239 222 200 151 131 133 117 108 90 79 104 111 90 78 93 121 104 88 82 68 74 74 62 35
578 550 414 346 193 125 133 172 96 91 89 92 98 99 144 159 158 154 176 195 189 201 161 125 126 94 86 63 64 62 49 74 122 140 129 111 89 73 64 50 40 63 78
221 187 164 148 144 154 160 139 122 104 110 107 115 103 133 165 186 156 163 170 187 216 172 123 110 94 69 67 52 38 41 79 103 125 129 141 118 83 47 31 36 53 42
154 129 128 134 138 139 144 117 113 111 127 152 142 137 141 168 196 204 208 203 200 211 165 149 140 141 121 92 75 52 70 89 104 130 142 148 122 75 61 48 36 36 25
131 134 138 141 140 126 114 120 125 127 151 166 168 179 173 163 168 185 246 275 263 239 240 227 173 158 141 113 86 75 63 70 86 120 152 136 124 91 69 47 35 16 35
127 137 144 151 152 145 143 136 117 111 112 123 123 172 180 139 120 124 150 182 199 259 290 238 178 170 167 138 103 78 65 61 74 123 131 129 120 92 79 60 38 18 13
112 128 145 152 172 184 183 178 157 146 141 145 145 137 142 129 108 120 131 169 199 259 274 210 171 165 153 143 120 105 79 68 98 135 123 112 104 80 82 69 42 11 3
130 121 125 126 129 135 151 164 187 205 197 207 219 183 141 106 97 125 139 177 241 228 259 218 185 171 156 136 123 115 85 77 107 135 130 119 111 104 88 81 57 38 -7
107 105 108 106 124 140 155 169 184 192 199 245 259 266 227 131 122 137 142 185 257 276 247 232 212 186 163 150 129 115 101 91 116 154 133 135 113 118 91 86 72 47 5
99 105 117 128 137 148 170 195 207 214 218 232 221 244 210 231 212 204 188 179 171 213 225 202 208 173 164 163 142 119 91 103 104 137 127 133 113 123 102 84 75 65 40
106 118 140 144 145 155 167 170 171 173 170 154 138 134 159 203 119 141 151 165 138 138 140 139 173 189 165 152 137 120 104 94 88 114 131 131 126 130 103 90 77 65 52
146 160 151 155 157 156 157 151 147 138 136 140 123 113 42 189 122 129 159 141 158 160 127 141 143 157 143 177 145 124 115 111 130 135 140 139 144 124 116 100 77 73 60
162 182 178 159 150 147 132 127 134 128 155 197 160 105 132 79 104 165 144 114 119 110 98 123 122 133 143 208 143 135 141 130 135 160 164 152 154 144 127 108 91 76 68
159 166 166 147 132 118 111 110 112 126 135 135 143 187 196 145 21 111 79 81 129 143 106 64 47 101 203 185 110 125 132 119 132 151 185 170 150 154 144 124 112 82 69
155 137 132 118 103 104 102 107 107 106 92 74 77 98 176 336 330 372 368 349 279 202 125 96 72 93 152 147 95 130 113 89 102 130 143 175 175 169 163 147 131 105 91
138 126 91 99 108 114 107 98 92 91 90 63 21 35 63 93 181 297 351 327 249 204 142 97 87 86 90 80 116 174 139 96 63 101 147 158 195 195 180 159 135 136 105

GFSGL_con_3kmhel_021.txt.gz
Helicity
511 561 602 580 589 590 566 496 508 455 381 332 281 239 240 225 204 138 184 181 191 121 134 126 101 135 141 152 170 178 173 179 171 149 125 105 105 77 66 71 57 57 58
554 562 544 538 526 536 480 433 452 384 351 301 290 298 237 239 135 152 185 186 156 121 113 130 119 148 151 163 169 155 153 163 175 148 136 123 113 85 72 69 63 62 64
583 566 484 462 486 488 438 425 398 396 352 364 387 362 454 148 124 148 127 121 128 126 134 145 133 149 160 171 155 147 164 166 166 169 150 143 122 90 71 57 55 62 60
584 495 455 444 442 411 421 408 399 445 415 456 399 474 158 105 136 108 121 150 159 155 171 183 169 163 155 158 143 147 171 167 163 156 147 140 115 72 50 38 37 50 46
542 484 417 409 416 440 431 465 469 483 454 514 633 308 83 137 136 131 181 212 204 198 221 221 198 167 144 157 178 164 180 174 153 149 143 138 96 63 49 51 46 42 55
382 369 435 454 459 503 588 589 608 650 696 654 513 99 87 140 87 111 217 268 263 263 247 227 203 168 166 168 159 172 176 164 151 152 146 121 85 71 73 59 61 42 46
371 443 514 611 641 652 752 882 931 860 778 487 158 116 142 89 68 98 187 306 314 295 261 234 212 202 181 184 178 167 149 124 116 148 139 115 103 84 73 52 48 65 67
457 565 634 683 812 948 1005 979 1049 921 399 372 135 151 99 70 69 100 211 294 308 287 262 223 220 190 167 174 183 162 139 128 123 127 123 98 100 87 89 70 51 40 49
544 626 692 839 927 952 947 734 801 398 300 174 188 132 96 80 84 120 248 289 293 262 232 232 218 181 129 128 185 154 124 109 100 87 82 69 70 62 63 69 49 35 19
582 650 725 849 926 877 630 613 312 211 225 204 174 113 90 85 92 125 211 278 273 236 229 216 174 179 127 125 183 151 122 104 96 91 91 101 113 103 59 75 75 53 36
525 592 701 742 507 407 329 183 207 214 194 170 134 109 97 96 108 132 189 267 241 260 238 224 194 147 121 120 130 149 122 102 82 89 95 116 127 122 100 84 85 99 68
280 303 305 214 161 156 150 162 173 172 166 163 160 134 121 116 116 133 166 189 218 261 237 214 205 155 115 91 107 87 66 85 99 92 98 99 128 127 111 81 72 74 95
209 171 140 96 82 103 122 125 146 152 178 173 166 156 141 139 150 123 134 144 169 241 218 199 179 164 125 106 66 72 73 99 91 90 87 110 131 126 110 81 66 49 44
196 164 141 136 128 127 136 148 168 179 190 186 189 173 171 173 155 157 182 185 178 228 197 178 214 238 204 167 124 98 111 106 109 104 99 103 109 113 118 101 79 54 42
151 143 137 139 141 151 167 181 192 192 199 194 199 199 193 171 192 174 190 214 207 218 272 306 281 278 229 187 151 117 106 110 121 119 110 108 115 114 109 92 94 65 57
129 132 140 140 141 134 131 126 120 123 147 171 175 203 204 186 167 159 165 156 142 173 267 278 273 280 243 208 183 136 132 112 110 113 107 119 118 111 98 81 89 92 63
135 126 111 106 104 107 112 123 118 76 84 112 149 170 189 180 198 181 159 144 158 193 293 274 261 261 232 204 177 148 117 116 117 116 117 133 124 115 106 93 80 82 73
104 109 96 98 104 112 124 139 158 173 156 113 106 109 127 135 154 156 140 108 222 219 281 265 252 224 216 205 165 150 120 105 122 119 128 137 137 129 118 100 89 90 79
95 95 107 108 117 134 146 158 166 176 181 179 152 133 137 112 145 116 125 139 119 167 251 242 249 241 207 212 183 167 142 119 122 134 135 141 137 142 111 94 86 75 78
87 97 100 99 110 125 134 155 167 172 167 159 143 134 143 148 120 108 79 93 114 188 280 210 185 180 170 186 186 153 141 132 131 128 113 123 136 147 107 96 98 83 75
83 104 125 140 150 159 165 163 163 154 146 124 108 107 143 121 105 137 109 72 105 129 140 171 160 164 161 147 152 160 131 141 131 123 116 111 141 140 117 106 91 82 69
121 126 134 141 151 157 155 147 138 135 118 108 102 104 127 85 91 108 43 104 144 150 156 171 152 169 155 148 145 153 147 139 131 117 110 118 137 142 145 133 105 82 76
128 140 148 162 166 165 152 135 118 111 105 105 106 101 83 70 77 94 118 228 94 89 136 139 125 111 144 143 147 153 144 124 126 132 114 128 143 141 162 150 130 101 86
144 161 173 173 167 151 142 115 102 98 99 99 104 105 103 70 44 40 93 214 328 351 361 262 189 150 122 59 154 226 164 133 116 120 121 135 143 151 162 166 149 118 94
166 167 168 162 164 141 116 100 103 95 100 95 92 91 86 71 39 22 13 101 212 292 348 310 187 142 112 102 134 143 110 88 102 111 113 123 139 143 148 166 177 151 128
176 174 150 157 143 118 110 101 102 95 93 83 73 67 63 57 43 23 22 52 122 189 264 250 240 208 148 103 90 91 103 127 139 107 137 157 158 144 138 150 183 170 149

GFSGL_con_3kmhel_024.txt.gz
Helicity
387 363 341 379 436 470 498 503 532 536 437 396 371 379 262 247 279 328 176 134 170 175 156 125 129 129 137 157 163 174 189 220 220 177 170 150 138 118 110 117 108 102 100
349 403 378 408 414 431 451 463 468 428 419 391 357 294 331 309 344 236 107 146 200 199 156 152 129 147 150 169 188 167 198 212 222 193 188 156 130 124 122 111 95 85 96
382 413 463 444 428 428 453 413 413 445 440 433 388 403 333 415 264 75 105 190 182 165 179 175 146 181 163 193 211 196 210 204 217 223 182 158 139 130 111 98 90 79 71
394 410 446 431 431 372 369 434 451 456 442 371 367 420 487 486 108 85 167 167 154 172 178 179 187 204 184 196 214 204 210 215 211 198 171 155 150 123 115 98 79 71 73
380 347 324 374 355 378 404 441 461 455 466 431 570 619 626 208 89 149 166 149 164 189 212 207 212 200 164 206 242 205 227 224 206 187 160 161 142 126 104 96 81 77 51
387 355 340 321 382 398 448 460 455 472 522 566 700 815 345 161 105 127 116 152 191 249 265 255 224 203 183 182 177 193 216 233 201 196 169 156 138 132 130 99 78 51 57
277 286 324 395 454 472 499 579 663 718 698 724 942 343 206 155 132 120 71 154 209 243 290 284 260 234 205 212 197 206 196 171 166 187 167 158 157 143 127 103 74 66 76
258 296 352 411 424 466 592 695 685 712 859 864 471 221 201 179 156 87 78 136 203 238 284 273 272 236 216 225 222 217 199 178 155 156 174 138 140 126 139 139 105 88 85
317 352 353 382 462 581 701 711 799 980 441 357 231 225 182 139 94 77 101 166 198 214 242 260 255 230 180 176 219 195 182 158 134 99 104 90 78 78 108 163 120 82 69
282 305 350 432 535 494 632 613 394 234 201 209 203 162 135 132 90 80 111 199 191 207 221 227 191 214 168 167 216 203 190 150 146 123 115 87 82 103 97 146 142 116 76
240 259 232 212 195 185 158 138 144 149 157 154 146 129 138 144 133 107 111 219 205 222 240 245 225 176 160 155 171 218 192 153 128 122 106 90 84 99 107 113 129 138 103
159 161 168 161 160 164 144 128 114 116 117 118 137 134 159 157 149 128 120 130 195 250 245 234 219 170 163 159 179 167 121 131 148 123 111 88 89 95 95 100 96 111 110
181 182 179 152 124 109 108 104 113 118 136 144 162 165 155 169 176 138 122 119 144 231 225 197 183 155 155 191 174 155 146 169 156 156 121 99 108 103 90 96 90 81 71
193 187 168 158 144 132 123 122 125 132 149 153 163 168 168 168 187 187 177 195 175 192 198 198 202 225 254 260 252 198 214 201 169 153 130 112 100 113 112 98 96 81 78
183 175 161 136 127 120 116 110 124 129 143 154 166 184 186 172 168 168 182 212 243 237 234 295 299 293 280 273 288 269 249 218 189 164 149 127 112 116 107 98 89 79 85
155 131 112 103 101 95 90 87 88 86 105 118 143 192 198 190 150 167 187 161 177 229 313 347 306 281 268 249 272 274 243 218 188 162 148 131 112 116 104 97 90 86 76
108 101 83 78 73 67 64 62 56 58 88 122 148 160 169 156 162 147 158 184 155 166 239 293 296 280 262 218 230 233 223 232 180 177 152 135 122 120 122 96 87 84 73
102 103 80 69 71 82 89 100 111 122 111 89 95 119 153 194 193 142 123 134 92 157 188 149 171 227 204 202 204 205 198 200 175 163 151 132 138 144 130 98 87 89 75
82 72 71 68 78 91 95 106 109 122 140 147 140 120 113 141 123 133 159 123 106 72 94 116 198 191 193 218 192 173 163 156 162 169 152 137 137 160 123 97 87 83 80
79 94 77 75 72 74 87 105 137 156 159 164 140 120 87 65 44 44 50 65 66 81 113 99 96 152 241 190 162 172 137 132 154 141 124 137 142 157 115 113 93 89 76
59 64 72 73 90 108 127 138 150 157 157 140 114 90 83 75 55 55 51 58 38 66 79 135 81 167 172 150 153 147 135 122 135 127 139 132 149 145 116 114 98 97 75
85 83 80 83 98 128 139 143 144 148 143 130 108 92 87 80 73 69 60 58 58 43 38 169 64 182 182 159 149 143 140 141 129 133 132 145 146 133 141 129 115 104 87
86 85 86 109 132 139 144 149 149 145 123 110 103 95 90 88 77 68 60 44 37 59 89 153 254 228 145 99 112 128 148 128 128 146 141 146 144 147 148 138 133 123 98
80 93 111 127 129 140 161 154 134 116 97 98 101 94 87 83 77 67 54 34 32 58 82 126 246 312 267 168 120 67 118 136 157 128 117 132 132 138 142 146 147 132 112
109 117 123 128 148 163 161 136 118 106 98 101 99 84 70 71 67 61 56 50 43 55 79 91 162 290 321 286 167 140 157 88 168 143 102 99 116 127 137 160 175 156 142
125 128 124 142 173 167 148 121 108 106 100 96 87 73 63 60 58 61 61 56 65 99 88 96 132 195 268 247 226 179 107 93 93 80 103 93 102 111 133 154 159 161 149

GFSGL_con_3kmhel_027.txt.gz
Helicity
194 226 290 312 281 309 322 340 374 409 442 365 435 231 268 287 284 282 262 208 132 114 150 139 114 110 121 132 143 138 140 147 137 113 173 139 117 111 109 109 101 95 94
212 216 225 258 277 284 309 348 411 403 386 357 344 370 397 373 359 366 330 142 74 113 128 151 125 130 103 128 139 134 145 159 165 128 117 146 123 109 106 103 101 99 93
155 154 189 216 229 215 222 261 289 337 399 313 326 434 284 339 342 383 241 64 69 105 131 157 124 143 133 146 148 142 161 192 194 180 135 158 125 109 107 99 94 83 85
140 157 186 200 193 191 163 181 270 333 387 329 390 308 335 519 381 393 98 10 62 138 132 128 126 153 147 148 161 146 166 196 189 180 156 136 122 116 115 108 89 82 81
125 133 155 180 193 211 234 316 348 355 379 404 481 568 684 532 560 135 50 88 121 143 128 135 154 179 173 171 199 150 181 197 185 169 150 133 112 115 104 103 98 87 67
123 120 129 149 159 203 268 299 317 351 412 451 703 713 687 439 297 116 105 126 149 142 132 123 169 217 221 216 195 177 179 180 167 166 149 129 99 105 99 95 92 89 78
134 129 126 145 171 204 240 279 320 385 528 677 720 579 665 293 144 148 128 187 133 122 122 139 171 220 237 229 200 182 198 190 158 153 142 111 105 89 87 71 77 83 73
147 146 147 164 192 217 262 324 416 535 680 578 613 386 262 209 145 134 129 88 105 103 126 131 152 179 238 237 212 188 173 171 161 179 136 103 96 92 77 71 70 79 81
165 173 170 171 196 210 257 267 322 380 367 289 227 198 196 160 115 101 103 116 118 116 124 128 152 178 225 237 237 198 170 146 149 145 124 99 95 80 52 56 70 81 75
165 172 170 178 197 203 199 150 109 133 128 134 136 148 120 97 93 90 108 142 126 137 133 147 168 176 226 250 240 207 190 129 143 145 142 115 96 80 57 68 75 93 88
161 168 155 132 117 106 112 110 116 119 115 111 106 104 107 108 103 107 122 150 144 144 160 166 182 180 207 218 224 236 213 145 155 146 136 125 112 95 86 87 88 100 100
176 167 153 140 133 130 133 125 113 115 107 103 112 115 116 115 115 116 129 138 136 185 165 164 169 185 208 209 227 219 178 200 190 170 155 127 112 99 89 91 86 90 94
186 180 160 142 138 133 142 132 116 115 111 113 117 123 123 133 134 131 143 160 170 206 217 176 156 174 183 196 201 211 240 243 210 185 159 132 109 100 92 99 90 73 68
202 184 162 154 136 131 112 111 114 123 122 128 134 137 134 138 143 165 176 196 205 204 201 202 207 199 208 235 248 243 267 280 258 215 161 130 118 121 104 102 91 74 71
171 156 147 136 139 128 124 121 117 123 138 142 159 171 179 179 200 204 198 184 193 223 240 228 231 241 236 252 280 299 267 268 296 268 195 165 138 111 104 107 94 76 64
163 144 138 126 119 107 97 89 107 100 114 155 185 192 195 231 235 234 223 211 184 149 172 191 201 193 184 231 297 312 235 220 229 242 260 166 146 126 101 103 100 80 57
151 133 110 104 86 73 59 58 67 75 85 97 116 152 184 197 202 194 199 190 157 129 134 116 133 137 161 116 179 218 182 172 164 179 183 199 148 139 114 95 95 82 56
125 130 99 83 70 68 75 77 75 88 94 101 131 156 204 193 173 154 153 122 113 137 140 136 115 100 110 127 98 92 130 159 147 121 123 119 151 158 120 97 94 81 52
117 102 82 75 85 85 81 79 82 92 95 121 147 172 174 151 111 106 116 104 96 87 82 98 83 72 82 80 115 153 141 112 126 94 80 120 140 164 119 84 88 81 66
107 120 98 92 89 92 84 80 90 101 125 149 158 163 133 109 93 75 71 70 70 69 53 54 64 68 60 62 65 113 121 96 94 99 71 112 139 133 110 85 83 81 68
95 92 96 91 96 93 84 89 99 118 140 151 151 123 107 96 91 81 78 71 60 52 51 41 54 43 62 122 68 161 108 82 83 69 61 99 128 120 94 74 76 76 70
95 98 106 114 99 100 97 102 119 145 150 156 133 103 92 88 94 87 86 72 44 42 47 34 43 38 50 100 158 124 90 88 89 74 70 82 119 115 97 83 75 75 76
111 125 127 123 109 102 108 129 147 152 165 151 126 105 91 89 89 76 68 52 35 41 45 45 49 71 82 105 196 192 47 65 62 87 72 65 105 115 105 92 78 81 79
131 136 133 128 125 122 136 145 150 162 158 135 113 99 94 88 78 55 49 44 34 36 58 58 51 66 117 138 205 212 163 95 58 59 56 58 81 104 90 83 76 69 81
143 141 137 136 130 134 141 147 157 161 146 126 111 103 95 82 62 46 42 41 42 53 67 61 69 61 100 196 188 271 301 253 94 76 89 58 66 94 86 79 83 80 95
145 152 140 124 130 135 140 149 160 152 137 118 104 99 88 73 54 44 39 39 50 63 61 72 61 84 104 117 134 256 250 218 186 153 69 86 89 83 80 76 72 100 133

GFSGL_con_3kmhel_030.txt.gz
Helicity
70 87 104 120 222 226 238 211 189 192 248 362 496 554 312 253 181 275 201 248 234 144 103 96 151 159 149 127 115 111 128 123 123 101 102 92 160 121 93 100 100 99 99
62 68 83 142 142 153 153 168 170 199 315 408 393 284 281 191 298 293 251 318 329 113 47 100 129 155 137 97 114 127 131 118 118 94 95 103 111 143 111 99 92 92 94
95 94 92 115 136 147 169 189 215 249 299 285 292 276 335 261 316 470 545 369 153 50 54 84 138 118 123 104 128 144 133 133 124 119 107 107 116 124 117 100 94 80 87
124 130 122 121 139 152 177 179 180 180 200 252 270 344 321 285 472 493 550 175 80 64 96 103 130 103 104 111 127 142 137 136 122 132 124 109 121 117 127 103 93 92 78
141 141 150 146 144 144 147 152 183 200 225 215 257 378 314 367 583 568 291 103 95 92 104 119 119 97 103 125 153 170 167 160 141 131 132 121 125 124 123 120 103 79 68
173 182 175 159 149 155 160 158 165 187 209 279 370 491 626 499 717 234 162 118 102 102 126 137 95 105 134 167 185 202 222 205 160 137 130 132 115 125 120 113 105 84 70
159 171 177 167 156 146 147 150 173 209 273 342 398 396 460 433 332 181 153 144 130 126 130 112 100 105 150 154 190 230 269 254 177 134 138 128 116 124 117 102 91 80 72
203 193 166 166 174 180 192 204 216 230 245 243 261 273 303 219 187 155 124 113 123 94 91 85 98 95 103 176 140 236 247 257 198 186 142 110 126 132 118 104 91 63 58
186 193 204 210 223 217 198 159 148 123 143 173 154 130 130 102 133 94 94 138 126 107 104 95 102 114 108 180 177 203 242 229 231 232 167 179 199 189 123 117 107 87 69
180 200 205 209 213 190 134 106 86 95 105 122 125 119 97 94 70 93 110 140 139 150 134 130 136 139 108 205 207 217 242 217 184 194 168 137 124 124 123 121 94 86 70
192 213 228 213 186 148 127 121 108 98 91 102 98 91 86 91 95 133 149 180 189 197 196 184 179 175 170 172 230 234 275 181 186 207 200 158 132 120 117 126 89 78 71
200 200 194 164 126 106 107 115 113 124 126 122 122 113 113 121 155 175 181 218 242 254 232 233 214 199 201 206 228 208 249 260 214 255 226 191 162 141 115 117 105 91 78
200 198 191 172 156 144 145 145 138 139 140 141 129 130 133 151 143 227 197 190 188 207 233 242 218 200 178 185 179 161 235 256 265 265 275 188 148 129 116 124 120 99 75
222 232 201 206 173 159 138 140 150 154 145 135 135 139 141 137 156 226 187 178 190 200 210 203 180 164 158 165 162 180 236 319 337 299 254 194 175 179 158 145 131 100 82
231 221 206 180 159 150 156 163 163 179 154 132 146 134 148 142 199 183 196 210 218 199 170 156 148 131 146 143 132 63 133 232 303 324 301 218 202 245 206 136 121 98 81
218 212 190 161 156 157 155 133 139 138 136 140 145 142 122 168 179 187 202 195 168 156 150 150 139 129 113 97 91 80 103 95 263 346 333 214 211 234 231 161 127 116 71
231 186 154 153 156 152 135 123 116 104 73 73 101 114 153 157 184 192 201 173 118 135 161 146 128 123 99 90 56 32 116 95 113 274 273 151 147 181 204 167 119 124 66
176 165 146 141 138 126 120 111 105 111 104 103 117 122 165 169 169 171 172 125 148 136 127 119 112 96 94 85 42 28 43 64 119 101 139 133 155 154 141 148 123 125 63
132 131 128 129 129 115 107 104 108 105 106 106 103 118 171 174 123 130 123 134 126 115 109 94 83 80 77 73 65 28 48 12 95 108 136 154 150 114 108 145 118 113 67
125 137 121 117 114 117 116 118 118 115 116 116 116 138 152 159 158 139 112 107 106 105 97 85 63 59 63 59 45 43 33 19 64 69 109 89 101 104 116 147 123 95 68
111 114 114 117 129 128 125 124 123 131 130 122 127 162 175 143 133 123 107 105 103 93 74 58 49 43 43 49 34 57 38 43 139 78 83 83 106 81 111 147 108 75 58
124 122 126 133 126 135 144 138 145 146 134 131 141 161 154 126 128 121 110 108 90 66 62 55 49 34 30 40 45 81 75 181 51 66 77 76 73 54 114 131 104 84 58
123 130 132 144 153 151 149 156 155 150 142 141 152 157 148 135 129 124 116 91 71 56 54 53 52 38 29 29 57 61 64 86 142 134 57 75 72 75 107 127 124 91 71
128 132 142 155 172 167 167 162 161 146 144 151 158 157 147 129 118 115 111 79 62 50 47 51 55 38 25 38 39 66 103 133 126 142 59 62 66 66 65 121 122 78 73
133 145 159 173 175 173 166 165 161 154 163 162 158 146 126 112 109 109 101 78 62 53 49 54 59 38 28 60 64 79 119 188 152 212 148 49 44 39 69 118 109 77 66
138 154 165 169 173 176 182 188 176 167 164 158 145 126 108 101 99 95 79 64 68 60 53 61 53 39 34 51 55 92 139 183 180 268 217 114 46 59 61 97 95 81 62

GFSGL_con_3kmhel_033.txt.gz
Helicity
80 118 176 137 157 197 271 191 181 228 236 269 308 331 471 558 484 310 269 148 262 312 406 230 50 83 105 129 164 167 164 176 209 158 101 85 120 138 131 151 179 132 114
140 86 153 188 256 265 244 168 188 188 169 231 298 365 447 468 317 221 292 226 264 391 270 70 55 56 98 137 153 135 188 159 173 161 132 136 138 116 125 178 153 112 107
81 114 174 222 194 190 168 168 223 229 269 364 428 351 371 308 184 285 206 297 417 399 87 44 25 81 132 151 147 161 193 149 155 186 174 145 155 144 128 156 145 151 99
169 150 139 156 150 155 176 198 210 255 290 294 286 294 252 269 292 255 429 618 398 159 57 57 73 88 120 153 152 176 178 162 164 199 181 175 152 134 161 157 150 152 149
181 158 199 154 148 156 169 160 147 166 167 177 194 193 254 249 272 390 481 304 170 99 65 79 86 101 127 114 110 121 141 151 208 234 239 176 199 157 172 161 179 160 129
206 227 200 192 185 212 252 281 256 230 217 186 164 168 243 343 411 312 264 196 168 147 149 112 109 128 126 107 123 143 141 138 130 202 260 234 189 210 190 177 182 170 152
200 185 178 198 226 242 239 230 239 228 212 225 220 256 293 291 242 251 253 210 177 159 147 120 112 112 103 110 120 177 213 189 185 195 236 231 187 214 219 193 168 156 148
178 178 195 225 235 226 242 247 229 205 175 154 147 134 139 164 188 147 137 163 151 130 82 91 115 123 126 131 150 152 152 224 208 220 251 235 215 184 216 175 165 155 145
186 215 222 198 210 228 249 237 203 183 159 157 148 141 133 102 142 128 135 116 117 116 109 109 125 140 137 138 163 184 180 190 232 255 227 250 316 267 249 222 220 171 162
219 201 197 222 243 271 269 245 227 192 185 154 147 122 99 86 84 110 135 158 148 157 141 135 154 178 173 177 195 202 210 193 180 316 268 304 267 232 239 215 175 178 151
193 219 257 267 248 225 191 170 158 138 112 113 98 105 115 136 200 276 249 193 220 186 185 189 214 235 268 263 257 245 227 168 145 190 252 239 229 193 200 177 143 144 133
186 220 230 212 182 176 178 156 150 160 157 149 159 158 155 164 238 239 231 225 193 171 174 197 214 215 176 158 164 157 156 162 171 156 197 283 291 330 226 191 195 139 99
217 234 242 239 221 198 194 188 199 187 177 193 175 175 168 180 165 235 228 175 153 172 191 205 169 150 130 141 106 107 140 177 164 219 247 268 274 303 241 178 169 139 121
246 266 258 238 216 204 189 192 208 194 185 182 180 179 173 169 186 219 166 143 149 160 189 180 162 137 126 139 128 112 142 135 134 89 155 208 203 253 270 240 226 188 182
265 272 276 266 250 228 224 214 196 196 196 185 194 172 183 161 214 177 149 137 140 155 154 157 142 164 143 134 111 97 68 40 56 99 39 243 249 280 340 274 245 244 162
298 307 294 268 245 207 184 140 185 189 163 168 174 181 156 188 166 135 113 109 120 121 152 154 178 161 140 118 97 74 47 7 4 11 84 116 180 298 348 350 243 194 172
304 292 275 239 216 196 163 155 151 118 91 96 117 120 122 118 130 121 123 137 111 137 158 168 162 149 133 117 99 78 46 -20 -90 81 114 146 108 283 434 305 195 149 157
312 295 227 187 164 146 159 160 156 157 140 127 89 128 158 148 140 122 142 150 182 164 152 143 139 133 127 114 94 71 54 17 3 16 43 73 113 161 207 166 158 180 146
229 192 162 147 150 151 149 144 138 134 132 137 140 133 185 196 125 91 126 156 156 141 128 119 120 118 105 84 75 65 50 28 57 15 90 58 99 142 109 126 154 151 126
191 158 135 117 117 131 137 139 140 138 142 154 148 171 185 175 154 158 168 166 154 129 111 104 98 90 78 71 68 61 38 50 47 87 104 57 94 90 99 108 135 145 133
121 110 113 107 128 134 136 135 139 144 150 152 155 210 198 170 138 168 172 167 145 122 108 104 92 71 64 63 65 50 38 56 62 47 124 13 100 47 48 77 107 153 135
120 118 123 136 132 138 147 140 152 155 150 159 170 182 179 147 170 175 167 159 132 111 113 101 83 65 59 55 56 36 43 78 79 64 140 226 40 57 53 63 110 157 132
145 146 136 135 145 140 133 158 159 162 171 177 176 178 178 178 178 165 154 133 112 111 100 92 78 63 57 58 55 40 26 61 100 116 145 119 159 37 46 64 98 120 125
151 150 153 156 163 161 165 169 160 161 166 176 180 177 175 175 166 149 131 114 104 91 84 86 75 55 54 51 53 44 36 20 53 124 131 122 143 47 55 72 85 112 142
159 161 166 174 175 173 166 165 178 182 190 186 181 176 168 163 161 151 119 104 92 84 79 71 71 52 46 44 42 39 35 64 76 109 121 163 223 49 60 56 84 121 136
160 167 174 179 177 177 179 190 206 206 204 192 187 172 164 156 150 131 115 91 87 82 63 60 54 41 39 48 39 50 78 76 82 114 131 173 183 127 52 43 63 122 123

GFSGL_con_3kmhel_039.txt.gz
Helicity
71 124 144 299 344 317 374 397 243 229 330 345 347 282 306 325 336 353 382 396 390 329 268 296 363 424 322 158 226 171 173 214 264 223 199 188 231 202 199 256 258 285 305
216 97 191 435 563 383 399 354 211 315 301 277 233 262 301 344 332 340 350 346 303 305 301 409 358 308 173 153 172 160 172 171 227 227 233 232 221 204 209 274 286 312 350
205 12 213 326 255 216 262 274 288 295 215 209 244 274 312 323 329 312 285 315 254 300 326 358 244 202 183 173 179 165 145 140 197 267 239 212 214 221 227 289 313 321 371
178 338 365 340 354 389 335 313 271 252 257 259 277 318 329 323 282 247 263 249 246 255 271 239 247 241 191 157 138 135 131 175 199 208 208 217 246 217 276 273 274 389 343
399 384 378 380 360 315 275 275 284 292 290 300 341 371 360 314 270 249 249 264 284 237 244 233 214 160 121 93 121 98 119 147 170 198 231 229 248 293 318 254 307 258 311
356 352 346 321 312 310 289 278 288 275 245 277 302 296 289 262 243 252 268 279 264 253 231 196 146 98 101 95 102 136 176 202 193 227 234 261 254 291 274 282 284 317 276
427 445 425 404 374 355 336 312 267 270 254 249 251 246 244 263 284 298 301 271 259 213 175 144 112 106 131 134 142 150 145 156 168 212 241 254 256 244 218 209 250 228 261
431 434 412 395 396 393 357 335 321 268 241 235 252 264 295 264 289 267 257 215 190 150 125 132 174 189 178 154 119 103 115 133 159 192 232 256 267 261 245 205 179 191 315
367 358 342 360 371 341 311 286 285 281 257 249 234 249 249 207 215 228 211 196 185 217 202 178 162 138 155 182 129 136 151 149 168 193 203 190 178 157 159 176 195 246 305
328 324 308 311 306 284 273 270 253 245 255 261 277 283 289 289 254 236 254 236 230 197 182 157 171 170 171 177 177 178 155 156 175 161 157 152 160 170 105 160 155 197 257
332 365 378 339 317 328 327 323 314 313 308 272 280 330 336 356 373 350 294 234 203 179 148 135 126 138 139 136 157 163 170 186 172 185 180 179 188 191 155 164 153 106 205
430 384 368 364 337 331 316 291 289 295 294 279 375 428 401 352 302 287 273 241 199 161 145 126 122 131 143 158 163 177 221 205 207 205 188 182 178 137 138 145 132 111 137
403 366 335 318 305 256 271 320 355 319 344 369 420 385 367 323 309 289 261 226 201 158 141 141 138 148 163 167 173 196 187 190 195 193 182 169 132 73 48 81 100 60 158
381 365 374 407 463 474 468 458 448 436 439 430 427 409 342 294 239 201 186 161 163 160 159 163 157 156 130 145 152 156 160 172 178 170 155 128 110 102 67 37 47 60 209
499 504 539 573 571 553 506 422 436 449 365 382 347 309 279 252 231 199 172 151 139 139 140 163 167 149 164 157 150 149 154 153 154 141 125 111 118 113 92 47 20 54 185
613 624 593 539 530 501 481 530 509 403 329 289 249 211 208 182 184 186 175 168 180 182 172 185 174 169 166 163 154 149 145 147 138 125 105 97 98 88 29 39 84 51 84
646 635 679 672 566 485 483 428 388 262 197 152 154 155 131 144 157 168 164 175 216 227 183 181 180 181 160 173 167 160 152 139 122 111 92 90 84 33 17 68 121 74 98
697 689 615 579 600 631 600 465 315 264 218 171 100 88 116 125 151 161 127 124 160 177 191 184 180 171 178 184 168 156 140 127 119 102 81 83 80 13 58 109 126 78 141
579 560 604 685 679 561 415 304 269 247 229 198 154 179 185 152 171 155 192 170 166 180 190 189 173 171 180 163 149 138 133 121 107 100 87 86 66 53 95 112 112 168 178
640 701 522 318 276 255 245 240 220 201 193 195 209 206 196 182 167 175 220 227 230 210 189 170 171 179 157 147 138 129 127 118 112 100 87 86 74 91 116 118 119 105 76
284 243 242 225 195 166 151 163 169 179 189 204 214 204 200 193 169 175 202 204 184 172 165 165 168 148 145 142 126 136 118 108 105 96 84 78 89 124 128 194 140 120 64
241 200 163 140 131 138 137 140 165 186 211 229 229 198 195 182 187 203 197 183 166 158 160 158 143 145 135 131 131 115 101 97 93 86 61 65 78 101 137 229 188 203 55
131 119 114 109 126 142 160 183 201 206 199 203 214 222 229 236 229 220 208 182 179 171 150 145 142 136 115 119 104 106 100 96 92 72 60 59 106 126 151 210 245 216 202
110 124 145 151 141 154 170 181 188 209 229 227 232 235 238 230 244 240 211 187 167 142 131 128 126 116 117 105 99 111 111 100 67 53 48 47 110 138 145 188 215 231 200
110 121 143 162 174 184 191 199 207 218 231 262 261 252 248 242 240 227 197 165 146 137 126 116 108 112 100 102 105 109 83 62 63 63 35 42 98 131 150 173 193 207 187
144 156 158 161 170 179 193 230 245 246 241 234 231 221 205 208 200 177 163 152 137 123 90 81 91 99 97 89 85 60 51 54 66 88 71 51 71 95 122 161 202 198 191

GFSGL_con_3kmhel_042.txt.gz
Helicity
294 242 317 242 204 260 306 325 368 415 305 22 80 173 204 279 321 347 373 372 363 350 342 339 319 309 344 352 318 236 190 192 244 214 184 164 196 171 171 214 223 254 279
393 283 292 290 383 435 339 352 488 287 261 80 105 145 222 329 323 295 335 320 330 332 313 306 285 291 370 303 226 185 208 190 217 222 209 200 171 166 169 196 228 269 319
568 566 471 298 315 357 379 344 430 322 204 204 210 252 250 255 291 305 316 303 295 305 301 310 268 295 266 247 202 147 203 174 196 245 196 179 181 183 168 165 197 196 275
494 525 372 279 262 176 218 370 338 291 300 253 248 262 274 303 288 302 298 263 275 277 280 271 251 232 262 234 192 184 169 193 168 177 177 193 205 166 217 202 199 221 252
411 345 249 174 166 170 356 412 328 264 263 281 330 332 312 310 302 293 264 286 296 269 287 263 236 239 249 244 212 183 164 152 169 187 193 185 196 207 228 248 278 261 251
295 236 250 249 291 324 317 349 339 340 354 349 332 336 337 314 276 264 262 260 272 280 269 278 291 239 258 265 215 224 210 210 205 199 205 217 221 234 250 277 277 282 304
336 370 389 399 378 397 394 401 368 347 324 299 308 317 325 295 247 249 285 315 319 309 309 313 280 241 212 188 186 156 154 154 150 160 196 213 204 225 247 253 271 280 285
459 454 445 439 444 415 370 328 339 290 293 296 309 297 301 281 290 339 407 386 373 354 315 276 252 229 224 208 169 143 119 118 143 173 203 194 221 225 247 244 247 224 209
378 367 369 379 369 310 320 307 307 331 317 308 276 274 296 321 357 389 389 360 342 325 301 270 242 248 230 219 180 172 148 145 169 191 172 157 161 175 201 249 243 230 214
351 344 318 315 307 303 279 284 294 301 297 285 305 338 384 387 356 318 310 310 350 308 290 274 272 242 238 208 181 171 178 171 156 138 132 121 110 139 149 212 233 256 226
373 393 363 308 272 248 274 288 296 332 366 394 443 439 464 416 398 368 334 323 306 287 250 223 212 209 187 188 199 187 177 180 156 150 135 129 138 159 188 171 173 209 211
385 358 323 297 279 283 296 294 327 370 429 429 456 473 459 441 425 404 365 349 291 243 221 185 161 164 175 185 197 211 212 191 176 170 161 149 153 156 148 137 133 155 164
385 347 319 309 299 306 336 362 368 387 404 410 437 466 467 458 442 426 370 306 257 198 172 162 168 182 203 205 213 229 213 192 188 185 179 179 172 159 136 123 115 115 126
372 375 390 424 441 440 434 394 391 405 429 423 435 451 455 440 389 313 278 228 180 160 156 169 177 182 194 208 206 199 194 190 189 190 193 179 163 161 138 121 112 105 84
458 453 466 473 486 533 581 535 531 483 425 429 428 409 418 397 320 265 219 205 199 159 150 172 194 191 188 188 181 185 177 180 187 194 193 184 167 136 121 102 118 106 70
509 497 496 520 528 530 538 581 570 473 443 405 365 339 317 252 225 244 242 207 209 185 156 152 149 145 148 154 167 169 160 164 177 192 187 173 149 125 106 93 99 69 44
576 553 552 535 518 496 463 440 462 478 456 422 320 243 242 305 289 256 205 179 190 171 157 166 165 167 146 167 168 165 158 162 172 181 172 161 135 120 89 85 45 50 69
615 595 574 557 535 512 484 481 519 590 473 311 316 258 246 249 264 227 180 131 163 190 191 206 196 177 177 181 164 159 166 171 177 167 167 144 138 119 92 76 24 47 112
662 630 595 561 531 529 557 470 309 276 235 185 174 191 184 167 167 159 179 163 177 190 185 181 178 181 171 164 168 166 175 185 161 174 154 141 140 109 94 73 44 115 112
495 418 410 427 360 292 275 250 232 216 204 190 173 153 159 173 171 170 170 163 179 189 179 179 185 176 167 172 169 175 196 163 159 148 133 126 125 116 99 63 82 113 102
355 350 335 303 246 222 221 209 176 162 170 182 193 191 190 188 184 175 183 184 196 193 184 185 175 171 169 166 172 186 158 150 142 128 114 105 97 106 102 69 114 123 104
282 239 205 194 177 160 140 140 160 174 189 197 198 198 219 208 212 222 219 217 200 194 190 174 177 171 162 173 161 149 141 136 130 107 98 78 78 87 84 91 101 141 146
164 157 137 123 127 142 153 172 184 186 191 208 223 238 249 251 250 256 254 236 234 219 187 185 185 174 151 134 133 140 127 117 105 86 65 59 61 79 72 91 100 196 179
119 133 138 133 146 147 156 173 183 211 218 221 228 239 262 261 262 262 247 237 229 207 189 171 155 143 132 130 136 136 121 109 77 60 57 49 50 65 62 84 99 172 201
131 143 146 146 152 161 171 179 187 198 216 221 228 234 228 223 224 219 216 192 180 175 167 146 124 115 112 122 118 109 92 69 57 58 53 38 45 64 72 85 92 134 186
139 148 157 169 177 187 205 218 230 236 235 212 194 180 165 175 186 196 179 179 160 145 119 102 104 105 109 97 86 77 60 61 64 60 43 29 36 43 62 86 124 111 178

GFSGL_con_3kmhel_048.txt.gz
Helicity
264 255 225 211 214 212 178 158 147 82 150 108 111 148 105 119 175 213 166 223 56 143 179 169 195 315 349 371 397 353 387 331 391 294 297 252 208 153 131 132 152 184 180
319 324 290 247 214 227 214 214 212 79 232 158 192 102 73 212 244 273 141 53 82 126 144 176 280 315 333 356 323 351 296 277 350 337 288 240 186 183 152 138 150 158 161
341 366 371 386 379 347 333 272 79 206 116 17 80 68 149 355 310 20 -4 42 66 126 224 243 289 321 339 394 333 319 342 342 355 333 304 220 201 166 151 153 159 146 129
329 392 419 476 508 454 368 216 123 171 146 130 204 235 161 290 243 156 150 139 182 255 271 272 287 321 339 344 363 329 368 350 313 284 230 209 182 153 142 162 157 127 125
224 278 362 429 424 397 308 248 206 186 213 197 219 228 255 237 220 234 218 230 252 266 260 287 306 344 350 346 361 356 347 317 294 250 224 219 198 185 179 163 160 136 103
211 229 233 272 344 315 260 234 219 229 196 210 252 301 351 321 291 266 273 299 307 308 328 377 427 453 452 457 424 387 308 280 255 227 228 224 206 192 163 156 146 131 118
217 214 246 273 307 287 252 240 236 276 306 289 301 332 303 283 246 261 291 326 335 344 390 426 471 441 440 413 397 345 330 311 211 219 227 212 193 159 154 157 149 153 178
238 280 306 293 307 306 320 322 372 375 339 323 308 346 316 274 288 330 377 380 415 422 421 440 447 428 400 365 362 339 266 225 241 212 191 167 150 148 143 137 144 145 160
317 295 272 298 395 399 339 339 352 332 346 347 346 344 337 343 345 378 440 480 518 523 518 496 471 462 407 339 317 280 305 276 213 220 195 177 164 145 149 189 185 204 190
333 306 314 325 313 314 312 336 366 401 427 442 495 463 429 402 375 399 428 455 492 507 527 502 463 421 381 319 280 295 307 265 227 214 188 187 174 175 183 191 189 204 215
352 345 331 285 274 278 310 316 379 467 524 526 526 495 473 442 436 410 393 392 401 439 455 444 414 349 307 304 277 258 253 210 218 210 204 175 164 170 164 169 180 194 199
351 354 342 330 306 335 411 439 447 453 462 439 446 479 497 498 497 485 462 458 425 427 410 377 350 332 307 271 255 255 301 257 261 224 201 183 181 176 167 165 155 141 146
367 347 346 361 382 394 420 413 410 378 366 357 375 411 441 448 477 515 506 465 424 410 362 334 309 277 260 286 344 378 297 265 237 228 212 179 174 158 142 151 130 111 123
370 385 380 429 470 472 428 345 310 306 312 318 341 371 391 418 439 442 435 410 391 378 348 329 327 363 418 396 334 267 244 248 239 211 186 180 149 160 159 147 154 159 168
367 352 390 417 435 468 472 375 323 306 253 266 307 336 372 410 407 380 389 400 363 329 340 360 397 336 276 273 260 253 261 262 220 210 179 176 178 174 161 148 152 167 174
325 316 326 362 382 382 409 475 485 378 361 393 427 425 455 432 403 398 408 365 307 285 323 331 308 283 270 253 258 249 231 213 203 198 190 186 183 174 161 154 157 164 178
324 324 352 373 386 408 432 457 517 595 609 537 494 464 417 391 342 283 257 254 301 297 288 272 249 239 230 230 222 217 210 201 196 182 175 170 169 165 185 187 176 157 142
546 524 499 499 497 473 435 380 316 294 303 307 294 276 303 312 315 313 306 256 228 198 175 176 188 200 215 224 226 218 202 185 170 170 173 181 195 196 181 164 147 136 112
502 502 474 413 339 314 307 271 225 203 209 246 281 323 307 306 294 255 224 176 165 166 186 202 214 221 222 216 208 188 170 175 180 194 192 191 187 174 154 139 124 107 93
460 457 396 328 310 280 258 256 263 282 287 267 247 223 202 193 175 154 148 154 182 201 200 209 224 214 199 188 184 182 183 181 185 184 180 175 165 151 135 118 116 96 87
342 295 275 261 259 261 266 269 257 251 244 238 233 222 206 188 189 206 202 217 216 218 227 222 216 210 209 196 190 186 178 175 178 172 161 152 156 138 122 115 99 89 79
206 212 223 224 216 227 222 204 197 195 188 192 212 248 268 239 237 233 234 234 232 226 219 215 217 204 188 180 175 176 176 175 170 158 147 130 113 110 102 95 92 85 71
195 196 191 176 162 164 173 179 183 188 199 211 208 202 201 192 192 201 208 205 199 199 190 185 176 173 165 157 150 145 149 144 129 119 123 99 90 91 92 82 78 69 55
131 127 126 130 136 148 162 175 181 197 188 184 180 176 171 165 171 172 163 149 148 133 124 122 119 113 116 113 115 114 104 96 102 97 72 68 70 70 66 61 57 52 57
107 120 136 140 144 138 149 155 166 171 172 160 152 142 148 148 142 123 90 88 88 92 94 97 95 86 76 70 66 63 67 75 64 54 52 43 45 43 49 47 51 60 79
113 118 117 116 120 120 126 130 131 129 130 123 110 107 105 97 89 83 90 91 87 80 73 69 62 52 47 49 44 43 48 38 33 28 35 33 39 41 37 35 54 63 91

GFSGL_con_3kmhel_051.txt.gz
Helicity
121 121 121 123 118 110 104 88 104 106 135 124 135 113 118 110 137 152 132 134 206 165 198 234 82 64 79 161 247 319 357 345 315 328 353 360 249 249 243 212 205 172 156
161 158 181 184 176 148 120 85 97 117 58 62 124 149 150 153 140 177 183 230 251 234 142 84 94 134 101 215 269 326 335 337 365 334 278 283 279 251 242 204 195 162 157
229 227 222 248 228 211 211 219 229 175 155 139 132 162 207 107 123 173 185 234 209 215 87 58 105 200 248 294 302 343 342 309 364 310 290 255 251 238 199 187 215 185 170
214 251 253 272 290 287 255 235 232 197 186 164 147 131 123 87 90 109 94 117 160 118 115 150 214 235 263 306 342 341 336 350 344 283 294 287 233 206 206 199 195 193 164
193 180 206 217 215 229 257 248 238 205 211 203 141 77 71 76 100 133 146 184 215 205 200 208 212 243 301 341 365 354 338 339 277 285 303 276 205 183 217 232 201 189 154
173 150 103 152 174 212 240 263 238 196 161 151 164 123 112 136 127 190 274 217 205 273 304 346 390 412 419 438 459 414 334 322 339 329 272 213 185 210 228 225 204 195 207
156 107 121 154 170 193 188 175 204 164 134 131 111 117 151 172 209 276 345 298 303 339 404 453 477 445 472 502 530 471 442 434 352 272 215 197 219 250 240 216 193 196 188
134 137 132 157 153 139 149 143 159 154 153 180 201 251 291 272 242 276 336 343 381 399 414 404 429 433 408 439 439 440 403 353 282 227 211 244 242 225 185 181 186 175 143
167 170 176 170 154 161 194 283 331 304 313 320 321 328 290 266 285 393 433 467 525 541 470 451 465 488 477 459 446 425 375 310 255 275 284 261 246 211 183 219 216 204 202
195 185 221 240 276 304 282 316 371 392 391 386 420 388 367 364 377 360 422 468 504 494 509 534 537 491 447 412 404 350 300 256 241 267 255 242 206 184 224 195 204 212 193
351 363 342 315 330 323 344 356 392 413 449 478 524 555 562 487 410 384 386 357 372 425 481 482 454 402 359 346 345 333 309 269 281 267 251 271 255 257 238 221 221 203 182
419 446 399 361 332 326 364 397 379 415 504 506 544 586 582 547 455 402 390 390 381 391 383 372 366 320 318 293 293 287 286 263 253 289 329 291 264 243 267 245 200 184 178
464 489 386 340 327 328 368 362 382 402 428 437 464 448 382 388 479 499 463 435 422 404 370 340 276 260 273 307 310 273 256 298 301 244 217 211 235 252 194 168 167 163 154
339 317 313 352 393 426 413 371 367 367 372 329 310 302 339 365 389 395 405 411 392 374 343 324 319 337 349 311 285 265 232 196 184 200 201 207 189 168 164 175 174 172 174
337 325 367 393 394 452 491 418 392 352 230 187 207 235 267 314 331 329 333 356 362 349 338 315 311 286 263 246 236 204 196 217 217 217 198 182 174 174 183 181 176 181 182
339 335 324 333 329 356 404 489 456 348 339 338 330 315 358 349 341 333 304 285 270 248 261 272 286 269 260 243 223 214 212 200 199 191 181 177 187 201 205 192 177 182 208
435 418 380 378 374 385 389 395 422 462 427 371 332 311 279 228 233 228 244 244 251 237 243 235 241 236 227 224 213 202 199 200 194 185 186 194 206 214 206 223 223 215 197
482 444 372 360 369 351 325 272 224 230 282 293 292 261 282 281 282 272 236 206 221 212 203 201 197 196 203 206 207 209 204 195 187 189 195 199 227 226 228 224 213 192 169
427 404 384 372 356 348 302 276 240 203 204 223 250 304 301 314 309 302 269 219 202 186 178 178 190 201 209 211 213 205 204 209 216 222 217 223 229 229 217 201 181 155 136
454 459 430 370 323 287 232 199 192 203 220 236 250 241 213 200 207 193 182 182 190 200 206 218 231 236 238 230 215 221 218 215 212 213 216 211 204 200 196 180 152 134 114
262 265 258 244 231 213 211 217 213 217 215 218 225 213 213 182 188 199 202 221 232 237 245 240 227 213 199 202 193 192 185 181 181 185 188 186 183 176 150 136 114 96 81
186 185 193 192 175 183 179 171 172 173 175 183 193 226 245 216 211 213 226 231 225 213 198 187 187 180 174 172 168 163 158 157 160 160 157 148 139 127 112 95 83 74 61
121 129 132 135 135 148 160 173 187 200 205 206 200 202 211 212 210 203 195 175 168 166 153 150 146 140 135 125 121 119 117 117 116 107 104 102 87 84 81 69 63 56 48
98 114 124 137 144 156 163 169 178 204 200 198 185 171 168 162 158 153 143 141 133 125 115 114 111 110 105 95 88 82 74 76 70 68 67 57 54 53 52 46 41 32 27
113 119 129 127 135 137 143 146 142 138 140 129 118 114 115 115 117 116 113 112 110 106 102 90 85 77 65 55 48 44 47 46 58 49 42 31 24 19 27 28 24 22 32
106 108 99 95 100 96 104 101 99 98 102 102 98 95 90 89 94 98 100 94 92 82 72 69 60 50 43 44 41 44 40 31 28 23 27 26 24 25 21 11 15 39 60

GFSGL_con_3kmhel_057.txt.gz
Helicity
125 113 92 86 80 63 45 40 49 66 90 84 119 121 145 143 118 127 133 120 138 148 176 180 180 180 217 299 349 310 278 238 330 213 228 291 273 276 360 245 260 288 284
122 134 128 106 101 99 81 64 67 59 61 76 83 114 114 109 93 105 116 136 140 156 170 214 250 271 266 315 303 287 237 225 199 160 267 355 356 351 257 306 305 286 253
106 134 155 153 136 135 135 111 106 105 106 89 110 133 145 146 107 125 129 137 176 203 176 170 239 279 253 275 326 370 311 304 297 363 431 427 373 418 407 361 308 250 255
132 140 147 177 204 181 158 148 145 148 147 155 152 149 149 153 169 191 194 148 153 205 158 251 295 335 329 231 298 341 371 322 348 404 424 432 387 431 423 345 351 288 237
113 135 163 232 222 170 150 139 146 152 192 195 195 195 184 192 211 230 233 215 254 255 198 177 222 206 208 242 380 309 334 342 380 399 460 482 488 507 323 366 386 311 325
120 125 148 194 226 228 221 214 194 180 168 174 188 205 226 264 268 279 248 277 277 243 248 183 194 210 248 338 411 285 310 387 441 487 477 469 412 328 398 341 417 385 356
118 111 126 196 177 197 219 198 194 198 192 157 171 211 227 253 321 353 333 288 277 279 285 304 334 342 379 422 534 615 604 615 477 494 487 424 403 343 414 423 399 366 324
69 98 118 135 147 178 185 172 167 176 160 172 168 176 196 212 259 320 302 264 238 295 369 427 451 441 439 492 598 647 657 751 747 607 580 409 550 573 494 448 414 393 363
60 87 96 138 163 168 186 193 182 189 193 190 186 186 215 283 335 273 319 462 515 533 534 491 460 471 454 496 573 621 681 645 647 593 529 517 544 549 498 441 375 378 359
56 97 122 128 152 156 187 224 242 256 349 519 492 449 439 365 320 261 392 510 591 616 618 584 528 534 612 625 666 639 667 655 452 418 403 428 385 367 332 356 368 404 300
84 105 118 115 152 188 197 218 484 622 664 643 636 596 522 437 416 434 441 479 551 631 643 630 626 701 744 813 699 683 531 341 365 404 349 328 306 284 255 174 166 215 255
187 260 418 474 529 630 645 672 622 593 656 673 659 624 512 456 513 449 398 486 517 559 595 584 586 658 687 576 418 355 345 339 357 361 343 308 236 146 163 220 220 200 201
111 238 390 491 527 571 559 580 669 631 668 667 575 517 606 461 464 612 475 536 552 579 582 597 575 442 372 395 439 406 360 367 317 263 212 190 205 209 198 184 180 175 197
221 333 457 584 573 606 651 638 622 604 565 519 585 538 633 671 635 593 579 619 624 582 488 471 420 379 316 253 258 269 239 180 165 163 164 164 161 180 190 196 206 204 189
355 438 532 648 699 718 779 676 656 685 612 618 557 563 775 677 548 536 549 469 425 320 287 299 294 235 190 171 166 144 110 110 134 178 189 200 208 207 188 176 163 168 177
442 536 581 550 623 740 921 1038 909 767 754 634 602 529 556 484 449 355 335 265 223 169 185 207 200 197 192 173 159 145 157 185 222 204 194 187 177 174 181 195 191 178 199
358 538 628 782 903 813 884 1053 1043 1076 879 701 574 566 440 298 263 255 245 230 213 196 212 214 216 213 199 206 216 220 225 204 150 162 160 172 185 192 197 203 207 215 235
246 360 436 487 481 425 217 317 332 350 355 368 327 256 276 265 234 178 133 163 198 234 245 227 222 219 220 226 232 220 197 182 184 200 176 181 182 184 196 196 207 229 250
243 221 208 199 213 254 276 254 248 257 260 241 203 210 211 271 320 339 344 251 229 225 202 199 204 209 198 188 182 179 173 178 171 160 163 167 176 161 152 158 167 185 198
259 253 250 238 235 231 183 189 201 200 205 210 215 162 137 142 169 188 203 194 198 203 183 165 167 170 169 168 160 159 149 153 151 140 139 123 120 121 124 137 151 160 163
189 221 226 201 191 164 159 172 164 164 170 191 218 235 206 151 154 160 163 180 178 175 171 170 154 152 145 146 149 141 123 121 120 121 118 125 132 121 107 103 106 100 96
139 132 151 170 156 154 144 142 142 133 126 128 142 181 204 170 166 162 157 155 158 160 150 147 146 135 129 117 115 116 125 128 128 127 119 106 92 87 83 75 65 58 52
96 107 103 107 119 146 157 155 148 152 165 171 168 171 171 169 172 154 136 130 120 111 105 104 103 114 122 120 105 106 119 117 109 98 82 73 65 64 60 50 43 40 38
117 117 127 142 164 149 147 150 156 186 168 160 150 140 133 126 122 116 113 106 101 102 103 108 102 110 117 102 99 93 79 83 81 65 57 54 54 47 46 41 34 21 29
141 144 151 155 152 146 143 147 145 139 135 128 121 118 113 111 114 118 116 108 102 103 100 90 95 95 90 107 82 64 88 111 83 56 50 37 32 30 32 33 29 25 15
125 129 124 119 121 118 108 102 103 103 108 109 116 123 125 122 121 105 100 94 107 88 76 87 78 88 80 64 72 120 90 52 42 43 45 42 41 38 35 24 12 16 8

GFSGL_con_3kmhel_060.txt.gz
Helicity
242 154 117 132 135 150 134 140 131 106 120 77 52 33 25 30 47 105 90 114 143 182 198 237 234 236 193 213 231 272 298 376 348 305 287 384 315 310 284 271 236 252 253
236 227 160 128 120 141 137 115 107 96 92 106 115 98 73 94 110 143 145 159 188 188 195 190 186 205 195 208 262 284 390 468 373 237 273 363 299 252 299 321 307 268 254
198 267 242 194 187 159 145 149 136 101 128 124 134 142 169 160 165 193 208 197 203 215 206 204 223 260 255 260 315 388 433 405 319 287 319 368 330 311 362 328 287 287 284
144 215 276 265 230 199 187 169 163 157 152 169 181 175 173 197 236 238 247 261 271 274 271 271 242 249 277 284 358 426 510 410 312 316 400 509 406 378 385 428 378 373 378
207 157 211 281 242 195 175 185 203 189 192 189 199 205 217 237 222 244 297 304 287 273 273 259 253 264 302 320 399 397 385 349 299 416 456 490 468 497 489 536 468 454 301
261 224 167 186 222 223 221 241 236 228 220 228 230 244 254 259 261 297 321 315 292 277 270 273 295 332 319 297 335 356 419 326 407 540 397 470 403 551 599 542 563 433 415
176 228 222 179 181 206 250 264 265 275 297 287 270 275 249 245 254 275 300 287 283 306 307 321 357 375 386 460 574 661 713 777 782 538 550 636 739 511 584 529 561 426 381
185 132 177 216 202 204 243 269 264 280 309 307 286 290 270 225 200 216 263 269 259 253 280 286 287 413 454 508 596 687 768 875 804 722 697 644 674 652 710 602 458 398 429
189 177 89 179 225 207 221 246 238 244 265 281 271 242 221 194 283 220 275 347 505 525 480 445 449 509 511 526 587 638 724 704 725 678 629 674 801 640 629 438 409 432 396
180 180 221 123 188 220 231 229 211 226 212 287 538 576 550 518 456 361 454 521 567 572 582 579 556 573 663 626 664 708 774 694 825 928 564 806 715 477 409 409 414 379 377
117 153 79 139 181 189 207 221 262 411 603 654 718 724 661 608 554 512 483 512 561 640 595 565 546 563 575 569 632 587 566 712 752 411 695 369 221 142 203 150 183 269 302
71 89 70 138 260 432 605 625 701 708 689 753 760 760 800 604 491 419 431 450 513 601 616 577 519 631 661 685 607 633 533 441 548 383 240 205 264 274 243 230 217 212 221
34 80 100 127 225 409 523 620 729 704 675 679 678 693 698 676 852 645 709 677 626 637 571 515 768 575 671 632 587 561 447 336 212 199 231 197 176 164 165 176 197 214 236
9 79 146 264 374 404 502 664 673 711 712 720 726 758 769 751 787 768 853 842 834 732 861 825 699 545 473 395 356 369 258 216 179 155 138 125 132 177 183 179 178 184 192
-7 137 229 298 439 519 617 570 719 819 689 740 819 817 777 825 841 556 545 461 513 546 461 411 438 300 220 195 128 120 124 156 144 126 125 143 159 176 190 196 189 197 201
85 195 286 369 511 621 708 865 855 850 877 788 764 621 797 723 508 519 648 384 300 167 181 230 214 204 185 171 138 128 108 112 130 146 155 169 183 185 191 188 190 200 208
131 116 114 243 439 413 583 818 1126 1108 1110 1302 637 727 469 491 458 254 269 282 257 257 251 238 220 192 173 178 192 204 180 163 171 179 175 170 173 168 171 176 181 195 219
222 214 175 184 112 166 230 313 380 585 643 477 321 266 239 206 190 206 184 223 255 269 242 239 238 224 205 196 190 188 184 183 182 155 157 166 164 154 138 139 147 161 174
277 265 201 214 204 182 176 170 159 147 164 140 158 239 225 297 260 266 273 228 194 182 172 195 200 204 206 192 190 181 180 170 162 153 140 125 110 116 114 113 109 109 109
219 227 147 111 130 158 185 175 172 196 195 187 140 120 118 161 190 189 185 176 185 182 155 171 174 176 188 193 188 177 165 154 135 126 117 111 112 105 91 83 83 95 98
144 155 161 135 121 80 68 64 69 107 139 147 144 130 120 109 131 153 171 189 186 200 210 203 175 176 164 154 146 135 122 116 111 106 113 112 109 97 89 90 88 87 81
85 102 115 133 137 147 126 109 94 94 94 102 120 168 189 120 106 121 138 142 140 154 149 161 147 135 125 129 118 112 111 120 121 121 118 111 103 91 81 77 73 73 71
106 119 133 106 113 138 169 162 129 125 128 131 120 119 123 128 125 110 119 123 105 92 99 114 104 112 107 106 105 109 120 125 128 119 113 93 73 73 72 72 67 61 55
122 125 123 123 138 148 141 138 130 137 113 100 92 90 80 80 71 79 80 87 101 94 86 82 86 95 84 99 99 93 106 108 102 111 100 76 68 64 62 55 47 44 53
121 121 121 119 109 99 98 107 112 108 107 106 101 102 103 100 102 95 92 98 114 107 91 85 95 103 113 94 88 151 123 101 78 69 70 62 55 45 44 46 53 38 25
118 126 127 121 128 125 114 107 111 103 106 106 116 118 112 116 126 117 111 123 108 98 104 105 110 108 85 89 136 93 62 58 63 65 61 52 47 45 42 31 23 34 36

GFSGL_con_3kmhel_063.txt.gz
Helicity
191 163 120 140 147 138 152 165 165 127 132 148 114 74 56 45 68 73 64 66 63 85 107 159 152 182 220 245 267 238 221 244 233 253 311 301 331 337 314 270 252 221 210
215 189 171 155 151 146 142 142 148 138 114 132 129 108 82 48 5 46 115 121 139 122 156 187 188 227 248 274 310 294 302 288 308 258 318 453 357 342 303 281 279 227 233
309 251 222 198 173 156 161 147 100 109 132 128 112 120 104 93 62 34 86 152 187 174 180 236 224 256 278 295 316 309 345 343 334 332 310 450 479 466 365 289 292 236 221
382 338 293 283 262 206 161 124 144 145 140 125 149 151 129 114 84 93 139 185 213 231 243 267 278 304 332 324 350 359 367 384 394 383 310 397 497 375 353 370 348 340 277
237 299 373 357 318 275 238 189 157 178 185 175 154 159 168 168 177 179 184 197 209 212 238 271 305 339 343 337 349 322 331 366 372 340 370 518 570 509 523 508 438 436 413
100 187 268 376 407 371 316 276 238 189 179 202 184 210 227 233 204 261 297 253 239 252 269 293 305 298 284 282 283 286 308 351 345 367 379 387 432 499 537 580 601 676 556
202 235 124 225 361 378 399 353 294 262 262 236 223 231 226 250 238 249 250 258 297 310 304 307 310 325 309 303 400 480 545 617 576 339 332 435 630 695 675 545 524 633 624
117 156 218 316 197 207 380 388 391 358 326 305 282 280 279 284 302 297 288 306 296 277 288 295 290 296 355 456 515 548 551 553 537 592 719 893 878 803 742 702 755 658 672
95 132 154 125 139 203 158 320 377 396 403 394 349 309 285 280 319 314 361 339 291 450 496 499 456 455 454 505 629 711 748 762 872 997 1041 1136 961 1044 923 736 744 688 575
116 120 100 74 25 97 164 191 284 420 436 463 524 592 568 471 478 387 342 485 586 602 604 577 559 555 574 593 699 812 932 928 911 770 731 657 490 647 480 518 592 487 303
20 36 41 45 19 21 97 113 181 427 710 746 747 689 593 548 526 478 439 496 574 649 649 649 633 591 610 633 653 663 633 659 713 653 518 522 534 501 474 369 372 272 202
-49 -8 -1 9 -3 0 106 124 238 506 687 797 834 848 741 654 621 568 539 600 693 869 870 847 771 736 807 813 787 734 742 629 443 659 613 590 434 336 297 205 179 183 177
-73 -68 -57 -21 48 61 107 216 242 382 526 691 794 828 795 746 737 773 833 937 995 1057 960 1019 1062 1048 1037 987 911 704 536 665 517 494 435 353 245 170 146 156 174 176 178
-54 -49 -26 -11 35 175 186 190 291 395 467 567 710 859 892 869 854 928 1102 1149 1241 1009 1031 908 1066 1080 912 741 554 485 472 489 351 259 196 176 178 177 183 184 195 206 197
38 16 38 66 79 185 290 293 304 406 452 567 673 802 722 800 590 662 583 726 580 684 800 723 751 322 407 336 339 262 201 194 187 171 167 166 175 184 189 184 182 188 203
73 81 96 106 117 178 214 261 614 685 657 684 796 713 761 615 1028 637 749 632 566 505 398 418 418 341 212 191 203 206 203 165 142 137 139 133 136 150 162 190 197 204 199
115 97 77 97 114 146 239 264 197 300 526 843 836 695 685 490 448 447 332 328 293 275 228 220 202 215 193 139 110 97 99 102 107 111 134 163 180 184 174 175 176 183 177
122 129 89 88 89 113 156 160 179 241 281 337 361 247 253 289 212 233 226 248 270 261 209 167 133 131 124 109 102 103 130 156 167 176 178 161 153 151 153 164 160 153 144
139 119 131 127 122 122 126 140 137 121 137 151 174 245 213 224 242 235 225 177 157 156 143 147 147 155 150 171 184 178 168 166 148 149 142 151 155 147 155 140 121 120 105
169 176 125 98 95 102 114 128 128 133 133 134 134 123 125 152 175 188 199 194 201 172 163 180 182 185 173 174 168 152 152 145 147 143 131 124 116 95 106 107 107 97 84
115 131 149 127 99 80 82 100 107 114 119 127 123 117 141 135 155 172 185 209 210 210 192 175 177 175 162 152 147 145 142 130 123 109 103 108 114 115 106 99 89 79 80
104 106 121 131 142 149 133 128 128 125 124 124 132 152 164 156 162 161 155 156 155 151 128 116 127 123 117 121 126 114 107 105 96 93 97 95 102 113 104 91 92 94 89
133 143 160 171 170 174 168 147 130 123 121 118 114 112 110 109 108 114 127 119 115 110 93 82 72 81 84 84 88 82 91 91 75 70 101 107 92 89 94 95 89 85 90
170 170 156 157 161 168 172 162 145 148 128 119 104 91 78 66 61 72 89 98 105 108 85 58 67 84 71 71 83 75 70 73 66 71 88 94 96 87 84 74 77 83 69
175 178 181 175 166 158 158 165 147 133 127 125 117 99 102 91 78 97 100 99 106 123 113 99 76 65 85 104 95 84 82 83 78 83 84 88 75 60 65 67 64 56 53
143 143 142 133 126 114 98 112 126 104 87 103 115 97 86 95 102 103 105 117 132 132 120 107 113 119 77 77 53 56 88 91 87 75 71 64 52 51 58 56 52 57 49

GFSGL_con_3kmhel_066.txt.gz
Helicity
179 208 199 168 158 118 95 106 115 95 94 81 50 32 38 48 49 51 73 91 52 64 112 156 109 140 178 204 208 220 225 258 257 255 300 303 294 271 307 334 321 339 286
192 179 189 203 196 195 183 129 104 126 128 132 104 90 86 56 28 45 20 20 19 27 96 148 126 173 153 176 227 213 251 255 299 238 262 324 361 361 329 382 380 410 388
146 203 187 180 186 220 232 212 190 144 108 120 146 150 113 90 68 76 82 78 71 61 87 134 144 200 190 228 248 254 270 287 315 299 250 283 314 394 382 367 381 360 355
125 159 203 235 255 222 198 207 225 201 161 137 119 110 119 127 123 124 126 116 115 90 97 89 94 183 214 226 280 271 264 291 301 310 273 223 269 347 414 376 325 419 319
62 147 159 160 168 197 220 202 206 214 224 192 151 127 118 113 122 126 126 128 113 93 121 145 165 225 235 252 299 238 251 277 272 252 223 212 301 477 400 354 374 362 330
151 209 126 87 149 192 215 240 261 254 245 222 212 206 199 207 177 197 209 184 179 179 164 192 214 225 227 249 269 243 265 222 215 231 204 209 207 370 406 430 452 488 425
202 177 185 194 192 96 127 193 247 268 297 290 256 222 174 205 220 262 275 247 225 211 206 219 226 247 238 242 245 281 418 463 484 330 245 237 239 369 465 616 724 714 589
167 197 205 220 159 151 178 187 119 207 247 285 300 310 285 268 250 330 336 283 279 265 261 232 231 224 266 315 427 567 601 572 471 456 473 524 544 621 804 951 789 786 910
112 132 132 142 181 192 165 156 138 130 143 290 327 325 345 304 288 336 358 324 317 300 288 340 367 311 315 413 580 665 690 695 678 728 742 782 777 696 656 671 684 687 606
89 89 81 70 52 52 149 183 116 95 86 105 211 297 327 307 376 330 370 321 333 370 563 533 519 524 510 603 682 764 881 809 869 897 947 954 929 884 839 716 483 600 480
47 34 24 26 32 47 32 4 77 135 74 119 347 555 583 630 594 600 382 412 451 644 651 677 658 679 798 877 838 870 945 1081 1030 1045 1110 956 956 940 897 746 565 762 512
-17 19 57 54 25 21 42 44 31 33 83 220 408 531 643 687 717 597 626 674 626 702 774 830 808 879 772 835 918 1058 1141 1153 1137 1116 984 1006 770 885 540 498 420 331 306
-33 -35 -41 -28 17 45 94 123 97 86 131 234 341 494 607 687 729 799 730 826 889 977 992 962 1076 1307 1361 1577 1594 1209 991 969 1013 950 794 789 437 347 251 273 205 184 165
7 21 6 11 28 100 83 115 113 113 171 286 382 385 407 428 526 545 610 803 1090 1058 990 792 1025 835 864 871 968 801 867 410 369 455 396 308 253 230 225 178 189 185 202
30 30 25 17 9 22 135 261 236 316 253 251 296 335 344 406 438 472 519 700 561 673 947 882 810 783 850 541 670 528 404 390 380 279 216 193 190 167 174 163 158 161 164
87 98 85 75 68 42 33 127 425 512 509 505 492 336 377 368 444 506 557 417 601 447 562 525 493 444 328 252 234 237 207 208 169 153 146 139 118 113 123 150 170 156 154
94 108 104 107 115 99 91 58 73 154 279 356 385 389 383 378 328 296 275 296 249 315 400 251 288 200 187 169 159 169 164 162 158 163 145 150 148 153 156 156 154 145 144
124 139 104 101 105 113 117 123 106 109 138 156 212 198 205 211 208 186 186 227 247 277 214 200 201 187 174 157 131 113 115 122 134 139 147 133 120 124 137 145 154 166 182
126 128 123 130 139 130 125 133 138 138 128 112 128 162 185 202 234 267 254 189 160 167 160 161 130 123 114 109 111 112 113 113 113 112 112 126 133 138 160 160 160 153 144
157 146 120 108 116 127 125 127 135 135 136 132 122 95 90 120 187 192 193 176 162 145 144 153 157 155 140 121 110 107 123 125 127 135 144 140 133 128 143 139 137 121 116
100 122 138 135 129 122 121 128 125 123 123 124 130 138 155 133 145 164 175 187 172 160 148 136 130 132 131 132 123 131 131 121 116 111 104 102 107 129 131 114 108 102 97
122 127 137 141 141 145 138 129 119 114 109 111 116 141 163 146 138 134 135 133 120 111 92 92 105 106 101 101 90 89 98 117 107 104 117 114 109 106 98 93 93 81 78
149 151 158 162 151 153 157 147 139 128 122 117 114 119 116 113 113 109 104 101 98 91 88 86 80 91 93 82 82 84 96 103 84 75 82 70 68 74 80 68 72 94 109
167 174 168 166 165 162 155 149 141 144 129 116 102 93 85 84 87 95 102 105 107 115 107 97 97 110 98 91 90 88 78 61 51 59 62 70 81 96 101 100 101 92 81
166 163 162 151 144 133 137 134 125 116 105 93 87 82 80 86 100 102 94 100 117 120 113 104 96 87 87 89 95 80 70 74 76 75 86 93 91 94 92 82 76 79 84
164 154 140 123 115 102 103 100 99 92 87 70 83 84 81 89 90 93 92 100 107 113 120 119 108 75 71 73 80 77 79 84 82 79 76 78 83 82 85 86 84 76 61

GFSGL_con_3kmhel_069.txt.gz
Helicity
96 103 93 105 100 80 71 80 86 31 21 90 144 164 167 152 126 125 100 70 88 91 113 115 38 105 145 168 164 185 198 226 192 168 205 192 226 227 235 278 278 286 273
103 111 120 120 119 123 92 63 58 72 92 74 46 56 83 110 161 208 199 196 176 146 149 148 89 154 156 147 177 166 205 219 251 204 199 222 255 264 275 293 276 289 301
107 102 110 145 150 139 120 108 103 98 86 78 109 126 103 72 66 80 95 93 111 128 166 160 161 189 109 127 152 153 172 209 270 269 224 256 252 278 253 284 271 266 297
38 120 139 140 179 180 178 165 165 167 147 136 112 114 113 117 111 100 90 91 92 111 142 140 147 172 117 122 164 192 196 224 240 261 253 219 228 242 277 223 215 258 251
177 166 92 83 136 158 167 189 213 230 222 205 200 161 132 127 126 124 124 126 108 117 146 152 153 168 175 209 259 219 242 275 264 258 236 217 200 297 344 306 298 257 272
133 147 153 201 205 103 84 157 179 194 216 226 225 229 214 205 183 191 193 181 182 188 178 186 186 227 221 222 253 237 258 278 256 229 203 188 182 232 297 325 310 333 310
195 196 182 181 175 168 162 191 133 106 143 199 236 251 248 228 231 303 311 217 196 214 215 225 242 264 260 271 269 298 282 295 272 236 209 211 228 265 267 330 369 331 378
189 195 180 193 190 184 189 176 149 137 152 150 110 168 211 237 247 296 362 338 271 230 247 252 255 250 275 295 284 273 285 320 374 365 305 283 315 413 449 462 505 739 850
122 138 159 160 150 135 137 152 143 138 122 113 100 83 109 131 188 240 324 324 339 320 306 274 291 311 295 328 357 328 474 548 546 526 587 664 719 707 559 605 713 696 753
91 82 68 58 52 94 121 124 108 113 120 107 100 124 188 197 307 310 338 291 308 369 334 301 532 457 417 360 369 421 565 669 773 832 846 923 913 933 980 897 750 777 749
86 83 86 86 66 64 41 45 77 110 109 57 46 107 177 243 267 285 287 247 318 305 504 573 551 503 554 532 625 671 851 1030 1054 1109 1089 1086 1176 1201 1103 1052 1103 901 738
90 99 114 122 108 101 111 99 93 89 77 83 96 119 159 162 272 273 277 317 354 505 610 718 721 577 711 834 896 984 1112 1258 1167 1283 1112 1180 1070 890 929 808 714 533 582
45 68 98 125 156 142 157 156 122 129 117 119 107 118 136 166 159 219 261 374 509 600 820 922 1107 1128 851 868 963 1012 896 891 973 1011 737 773 657 472 450 358 235 273 274
37 39 42 67 94 129 85 96 110 85 81 135 172 185 162 161 161 178 195 271 408 489 461 421 494 493 543 429 694 812 706 721 691 636 560 496 308 399 299 262 235 188 191
99 105 104 82 58 73 153 119 94 156 99 18 77 208 261 288 259 283 268 270 290 245 397 544 594 489 659 687 580 575 572 552 540 382 328 314 262 207 192 146 136 125 132
89 93 83 76 65 40 4 45 214 218 240 229 183 14 67 241 295 296 295 283 313 382 338 349 413 402 335 413 344 375 360 310 259 241 192 171 140 125 122 129 131 132 127
61 63 74 83 76 72 72 58 45 78 213 264 251 250 226 159 180 160 157 211 203 197 193 191 192 202 198 170 156 144 150 126 130 122 129 127 119 124 132 149 167 180 174
112 132 116 123 120 125 133 143 140 158 169 174 203 218 216 224 218 221 186 187 175 176 128 120 106 95 92 88 85 91 101 108 105 107 114 118 128 120 118 119 115 106 95
128 121 120 123 131 127 122 129 126 128 133 141 147 176 180 205 240 260 253 185 142 130 109 113 103 101 96 91 88 90 92 108 118 122 121 113 106 96 99 98 91 111 112
127 136 123 109 107 109 107 108 111 115 127 141 155 151 138 154 212 200 209 199 186 173 157 150 147 144 134 123 122 118 115 107 94 85 88 88 89 93 104 102 103 96 110
95 99 102 98 100 99 101 101 95 96 99 111 122 139 159 145 158 175 164 165 149 138 126 111 106 101 94 88 83 86 84 79 82 79 80 87 101 109 104 101 102 98 98
74 80 95 102 103 116 110 110 114 116 118 114 116 146 166 146 142 141 135 128 117 110 94 93 101 106 102 92 77 77 89 101 103 102 108 105 102 106 104 105 107 98 84
107 110 119 126 122 130 131 125 125 127 133 133 124 124 126 119 111 105 90 84 87 86 76 78 75 82 85 91 97 87 90 96 90 75 94 101 101 108 103 96 96 96 94
128 138 133 138 136 134 136 143 131 132 115 109 102 86 76 79 85 88 89 93 101 103 99 87 74 64 67 79 81 72 69 62 66 79 92 103 108 107 104 96 94 79 72
151 152 151 138 132 126 134 127 120 108 102 105 92 77 78 75 85 86 87 90 101 109 102 92 74 68 87 107 108 105 102 106 98 92 94 98 102 98 85 75 72 72 66
139 135 126 118 116 108 105 101 96 83 79 71 70 70 71 81 78 87 96 111 118 118 119 124 129 121 114 106 95 102 111 110 104 100 92 94 88 79 76 72 69 64 58

GFSGL_con_3kmhel_072.txt.gz
Helicity
55 38 43 44 45 50 66 61 54 52 44 76 94 111 119 119 142 172 158 243 247 203 217 165 100 53 162 106 80 134 150 198 198 117 161 154 217 225 228 255 240 240 226
75 63 56 57 48 60 67 73 58 41 24 46 100 134 150 135 136 126 100 100 131 120 109 109 106 153 116 124 165 175 194 201 249 145 140 165 193 212 232 241 235 278 267
44 52 59 79 84 81 71 69 73 78 86 88 95 119 136 140 166 186 196 190 198 178 155 151 167 155 131 177 215 216 223 221 242 240 195 182 165 194 197 202 187 202 235
30 45 50 68 84 91 94 97 97 102 92 95 117 136 147 159 184 186 170 164 180 190 186 179 190 189 175 189 230 214 206 197 193 209 198 156 146 162 223 153 143 212 218
227 193 159 108 43 54 87 100 103 108 96 105 118 123 132 137 155 177 204 245 248 233 239 236 246 256 231 222 220 196 216 247 242 240 237 228 193 174 232 203 226 218 231
182 184 169 168 165 180 199 192 83 86 125 128 121 127 152 181 178 200 212 180 171 181 187 192 195 192 192 231 294 273 262 293 288 279 265 265 270 305 258 309 278 252 187
138 147 156 151 144 156 159 162 171 176 172 204 165 122 141 169 199 224 261 251 215 215 210 201 178 202 208 196 185 244 254 282 278 271 269 289 263 298 286 270 316 351 275
141 147 158 163 154 147 142 154 155 157 156 149 154 169 159 169 292 277 262 170 243 270 276 279 271 234 215 231 251 254 305 323 283 295 286 288 389 423 466 452 419 492 794
127 149 147 131 129 141 145 138 144 143 142 154 157 165 181 169 211 156 109 122 144 184 247 281 321 337 349 357 311 269 272 429 681 685 719 772 905 775 607 534 496 560 663
95 99 111 115 135 147 139 130 130 132 132 129 136 141 174 167 238 192 136 28 56 107 147 387 490 454 421 345 355 312 317 527 697 717 838 859 808 849 777 568 488 590 713
80 77 91 95 98 120 122 134 140 129 113 115 111 105 101 124 110 179 213 87 95 177 269 352 423 461 396 318 441 388 466 723 879 917 971 785 841 778 709 615 426 424 356
90 102 108 128 102 106 98 97 123 106 123 126 118 106 85 58 99 97 120 155 216 243 338 441 464 475 404 415 460 591 660 631 693 711 740 759 856 834 656 585 575 625 635
120 142 156 164 175 179 194 180 151 147 126 123 116 114 110 83 42 103 147 181 263 191 242 339 441 462 437 528 710 601 565 533 508 661 681 717 653 504 497 437 345 366 408
174 175 173 201 224 234 242 266 261 243 217 199 185 171 153 160 114 49 11 21 127 205 267 341 331 378 390 356 470 583 566 590 481 492 541 580 504 542 534 403 364 250 273
143 149 157 155 162 202 242 230 234 256 183 138 134 122 119 139 128 129 102 73 65 48 127 270 381 386 371 362 374 423 431 397 415 367 337 249 237 224 188 152 140 120 105
111 107 109 97 82 64 53 95 227 230 246 253 225 152 125 147 160 156 163 169 175 162 176 167 171 170 175 156 159 173 182 169 147 125 111 108 121 127 118 127 131 121 103
138 128 121 130 119 105 92 81 81 111 209 259 251 239 215 180 173 177 203 248 247 226 206 170 155 157 149 129 92 79 76 79 74 82 83 88 77 79 92 116 116 116 113
149 161 133 128 121 125 124 119 105 110 122 146 169 192 191 190 192 187 161 190 229 244 189 183 165 139 140 136 131 125 120 115 105 91 96 92 92 89 106 131 135 139 132
127 123 120 120 119 117 107 106 104 112 119 117 120 129 142 168 212 265 254 195 164 172 168 172 160 165 136 127 120 121 127 133 133 127 136 131 129 108 112 110 101 110 101
111 108 110 103 101 105 102 101 103 105 114 129 151 161 144 152 228 228 225 195 174 157 144 135 133 124 117 112 110 103 109 117 114 102 101 95 86 84 93 96 100 94 95
82 85 93 97 100 95 95 97 93 95 99 116 136 143 160 140 147 157 151 156 140 132 120 112 113 111 103 97 91 88 90 85 88 86 82 77 76 84 84 86 88 87 93
70 74 86 90 89 100 100 97 97 96 103 106 107 138 156 133 121 120 123 120 106 100 89 83 89 96 93 86 74 65 70 80 80 82 78 74 80 87 85 92 95 99 96
89 97 108 115 108 112 117 103 102 99 99 101 98 97 100 93 87 85 83 82 83 86 78 68 61 67 72 76 73 69 78 82 81 72 95 94 94 93 87 88 90 91 85
97 108 103 105 104 102 105 109 102 110 95 86 80 72 68 61 70 70 68 70 77 75 69 57 49 53 62 63 56 54 55 56 61 76 73 85 92 94 89 91 95 90 81
115 121 122 107 101 98 108 108 108 100 95 71 60 52 49 52 65 66 69 71 75 78 85 71 59 62 63 69 70 71 78 85 83 70 70 84 91 97 91 90 88 82 76
116 113 107 100 110 108 114 111 95 79 73 56 46 44 48 56 57 61 64 74 85 89 99 101 95 87 79 69 64 77 82 80 80 78 79 86 93 92 88 88 87 72 64

GFSGL_con_3kmhel_075.txt.gz
Helicity
68 52 46 36 28 20 18 24 36 36 31 21 4 24 44 85 108 162 118 134 154 125 175 195 120 96 91 56 102 124 156 89 172 -71 28 31 40 111 111 154 194 189 185
109 86 63 49 37 23 13 7 6 21 39 45 48 46 59 57 54 67 81 94 136 162 175 180 161 143 159 153 157 190 158 143 192 -29 85 60 116 87 86 120 179 249 237
93 90 76 60 58 41 29 17 9 0 5 17 35 60 76 66 81 98 91 84 86 62 104 132 142 162 165 183 189 157 176 176 147 157 124 127 123 128 107 92 132 130 154
103 112 105 81 75 72 49 45 40 23 6 8 17 25 36 60 93 97 83 84 90 95 118 161 176 162 142 132 168 183 182 177 163 184 171 115 150 155 188 166 140 145 127
212 177 140 132 123 114 101 67 51 60 47 40 37 30 28 40 75 101 127 132 119 117 124 117 132 171 200 218 241 219 203 202 194 213 228 234 176 144 159 165 157 138 138
183 180 152 152 135 138 125 113 121 144 147 107 65 56 69 164 284 200 57 98 158 161 154 155 172 203 199 230 243 204 194 232 245 253 259 249 229 229 207 215 209 191 163
307 115 172 146 130 129 126 135 150 149 144 160 189 208 230 283 268 243 207 140 127 141 154 166 174 200 199 192 211 252 234 236 246 229 223 274 286 322 313 266 266 280 285
163 142 136 126 133 137 144 152 167 171 189 189 195 204 199 200 223 194 156 97 117 122 134 132 146 150 170 225 234 253 280 281 266 243 223 205 267 392 416 471 459 428 716
146 139 125 128 134 143 159 161 167 151 147 153 168 191 176 173 203 187 130 83 96 177 269 321 287 245 244 254 280 258 259 421 579 721 794 804 896 856 648 507 455 444 569
110 117 100 115 129 148 151 155 153 139 137 135 156 171 216 173 239 236 196 138 180 205 287 333 426 360 346 334 226 213 288 441 510 592 578 667 655 621 595 406 350 313 412
80 93 131 142 139 142 145 164 159 155 145 159 165 162 154 182 195 236 239 185 166 191 233 256 280 325 292 318 330 299 322 423 490 488 551 616 689 714 612 489 557 477 490
72 78 102 129 153 164 177 189 197 182 179 174 164 151 143 139 181 178 180 167 146 122 135 125 126 220 290 342 359 482 534 482 413 453 425 450 460 432 491 477 530 501 497
75 100 94 89 98 114 122 127 141 147 136 135 134 135 142 119 92 125 157 151 145 86 60 100 130 160 209 262 330 363 409 430 416 493 468 367 424 407 421 452 469 386 409
101 109 128 151 151 160 159 161 149 143 126 122 126 134 136 154 137 91 53 33 32 7 18 58 82 90 119 101 172 240 213 190 180 213 264 259 264 290 279 260 244 183 209
122 127 135 131 146 169 223 201 184 213 169 133 143 144 150 166 147 132 101 65 35 29 24 59 95 103 103 105 112 128 142 160 182 166 158 141 126 108 108 96 104 104 125
158 178 173 156 147 137 130 150 250 242 258 247 225 155 121 142 150 154 147 145 139 120 130 152 153 145 145 131 128 136 153 173 152 126 123 124 125 124 115 112 109 109 102
141 140 138 141 134 128 123 117 110 123 188 226 229 198 180 153 144 145 162 220 226 172 164 152 143 140 141 144 144 148 163 173 162 170 152 148 141 132 126 128 127 119 121
111 120 110 106 101 101 102 103 99 110 118 127 153 187 181 190 196 187 152 151 170 189 167 162 164 166 166 162 156 151 147 143 148 143 147 146 139 131 129 131 129 121 112
113 111 107 104 105 97 94 99 99 105 109 110 109 134 155 184 214 260 247 194 185 188 176 167 153 148 142 134 123 116 112 113 108 105 111 107 110 103 112 108 104 119 110
99 105 95 87 87 92 88 88 86 92 100 112 128 135 123 117 172 190 190 178 168 159 145 138 128 118 113 104 99 94 95 103 103 100 101 100 98 98 100 106 109 111 116
65 70 72 70 74 74 77 86 90 96 109 125 147 157 155 145 153 159 157 158 148 137 124 115 109 105 101 101 100 99 100 96 98 94 94 93 92 102 93 103 107 106 109
64 70 81 90 89 97 104 107 114 118 120 119 121 140 148 138 133 134 136 134 124 117 106 98 92 91 90 89 87 87 91 97 101 95 92 83 87 90 87 93 94 97 100
87 93 101 107 109 110 120 123 125 127 127 125 120 119 121 117 111 108 104 97 94 89 83 79 79 80 82 84 86 91 99 106 96 82 91 91 92 94 90 94 95 95 100
100 104 109 112 111 114 116 119 120 123 114 109 105 100 103 83 87 78 75 75 77 80 78 75 78 84 80 83 83 85 86 80 73 71 72 72 76 79 80 83 86 87 85
115 120 123 119 118 118 115 130 127 118 106 94 87 79 71 69 73 76 77 78 79 81 84 73 68 72 80 87 81 76 73 75 76 57 54 56 60 61 69 69 74 73 78
119 119 115 108 116 122 121 114 107 95 86 74 66 63 64 69 73 72 73 76 76 72 70 70 67 67 61 53 52 55 47 45 41 36 35 45 51 59 59 63 67 63 66

GFSGL_con_3kmhel_078.txt.gz
Helicity
116 52 62 50 49 36 21 9 -5 1 6 23 -11 -28 -62 41 102 95 83 131 160 180 169 238 253 259 221 162 166 167 163 195 170 152 157 112 72 46 12 -12 -11 -1 18
128 105 83 73 60 45 30 12 -5 -9 -5 1 -0 7 24 28 124 110 101 153 112 93 110 135 172 160 215 154 192 120 139 163 162 29 162 129 88 137 18 -2 26 22 39
157 124 119 95 86 63 41 25 6 1 -2 -19 -25 -19 -2 16 32 55 67 81 79 71 63 93 139 154 145 184 196 173 177 176 172 176 150 171 127 120 93 89 95 83 81
220 253 249 183 122 81 52 43 30 11 3 5 1 -2 5 6 -1 10 24 30 51 44 37 54 58 61 77 83 102 127 120 146 184 220 187 164 157 117 106 121 109 139 175
243 250 253 235 232 223 197 161 126 92 62 30 18 21 24 110 152 103 28 10 16 7 24 47 52 44 49 55 65 82 110 126 136 160 196 151 135 148 153 165 164 165 162
266 267 230 210 205 197 179 178 185 175 180 183 150 181 235 203 242 203 145 86 78 48 46 51 49 53 57 75 89 69 66 66 90 156 195 238 205 166 168 190 182 169 177
279 314 275 194 149 174 155 161 181 192 200 226 235 220 261 247 274 244 189 107 94 83 98 134 133 131 144 149 133 149 131 118 147 152 177 226 233 253 267 218 228 248 254
373 294 325 379 143 132 139 142 146 146 167 186 215 214 222 221 252 236 175 106 149 253 280 256 218 215 245 209 186 196 192 347 332 280 319 346 342 327 327 349 362 374 373
201 250 310 279 144 131 151 172 170 170 182 185 186 202 171 172 228 224 128 131 231 258 246 275 252 235 264 243 137 141 203 312 394 442 485 530 495 534 414 216 234 188 243
220 188 181 108 113 134 123 132 137 154 173 171 181 198 232 165 286 281 215 193 228 222 240 234 275 213 213 218 160 208 331 349 387 434 437 430 425 414 471 314 297 280 243
102 104 117 110 129 131 133 130 122 129 137 151 158 177 198 255 259 314 299 201 180 185 192 189 191 223 209 223 217 203 249 302 363 355 343 324 309 315 293 269 287 303 304
93 104 132 149 131 130 131 117 117 121 131 134 129 144 168 190 262 263 246 218 168 141 150 142 149 216 224 217 189 222 231 213 217 228 252 281 283 274 187 168 182 183 282
94 119 139 148 167 160 136 136 142 153 170 188 189 193 200 167 146 174 192 186 179 139 102 103 120 121 122 131 189 176 154 147 165 190 189 172 153 135 126 119 126 135 162
89 105 125 152 163 173 179 193 184 174 160 159 162 168 164 176 176 149 129 116 112 107 94 105 96 96 125 115 125 141 132 137 136 137 133 119 106 110 113 121 129 121 142
81 89 94 99 117 143 186 180 179 222 183 137 139 138 127 145 150 136 121 81 72 70 66 90 113 117 114 110 107 119 122 121 135 140 144 148 148 142 147 145 142 141 156
94 102 101 97 92 85 90 122 218 216 234 225 228 142 116 132 140 156 153 135 120 89 91 110 120 122 126 124 130 128 134 146 147 148 153 159 164 167 159 148 146 165 176
121 105 95 100 99 96 95 90 88 100 148 201 191 192 183 160 137 121 119 146 169 106 118 114 118 122 124 127 128 134 140 147 149 155 162 167 160 153 154 150 142 131 133
140 163 139 133 130 127 126 124 119 120 120 116 137 147 169 181 184 171 108 93 123 152 142 138 140 144 149 153 155 161 156 154 155 155 156 154 149 142 139 136 134 126 121
136 134 132 132 133 127 122 121 118 115 113 109 93 98 116 134 164 201 198 165 157 163 164 169 169 168 167 162 159 153 156 156 150 143 140 138 136 132 134 125 116 115 108
105 119 107 96 97 101 99 100 95 96 100 106 119 134 132 132 159 176 184 185 182 181 175 171 167 164 165 164 158 156 143 141 137 134 130 126 123 120 123 125 127 134 136
91 89 88 85 93 93 94 100 102 105 110 117 127 146 169 151 161 170 173 182 183 176 170 163 155 151 145 140 137 138 137 133 130 120 118 118 115 122 119 118 117 117 134
72 77 82 86 90 102 109 113 117 121 124 130 134 146 163 160 161 161 162 161 155 149 138 135 132 133 134 135 135 132 129 129 130 129 126 119 118 120 116 128 129 130 130
100 103 107 112 110 103 121 130 136 141 146 150 149 150 153 152 146 140 134 125 120 120 122 121 122 124 126 124 124 127 127 128 125 122 124 122 120 125 114 117 119 117 121
109 108 111 117 124 124 131 140 147 167 161 152 147 143 139 129 122 113 104 105 103 108 112 116 125 135 130 116 113 113 120 118 103 93 94 100 94 98 90 91 90 95 87
127 130 138 143 149 152 148 159 158 154 148 139 131 121 112 103 103 102 104 104 108 108 113 103 105 103 98 91 88 87 94 83 73 62 51 56 64 53 63 56 68 58 69
145 148 148 146 150 153 154 168 165 157 149 137 122 111 107 106 100 94 97 95 100 97 95 89 84 78 72 58 66 67 57 56 56 51 38 42 48 48 48 45 50 43 51

GFSGL_con_3kmhel_081.txt.gz
Helicity
158 135 104 81 66 77 47 48 53 79 64 42 46 24 70 91 146 123 91 190 161 132 164 157 126 135 141 159 193 105 42 88 108 72 135 138 135 171 184 187 161 126 24
178 159 118 96 76 63 61 45 50 58 45 42 19 18 35 64 103 83 120 152 119 127 181 182 155 144 119 161 204 189 121 97 133 52 75 119 155 152 129 138 134 73 124
246 196 170 126 84 76 60 47 38 37 30 20 6 1 13 20 65 85 114 102 106 138 153 150 143 147 124 183 185 174 194 180 210 182 88 162 168 177 179 175 171 91 112
359 348 286 214 192 165 153 76 42 34 33 22 9 4 -10 -2 44 48 31 44 60 73 64 74 69 63 93 160 171 142 125 133 149 190 175 144 180 187 191 157 130 176 176
489 415 331 278 258 246 239 204 191 213 206 193 96 157 157 149 142 121 95 55 14 24 39 33 20 22 41 61 70 72 94 109 117 139 156 139 138 133 145 166 163 158 153
494 412 306 299 292 276 274 263 246 222 220 202 249 250 238 202 237 189 157 134 136 148 151 174 185 191 175 178 137 65 29 33 29 52 62 55 51 48 57 82 105 91 123
441 372 310 295 314 288 265 283 296 292 280 280 245 207 209 215 266 234 190 161 183 187 181 163 161 175 179 169 160 139 151 204 153 131 128 160 196 173 135 108 122 155 164
454 357 330 284 301 288 214 214 228 234 254 261 254 233 215 238 305 296 183 196 217 238 247 228 194 195 204 159 113 113 161 182 174 156 220 269 252 244 192 133 115 85 62
453 376 350 336 326 250 315 227 103 108 156 173 194 192 169 194 313 385 151 166 204 229 232 270 238 210 265 251 139 164 226 242 243 246 237 240 247 250 201 37 122 98 101
385 329 205 331 354 326 254 228 109 112 124 119 115 127 125 148 261 310 192 170 177 178 196 199 238 204 251 277 190 200 235 241 234 247 248 260 254 242 296 176 146 173 160
136 120 146 184 189 172 161 139 113 105 115 135 147 167 177 222 261 331 312 188 172 184 204 221 228 278 286 301 294 256 224 205 224 217 220 212 197 184 171 157 162 148 123
116 107 105 111 107 105 140 128 120 121 148 166 189 209 216 241 277 293 300 289 219 195 207 195 197 247 270 281 239 226 176 147 177 209 221 232 225 218 184 161 141 129 138
124 146 158 171 207 232 203 168 151 149 150 171 190 190 217 211 202 218 214 210 201 168 148 167 197 206 215 213 264 274 245 212 195 194 194 184 160 138 123 111 70 47 75
122 137 148 162 164 161 170 205 235 199 183 194 177 167 168 190 202 186 151 135 123 126 113 131 130 129 144 156 163 179 158 161 171 170 162 148 133 145 155 146 142 142 126
130 126 127 128 142 169 240 215 188 225 217 155 162 182 174 199 208 197 185 157 143 136 114 128 149 159 164 164 153 161 166 161 160 152 155 158 161 160 155 149 145 142 150
118 126 132 122 115 117 127 162 250 247 252 257 272 186 156 174 179 198 186 167 149 116 122 139 144 143 148 142 141 133 139 150 149 145 144 147 144 149 149 142 140 137 145
134 113 115 131 132 133 113 98 106 142 173 194 194 189 179 162 134 137 124 161 191 110 125 125 130 133 129 129 130 134 135 139 144 146 148 153 151 149 153 148 150 144 126
124 144 118 112 107 107 106 106 99 90 110 100 128 131 158 172 173 160 92 64 114 134 128 123 120 122 132 140 146 153 150 152 150 145 147 147 149 145 148 149 132 132 127
132 120 105 104 109 104 99 101 98 98 98 97 51 66 75 90 132 175 175 149 143 149 150 155 161 159 155 150 151 141 138 144 142 141 142 143 140 136 134 133 132 121 109
131 149 132 119 117 121 119 116 111 109 110 113 118 123 117 115 136 153 174 179 180 184 178 168 165 161 155 152 143 151 152 147 150 147 144 137 133 127 126 123 124 126 131
104 106 110 108 112 108 104 107 105 108 114 119 132 144 170 137 145 155 160 172 177 173 172 167 160 158 156 151 154 142 148 150 149 147 139 131 121 121 124 126 129 131 132
100 101 101 101 101 108 107 109 114 118 118 116 110 113 143 157 161 168 172 171 166 165 157 152 150 142 141 149 149 150 147 149 148 144 134 123 122 129 130 130 133 141 138
92 96 96 98 97 89 113 126 130 132 138 146 152 159 173 179 181 180 163 153 146 140 136 143 142 139 144 139 142 146 149 148 138 130 130 127 130 140 123 122 115 110 115
102 99 108 115 123 118 119 110 101 128 147 148 151 152 158 154 154 142 136 132 118 113 115 113 116 121 125 131 132 134 140 130 117 116 116 104 110 115 100 95 83 85 71
121 119 125 129 130 127 122 142 144 148 150 154 153 148 140 130 125 120 112 102 97 94 100 89 106 116 124 112 104 104 127 109 98 86 71 63 77 68 61 64 67 64 57
127 132 131 128 131 135 139 136 140 143 141 140 129 122 116 112 102 100 98 79 89 92 82 86 89 100 95 81 125 124 89 80 80 76 64 59 65 67 67 64 53 59 42

GFSGL_con_3kmhel_084.txt.gz
Helicity
208 228 241 176 131 113 98 103 113 92 100 103 99 84 77 80 80 80 121 146 129 175 163 128 158 191 133 109 43 51 78 94 80 8 10 27 68 120 149 161 181 208 221
268 242 215 172 178 127 102 86 110 121 83 78 81 81 47 66 78 72 55 80 94 162 122 94 91 104 120 119 115 113 135 136 115 -4 44 94 83 72 92 127 130 137 180
260 224 200 157 151 115 103 91 108 103 78 61 57 50 28 16 53 74 113 109 87 97 100 120 157 211 148 151 157 110 110 147 164 140 29 84 78 111 111 114 129 140 144
387 384 399 384 338 322 246 182 133 116 86 71 112 141 169 168 187 156 81 92 89 81 109 104 116 104 102 121 90 103 154 157 150 140 98 128 122 113 138 129 108 153 148
459 483 409 382 366 318 339 343 320 279 245 210 210 207 177 175 169 159 164 156 93 57 80 85 164 281 294 259 112 115 100 93 101 106 124 113 117 125 159 176 146 115 100
510 454 405 374 351 316 298 303 335 329 303 299 272 240 236 195 210 175 138 151 186 219 223 251 243 231 214 172 103 199 202 138 106 104 86 98 129 143 136 108 49 22 72
628 522 423 413 379 363 343 340 355 357 331 321 292 257 244 241 269 192 211 195 178 168 120 167 190 195 217 202 126 157 214 225 225 148 154 165 171 197 140 148 143 136 121
671 663 524 464 410 365 358 373 353 362 377 317 292 286 275 365 244 172 186 215 228 227 208 180 155 173 194 166 160 183 199 202 194 173 189 178 166 153 93 65 92 82 105
640 677 602 553 452 388 407 387 335 299 396 368 307 300 293 372 371 184 170 209 237 253 255 260 230 231 311 267 159 156 173 170 189 187 189 206 247 285 243 114 166 152 198
534 424 536 413 457 477 337 246 278 352 378 263 138 181 246 276 337 205 176 163 205 219 243 234 273 190 257 266 190 171 222 211 186 188 181 197 231 272 335 266 232 232 233
283 237 264 210 293 123 188 138 179 214 223 302 164 186 232 269 296 336 233 188 179 204 220 233 241 267 275 289 253 198 168 144 170 196 216 211 215 218 218 202 187 193 176
116 138 149 184 168 180 104 147 114 119 135 119 154 188 190 210 243 244 248 229 192 192 220 198 210 271 289 291 258 274 229 175 178 193 208 226 229 218 180 131 93 68 42
52 97 135 136 166 189 241 208 163 149 106 103 99 104 160 203 183 204 218 215 187 150 132 157 179 192 195 203 241 240 208 183 168 167 170 158 138 125 139 140 79 45 6
107 108 123 175 203 211 194 229 255 228 205 220 187 192 201 223 229 184 155 166 169 156 144 138 137 134 129 144 164 207 185 162 155 155 137 132 152 136 146 152 148 156 160
86 97 122 152 191 236 273 244 241 257 226 171 194 170 152 182 177 166 152 143 122 99 100 128 147 149 155 151 131 169 191 191 191 177 191 179 156 190 168 178 187 180 167
138 148 112 90 87 100 126 170 223 202 210 214 196 139 147 156 169 183 170 168 150 124 123 134 145 145 154 152 158 141 170 206 195 185 179 202 178 172 173 152 178 200 172
135 123 134 148 141 109 94 105 110 151 184 181 185 186 195 186 165 163 179 206 237 163 149 149 143 154 142 144 153 141 144 160 166 145 161 168 198 156 162 172 138 166 183
150 174 150 140 135 136 138 126 94 92 111 122 158 156 195 207 209 220 136 139 153 176 163 153 141 139 132 139 131 109 123 141 159 147 137 152 188 166 143 167 139 138 157
141 105 101 109 114 112 112 120 123 125 122 92 63 84 89 149 186 221 226 180 142 135 122 122 132 137 141 108 122 144 112 132 159 148 153 146 166 169 144 141 134 146 136
105 131 98 88 92 101 107 100 102 105 113 120 118 125 152 99 98 113 151 163 153 168 151 133 143 155 153 176 135 149 169 149 159 180 149 141 147 154 143 145 131 138 138
84 90 104 94 103 98 95 97 91 79 56 67 88 113 173 94 95 108 123 154 168 160 164 159 138 149 185 177 184 168 149 156 145 142 148 150 161 159 136 149 126 127 152
82 81 92 105 112 129 103 99 104 109 113 77 56 102 162 150 131 126 133 137 141 152 195 176 170 153 150 154 148 152 149 158 155 143 136 146 160 135 134 156 139 133 121
86 95 85 85 75 74 124 154 159 118 105 113 109 113 120 126 135 151 138 147 149 125 128 152 142 153 134 170 153 138 152 145 129 123 123 129 148 127 135 145 143 116 119
115 115 106 101 139 155 135 91 106 122 143 129 121 112 120 123 125 123 120 116 126 126 113 122 105 100 107 123 130 126 120 114 107 103 102 111 116 106 104 104 108 88 93
116 114 119 121 126 113 110 129 131 135 129 133 136 135 127 124 124 123 113 105 91 107 104 81 95 104 107 95 89 145 111 93 83 89 77 71 97 89 89 86 93 87 73
116 127 126 126 126 135 139 137 128 121 125 128 122 116 108 105 108 105 93 87 121 106 66 68 92 103 76 115 152 105 72 77 90 79 73 82 96 82 85 78 78 73 65

GFSGL_con_3kmhel_087.txt.gz
Helicity
255 236 242 182 202 180 145 120 114 94 83 92 82 69 59 61 105 149 184 144 184 224 108 92 100 151 196 188 154 134 136 97 36 78 17 72 69 96 101 117 109 126 137
337 255 256 268 211 162 142 135 122 94 82 78 81 68 52 45 48 87 201 184 110 81 98 100 106 155 161 134 141 94 39 27 58 37 -3 24 42 54 29 51 65 71 118
253 323 337 231 180 162 167 147 137 128 103 95 77 69 42 16 23 63 82 86 86 90 109 114 119 138 111 76 58 60 34 83 94 89 54 49 30 72 76 57 31 45 80
389 399 343 341 329 303 287 282 245 212 226 193 164 179 161 124 124 83 56 56 85 95 54 95 120 78 45 67 109 109 134 112 106 105 113 96 106 105 115 77 56 62 66
358 377 351 348 343 341 337 335 311 313 268 221 202 199 182 147 157 141 148 95 48 110 171 188 235 225 197 173 122 100 88 42 73 89 109 101 100 82 119 167 150 85 85
420 374 355 331 396 418 384 364 368 346 304 286 287 247 216 163 156 146 174 233 306 250 276 205 240 290 285 289 284 301 256 169 141 145 148 178 188 166 138 112 65 67 100
586 484 396 379 415 407 398 444 473 410 397 373 343 330 313 244 238 271 271 273 299 303 259 212 217 215 183 178 237 270 314 320 304 207 208 207 191 187 171 156 188 152 187
640 618 493 478 485 458 449 436 454 442 429 418 445 463 419 327 274 278 318 315 314 311 252 243 159 176 127 184 221 232 255 296 298 270 283 278 243 216 154 143 142 156 166
411 587 532 547 564 560 554 525 504 481 477 474 426 428 480 443 304 267 284 335 336 326 283 254 198 229 178 161 204 207 243 240 232 236 234 243 282 285 214 112 197 168 161
343 335 395 531 489 497 514 557 495 448 447 447 419 388 433 413 265 261 232 251 307 327 352 348 343 245 264 244 227 217 239 198 188 188 203 227 238 253 276 218 171 197 180
271 302 292 290 286 316 266 326 293 333 384 431 369 342 395 375 174 177 157 141 135 197 229 257 261 278 257 238 206 187 161 140 174 171 190 216 221 211 201 198 192 145 147
173 178 187 212 233 205 123 159 212 191 113 203 222 371 336 330 289 188 252 232 198 208 217 222 237 250 243 232 207 197 161 118 121 151 180 214 221 237 227 143 139 129 111
131 178 204 183 196 222 237 216 157 180 194 143 133 190 254 249 220 227 185 168 168 137 118 130 157 163 195 233 243 220 186 177 161 178 202 220 178 180 229 210 132 107 106
61 77 92 128 147 166 165 175 184 155 147 158 188 226 194 166 166 122 99 81 105 122 129 121 147 185 200 225 248 267 241 214 197 190 165 165 190 186 215 215 211 166 157
41 58 89 112 128 149 163 138 153 159 113 117 138 140 157 190 189 187 188 185 157 131 143 161 168 168 161 179 211 235 235 220 211 200 215 208 200 186 169 173 200 206 202
108 84 84 85 86 110 137 184 232 201 200 188 178 169 180 192 184 189 167 141 143 139 161 164 165 160 160 147 159 191 219 204 174 174 193 204 195 189 193 191 212 219 229
132 136 145 114 86 92 103 103 132 189 203 203 200 196 172 139 134 163 186 192 164 163 158 161 149 147 144 135 127 138 164 181 158 164 186 221 241 197 208 195 205 223 225
110 123 121 122 127 122 74 40 47 84 119 140 184 172 202 210 247 167 159 181 183 191 173 167 157 130 119 128 131 126 149 189 174 168 186 207 241 205 190 184 195 209 185
97 97 96 93 95 101 113 119 107 98 106 133 151 182 180 175 217 253 242 197 171 155 141 154 147 149 139 132 138 144 145 160 174 175 189 207 227 200 192 200 182 196 196
113 114 108 98 108 119 103 96 100 103 112 126 157 171 120 115 159 186 195 184 188 164 127 125 141 163 173 166 161 131 135 151 156 156 173 199 234 197 197 196 174 150 150
99 115 124 144 139 119 118 105 72 73 83 118 154 162 105 102 113 131 144 158 161 179 164 132 135 152 158 152 139 139 153 152 158 160 165 189 214 193 183 181 188 145 129
91 79 83 98 127 138 139 123 101 53 53 83 135 155 179 139 129 132 142 134 117 126 134 141 140 148 160 169 129 121 140 140 140 154 155 167 182 163 148 168 182 149 148
118 104 100 120 118 112 125 148 142 126 108 93 106 112 110 107 106 107 118 137 127 130 115 107 113 134 141 140 120 107 107 103 103 113 128 141 157 156 153 152 144 143 126
149 139 117 125 128 125 109 121 126 126 109 99 94 88 80 87 97 97 100 107 124 112 113 94 92 91 107 94 73 78 70 81 98 104 105 119 129 140 146 127 121 124 109
173 183 163 145 160 158 136 120 129 143 137 125 116 113 108 101 98 88 71 76 100 101 86 78 63 46 60 80 89 92 88 102 93 101 102 111 130 133 117 103 88 92 91
133 144 153 160 165 171 171 181 175 170 174 161 142 143 134 124 114 91 95 104 93 77 86 83 65 53 88 90 80 91 104 99 94 99 98 109 110 104 91 96 92 91 84

GFSGL_con_3kmhel_090.txt.gz
Helicity
213 232 185 145 161 180 145 131 141 134 103 97 71 79 82 84 90 73 168 165 164 290 220 246 233 175 152 127 172 203 202 154 125 139 160 168 135 124 136 128 109 84 72
186 195 162 187 176 143 142 156 147 93 79 81 90 95 83 64 34 78 80 132 179 225 340 176 160 176 149 131 162 202 192 112 105 58 81 86 54 60 67 105 101 79 72
140 230 244 242 196 177 175 164 149 118 94 89 86 94 89 52 23 44 104 108 155 138 178 171 124 115 80 186 206 216 158 105 53 -14 -58 -2 29 57 74 81 63 49 89
362 337 391 314 273 264 292 285 259 234 190 166 150 133 122 96 37 40 93 159 145 144 139 146 132 124 122 138 121 80 38 21 -6 24 26 58 71 101 105 74 89 114 169
407 614 408 353 354 278 301 311 290 288 219 181 157 149 123 122 82 79 87 103 125 200 243 247 240 227 204 197 87 91 67 88 79 78 62 91 90 113 148 161 142 166 159
461 414 395 366 390 322 339 340 360 315 260 242 228 180 174 126 149 148 169 255 225 225 257 196 176 245 261 283 258 279 213 160 106 103 128 130 132 133 146 124 126 127 106
459 474 448 425 417 391 377 424 414 397 339 323 297 271 277 249 258 294 297 309 336 297 262 215 212 204 226 236 305 336 306 272 240 180 208 224 210 193 164 170 196 204 230
343 442 425 452 465 484 464 483 484 459 441 405 370 324 313 311 301 330 383 366 377 358 354 307 205 193 178 221 280 344 317 357 348 319 292 274 252 213 169 190 215 224 269
235 296 343 399 525 534 600 564 587 604 591 505 469 398 332 316 317 361 415 440 427 410 363 319 317 265 198 192 246 283 329 338 335 321 304 295 290 284 204 161 215 186 225
252 219 257 343 285 326 391 587 556 609 631 551 570 533 451 378 328 332 380 446 487 441 365 356 347 290 234 213 248 241 255 237 216 230 240 283 301 308 326 227 158 151 161
231 252 249 271 227 238 300 223 341 433 449 521 612 618 578 499 378 321 279 305 277 285 329 367 302 247 230 205 201 205 188 170 210 219 229 232 227 214 211 206 187 128 138
137 168 230 233 255 239 284 262 242 280 247 394 348 380 449 390 358 322 283 278 211 274 290 209 231 266 280 297 224 217 200 193 192 203 209 231 235 233 166 151 163 162 149
144 165 164 169 191 189 228 232 171 208 200 201 173 234 270 219 194 211 220 213 254 229 207 192 213 213 243 250 209 203 196 179 190 234 249 227 187 168 188 172 140 154 176
111 135 146 161 143 151 155 124 135 149 125 134 168 185 201 232 211 182 152 120 97 111 137 161 175 208 255 232 257 275 249 202 171 158 176 169 175 207 227 210 203 165 163
67 66 84 102 113 122 135 112 103 119 87 98 123 133 144 146 114 96 113 118 108 98 117 148 169 183 182 180 195 189 175 177 186 177 186 188 185 178 192 184 186 169 165
27 31 37 47 60 68 83 122 169 139 144 154 159 157 140 127 104 110 119 106 95 109 161 158 166 157 162 159 161 171 186 182 168 167 172 163 160 152 152 170 173 180 197
60 59 35 34 38 50 58 86 119 182 216 213 190 164 132 143 154 136 145 155 145 160 159 149 142 136 130 127 126 141 147 142 143 166 174 184 172 154 163 172 191 188 214
83 93 74 65 45 49 54 76 93 116 151 182 258 188 211 160 145 129 132 162 179 191 153 136 134 137 131 125 129 128 145 156 159 161 183 196 203 174 185 186 198 201 196
81 90 88 90 89 89 85 86 100 123 139 147 163 191 180 181 195 190 187 166 140 146 142 152 139 133 132 123 112 123 132 148 154 173 194 211 223 195 211 197 188 195 175
97 102 102 91 91 93 96 99 98 102 117 126 124 100 100 144 185 184 185 168 163 148 139 141 145 143 136 130 140 149 170 179 185 183 196 203 208 197 201 195 187 162 162
78 91 101 107 106 89 84 91 79 89 125 151 138 106 131 129 138 153 164 174 163 159 151 147 148 152 152 143 134 142 143 143 158 162 172 185 196 195 181 172 171 165 145
81 94 111 114 108 108 88 57 47 55 82 105 118 122 134 130 131 137 135 127 124 123 118 115 124 126 124 115 115 134 134 143 151 154 161 168 172 178 168 158 178 174 162
99 93 99 104 115 120 125 98 80 87 104 101 98 101 103 102 106 114 112 106 119 125 119 114 121 136 124 118 108 94 107 110 103 109 129 141 148 153 157 141 141 144 136
130 120 114 126 132 119 123 135 130 120 108 104 107 97 97 88 84 82 85 96 122 132 107 107 108 103 96 96 97 97 102 90 90 99 101 113 137 144 145 130 126 124 113
148 157 159 149 140 140 150 158 145 129 117 102 105 103 105 110 113 112 110 114 107 123 132 108 96 89 85 73 90 87 85 100 90 96 100 114 130 134 122 115 110 111 111
137 143 136 140 155 152 146 144 140 141 137 126 122 115 104 103 110 102 99 118 125 115 104 89 69 69 72 61 47 63 74 83 95 104 102 118 130 131 130 131 122 110 101

GFSGL_con_3kmhel_096.txt.gz
Helicity
128 110 154 191 229 201 155 169 153 155 161 133 120 184 187 173 166 156 114 117 106 135 177 222 281 354 433 356 320 246 242 203 163 189 179 139 135 92 89 65 63 85 134
295 182 114 146 155 187 152 130 128 174 166 123 146 178 145 118 125 119 97 96 83 104 103 96 376 448 416 354 211 217 156 115 86 105 119 143 178 162 120 109 167 212 184
342 259 176 177 160 208 116 131 172 195 155 128 146 126 108 107 136 98 92 73 66 48 63 182 230 318 448 254 270 241 161 140 128 212 192 240 256 183 207 182 194 167 192
270 270 329 358 126 128 127 144 185 200 173 179 189 181 163 165 156 82 62 13 51 54 170 178 325 340 413 368 319 259 247 217 159 198 247 210 168 143 128 128 188 211 199
126 212 271 363 474 371 327 317 311 275 250 214 189 174 159 156 136 77 55 12 100 179 183 296 300 290 249 479 292 300 245 229 174 235 191 249 228 195 162 191 247 238 316
114 189 193 237 269 542 531 398 393 310 278 246 224 187 168 151 169 143 75 104 143 195 212 243 388 464 621 590 616 493 375 205 199 182 189 206 203 206 221 240 233 224 220
160 183 219 115 146 469 626 517 443 353 273 263 229 196 193 164 183 194 216 165 194 211 179 185 212 335 437 365 460 462 489 433 342 208 235 256 195 193 186 192 207 235 237
152 198 284 168 142 115 285 544 468 392 345 287 248 210 193 187 213 231 242 208 248 280 268 218 205 213 258 329 365 429 457 398 346 355 357 272 234 220 208 191 230 302 324
195 263 286 194 237 253 308 240 360 396 404 347 297 254 225 223 253 277 241 256 316 282 297 263 285 284 278 281 373 430 419 446 469 438 421 404 336 275 258 235 256 275 263
218 183 177 194 155 161 189 154 222 245 267 292 328 310 301 269 274 277 278 289 328 340 340 323 337 257 258 271 288 293 356 348 321 428 412 472 410 421 363 244 189 185 222
80 128 153 160 194 179 182 241 189 209 238 214 290 330 373 369 377 379 362 331 344 374 378 430 414 364 393 362 388 319 308 250 285 366 282 344 273 296 314 291 301 198 176
51 66 85 116 104 150 153 162 175 188 209 279 312 394 424 424 370 467 389 314 320 308 366 339 359 433 456 524 532 384 344 357 393 347 276 282 316 273 257 247 226 235 227
62 72 88 87 103 115 130 162 205 245 248 192 203 221 242 266 278 336 322 383 360 323 348 305 342 389 487 468 436 388 427 373 339 357 320 305 229 180 143 155 187 218 240
63 78 77 85 96 106 107 113 126 154 159 178 190 192 202 232 223 249 284 287 288 308 272 275 316 343 343 321 448 427 358 272 256 260 201 146 135 142 160 132 140 149 190
45 54 68 75 81 84 104 109 102 102 85 94 109 104 118 137 129 128 126 143 131 156 181 238 302 313 299 266 246 241 226 227 233 203 184 182 195 180 182 178 195 200 178
30 33 41 47 53 58 50 99 195 142 139 139 117 61 60 72 86 95 97 100 103 106 148 159 175 179 180 176 172 181 196 195 181 163 181 181 180 186 191 189 159 132 122
31 31 21 27 39 47 51 66 82 127 235 229 157 133 114 97 92 77 74 89 94 121 119 119 126 135 142 149 156 162 163 177 181 188 173 171 161 151 137 128 116 107 116
32 43 24 28 30 43 57 71 82 94 116 145 215 186 163 143 130 116 113 133 151 176 160 152 155 153 143 138 142 141 146 151 156 145 140 126 113 99 105 112 116 115 115
36 29 25 34 39 47 54 68 76 88 96 98 101 123 131 148 150 159 161 142 128 152 153 155 149 144 141 135 127 127 124 126 117 117 124 122 113 103 111 112 113 127 122
40 53 51 45 58 71 77 79 84 91 103 106 118 114 106 110 153 160 159 150 148 139 133 136 134 128 122 115 112 102 110 114 116 123 128 130 133 128 123 113 102 98 104
37 45 53 58 62 65 69 80 88 101 107 112 115 111 113 100 106 118 125 137 128 125 124 124 125 122 117 113 109 117 117 115 114 109 104 116 112 114 113 116 118 125 133
70 66 70 68 63 71 73 74 84 86 91 97 94 103 114 102 112 120 124 125 127 129 125 116 120 121 114 104 98 97 100 103 106 106 110 118 128 124 119 123 134 138 139
100 99 99 98 91 85 89 82 82 87 87 86 86 93 98 94 95 103 106 116 129 133 132 121 121 127 122 114 104 94 97 99 101 99 108 117 124 129 125 133 143 140 136
120 122 118 110 107 101 101 93 83 79 75 78 83 82 79 75 84 93 94 100 109 119 121 119 113 104 101 102 103 101 95 81 88 102 106 114 122 122 128 123 122 116 110
117 121 122 123 116 111 103 91 87 83 75 59 54 56 55 66 72 70 73 77 83 86 90 90 93 86 74 73 77 83 81 86 92 92 100 104 116 126 117 110 101 96 98
98 97 99 101 111 117 109 99 88 79 66 58 53 55 50 44 40 47 58 63 61 64 70 72 71 72 68 61 51 55 67 76 85 86 94 95 101 102 104 103 104 107 114

GFSGL_con_3kmhel_099.txt.gz
Helicity
347 152 128 127 149 224 209 163 191 197 250 57 132 148 137 137 141 169 146 130 126 111 119 122 138 170 214 265 269 280 366 418 313 258 262 259 165 53 84 55 74 110 132
351 335 124 147 82 128 146 136 152 226 242 135 93 102 106 143 173 145 133 135 129 124 105 116 144 213 207 290 327 303 329 267 246 239 243 157 85 79 102 129 178 222 206
363 248 303 225 174 83 123 102 90 181 155 112 137 136 139 148 134 110 91 76 105 117 92 88 127 193 223 283 334 333 307 315 234 264 249 225 206 134 177 267 280 322 257
385 244 195 216 190 171 88 108 172 238 260 168 190 193 169 160 143 110 91 103 98 49 41 54 72 104 146 263 360 379 369 221 178 175 167 176 175 236 228 285 326 310 244
178 238 218 148 210 382 384 460 377 402 300 285 253 241 228 194 162 113 85 67 61 72 85 136 193 131 205 236 378 338 233 239 180 94 121 219 208 233 287 296 299 268 312
195 198 196 150 167 198 527 483 492 424 409 383 330 261 226 179 156 79 83 127 148 114 117 136 147 304 353 538 556 405 347 230 168 199 223 179 200 299 310 295 262 258 240
194 192 271 286 206 132 220 522 525 569 482 421 357 271 246 197 172 157 195 171 188 162 145 123 139 226 449 530 693 845 618 535 310 204 229 220 236 225 283 326 315 380 420
185 162 196 220 186 183 132 355 465 605 532 424 344 260 226 200 220 192 230 221 232 217 194 180 180 181 255 473 639 611 645 610 452 425 361 305 264 277 300 297 345 395 377
177 219 223 209 229 250 243 114 239 238 507 440 342 290 247 222 242 206 218 250 298 295 247 255 227 249 229 211 362 455 462 412 558 511 426 469 444 434 346 316 353 384 365
145 149 133 138 178 195 246 203 158 96 173 339 373 344 318 248 237 217 239 261 304 311 309 284 302 257 284 305 354 363 507 519 458 591 636 600 591 506 559 440 323 301 339
57 58 88 107 109 157 157 157 201 221 168 200 297 357 366 383 358 318 272 274 282 346 344 318 262 336 339 351 371 389 384 362 449 452 530 599 639 535 512 482 434 363 321
23 47 61 70 74 86 113 148 157 135 188 202 173 255 322 314 342 349 408 436 400 365 353 352 328 321 369 462 439 474 453 453 422 441 527 513 436 486 538 498 351 321 353
16 28 41 53 72 79 89 92 108 142 148 164 215 235 266 247 273 318 322 353 367 354 368 387 390 465 462 483 445 494 540 563 533 569 535 533 497 433 351 334 286 268 291
37 39 31 43 67 85 87 96 64 68 88 106 123 138 152 185 186 179 182 206 223 212 241 309 385 440 529 489 512 551 543 524 593 520 477 409 384 421 419 316 261 192 225
19 26 37 32 36 51 98 103 88 116 93 71 91 100 110 137 147 137 125 111 103 116 145 194 251 284 309 341 328 329 335 345 334 257 219 204 197 189 213 182 162 167 174
23 16 16 13 22 26 26 55 198 201 165 156 154 111 96 106 108 112 116 109 98 92 107 122 142 157 177 183 205 205 218 224 219 198 181 168 164 166 169 168 157 156 150
29 29 19 19 18 25 29 30 25 62 180 230 176 146 131 108 110 108 107 124 118 107 128 138 146 145 137 136 142 144 154 157 142 150 149 143 129 125 127 147 164 161 167
28 38 30 31 37 39 38 40 42 60 70 83 127 141 138 134 126 112 95 98 137 167 135 124 121 120 122 124 122 120 123 132 144 144 149 152 156 158 162 166 160 142 125
28 24 22 27 36 40 49 61 65 70 74 73 76 103 122 141 150 172 172 141 135 143 139 145 141 139 143 149 154 162 166 171 169 166 171 162 153 131 127 120 124 134 118
37 42 35 34 40 49 50 56 62 72 82 91 100 109 101 91 132 150 154 144 140 146 149 150 147 143 141 134 130 128 128 132 134 138 142 139 132 122 114 108 105 105 119
50 55 52 57 67 69 74 82 79 81 85 91 99 110 125 113 114 116 116 127 128 127 126 123 125 129 125 126 128 128 128 126 122 115 115 116 113 110 115 117 117 124 127
61 67 74 77 73 81 87 86 87 92 97 97 94 99 106 105 113 121 128 132 132 133 131 123 126 129 129 126 121 119 120 117 115 114 117 124 126 125 122 125 124 122 116
83 89 92 95 98 94 97 97 98 98 99 101 98 97 102 103 106 109 112 118 125 128 133 129 124 129 133 133 133 129 127 129 122 114 111 114 117 118 120 127 128 129 131
96 104 104 99 105 105 103 96 95 93 93 93 93 93 93 90 94 100 102 103 106 114 124 126 125 115 109 114 117 120 119 115 117 119 116 118 121 116 118 117 131 136 130
94 98 102 105 107 109 103 99 91 86 88 84 81 83 73 74 80 86 91 92 97 97 100 102 109 100 97 103 110 115 112 123 125 120 114 111 112 111 128 127 128 124 126
78 79 78 83 94 97 99 100 98 91 79 69 64 62 62 63 67 73 72 73 74 80 85 83 82 89 80 77 74 81 78 83 91 100 103 102 106 105 103 107 106 104 110

GFSGL_con_3kmhel_102.txt.gz
Helicity
254 355 301 128 93 104 112 146 199 216 171 222 215 210 207 203 191 179 159 148 141 141 127 126 101 105 126 126 123 116 134 156 228 255 253 330 398 303 289 142 112 149 191
312 332 310 268 291 143 140 148 163 214 215 203 235 159 105 94 120 90 145 161 146 148 130 111 98 119 116 119 146 153 198 182 240 274 349 405 302 159 150 250 138 311 217
365 290 281 237 256 299 182 114 166 131 157 175 134 331 272 93 93 118 120 146 125 112 126 124 126 118 119 126 165 202 178 240 275 327 354 271 197 173 124 277 373 339 289
243 278 257 276 253 234 278 172 95 71 124 151 155 290 189 197 136 133 144 126 92 71 57 87 79 95 104 141 195 175 247 258 331 337 281 263 335 261 359 432 410 271 317
149 218 200 278 163 127 212 242 276 231 157 204 333 358 346 324 243 187 151 102 90 99 136 113 115 110 29 112 154 199 218 318 357 333 280 241 258 289 289 324 421 422 384
156 201 168 248 262 223 149 246 408 457 497 391 453 357 341 359 272 185 148 142 158 137 120 123 102 148 142 148 198 211 243 380 384 400 265 257 282 235 276 289 456 444 438
176 183 220 192 226 205 143 156 259 555 834 829 676 474 318 344 298 271 244 167 176 183 164 128 110 95 130 204 433 501 560 584 399 278 210 234 275 265 395 389 361 408 363
144 191 241 244 222 227 163 148 121 302 428 562 803 434 421 363 319 269 243 214 200 200 209 164 126 132 138 179 401 476 510 567 452 407 314 343 284 374 366 371 419 474 420
117 151 165 163 184 172 211 258 242 237 328 776 707 541 441 368 295 283 238 235 248 275 256 227 180 152 163 199 333 474 550 695 635 526 562 477 477 468 375 375 441 528 485
96 91 93 103 114 134 122 155 213 213 268 248 389 552 503 376 310 289 269 247 276 271 279 287 279 233 253 241 262 359 435 371 446 607 717 675 538 593 528 518 401 511 518
60 50 52 64 75 89 94 120 116 177 166 182 220 270 435 365 315 281 268 283 255 299 301 294 265 213 267 339 359 362 402 421 464 459 507 598 623 599 618 584 583 531 455
35 34 41 40 35 53 87 101 122 125 158 186 163 205 225 263 263 284 290 307 277 277 330 318 311 313 331 345 362 406 455 484 541 548 582 640 673 692 730 658 688 605 549
15 32 35 36 43 45 55 76 85 115 121 138 127 137 141 199 189 246 239 240 259 261 261 271 336 393 423 469 437 454 431 455 463 526 661 696 642 579 656 646 578 476 483
4 11 10 26 45 76 53 48 59 66 56 79 104 105 112 134 147 160 141 124 140 144 178 221 235 282 386 432 461 487 431 439 452 534 489 428 466 526 536 509 552 636 593
2 -0 5 6 12 8 43 94 54 79 78 48 65 78 92 127 141 145 119 93 97 112 95 121 168 205 241 264 273 296 317 370 403 412 394 383 386 416 518 554 571 492 456
20 16 13 5 7 13 12 10 99 129 147 147 137 87 68 108 117 127 122 118 117 98 100 128 152 170 187 197 214 242 265 279 275 264 271 272 274 281 293 298 279 279 279
27 21 17 26 22 21 24 30 35 37 79 138 140 136 125 117 126 128 123 134 142 101 122 138 146 154 157 158 164 175 190 197 195 198 201 205 196 190 186 192 191 188 202
33 43 31 28 29 28 33 28 29 44 60 68 87 109 135 143 138 122 126 114 134 160 155 154 154 154 157 160 159 160 166 174 179 175 183 186 174 165 166 162 151 143 140
31 29 31 35 38 35 35 42 46 46 44 46 48 66 86 94 123 148 148 125 125 136 146 151 154 155 154 148 151 154 157 163 160 155 157 155 152 142 147 148 158 169 156
48 59 44 45 50 58 61 65 66 68 74 82 90 97 89 81 107 121 131 133 130 128 130 136 145 152 153 152 152 150 147 149 152 156 162 160 160 153 151 152 154 156 160
65 73 77 77 81 81 83 86 89 96 99 96 101 115 136 112 117 127 133 144 146 146 148 146 142 144 147 152 155 156 161 163 166 163 162 166 163 162 160 150 142 143 139
80 89 97 105 107 115 113 104 106 105 104 105 103 101 113 117 126 133 138 146 150 154 154 153 154 159 163 163 162 160 161 158 153 152 153 151 144 147 147 150 148 144 137
102 110 109 111 106 99 101 107 110 110 108 106 104 104 110 115 121 127 129 134 143 149 159 158 156 156 152 159 166 166 158 158 157 155 145 143 143 142 139 144 146 143 144
123 125 126 124 122 112 110 102 97 88 97 95 95 93 99 97 101 100 109 115 121 133 141 151 163 168 157 161 159 164 168 169 159 153 159 149 148 139 141 139 142 152 139
130 128 124 119 115 115 106 100 96 95 89 86 86 85 77 74 78 86 89 87 96 105 113 121 133 131 148 162 168 170 170 186 183 175 152 149 150 142 144 138 141 148 150
105 101 97 93 98 95 96 95 95 95 99 102 95 89 87 82 78 73 73 71 74 83 91 92 94 113 102 107 116 127 130 143 157 165 146 132 123 128 123 137 134 125 126

GFSGL_con_3kmhel_105.txt.gz
Helicity
51 67 115 211 205 180 133 53 80 68 70 86 201 201 179 246 288 205 151 115 9 61 113 119 153 140 142 139 133 127 153 174 169 177 136 162 163 239 285 248 200 210 225
60 65 100 195 249 187 203 196 97 68 87 128 159 157 155 189 257 262 116 -32 33 35 48 115 132 94 88 112 133 129 122 142 160 206 210 228 223 244 316 325 246 212 351
77 164 117 240 292 277 242 251 154 90 140 155 149 135 133 143 214 158 84 -50 30 50 115 108 115 106 122 130 148 135 128 153 199 303 285 245 274 242 326 395 446 456 359
117 154 157 287 292 236 227 279 385 325 163 159 135 153 145 130 140 169 258 156 150 131 128 114 101 93 91 117 139 108 154 172 164 235 289 303 311 317 374 556 507 438 465
135 136 224 152 78 99 254 295 236 340 308 488 245 274 213 283 286 260 84 167 155 156 194 161 169 166 170 154 124 116 152 206 232 277 252 290 348 405 398 401 529 505 473
133 152 187 198 174 235 290 245 103 142 276 427 398 371 335 325 394 349 316 232 236 223 190 159 132 129 98 105 79 64 141 209 285 258 282 238 344 410 420 541 594 536 498
128 145 170 188 181 203 309 322 307 88 162 366 426 412 389 350 378 294 357 336 294 276 228 178 128 85 92 100 169 276 349 366 297 264 274 308 326 450 501 517 474 475 406
105 133 154 170 163 127 117 161 234 201 275 222 493 573 531 531 477 364 404 375 354 324 251 219 154 120 112 99 170 271 278 324 365 353 445 518 515 472 380 430 481 529 489
94 108 126 109 124 126 125 119 139 234 297 251 302 518 762 879 660 538 496 433 394 357 308 256 173 118 131 112 167 246 334 390 513 598 611 598 641 582 518 548 497 494 410
83 72 57 51 74 79 89 88 103 118 179 259 298 260 305 407 784 398 471 372 335 309 285 250 272 154 170 163 206 235 355 350 350 519 722 815 606 619 665 481 436 522 587
46 37 54 54 40 58 53 69 60 75 110 176 273 343 475 590 611 435 392 364 296 280 300 254 224 225 237 234 255 250 261 287 370 430 537 502 583 624 534 565 547 520 558
8 26 37 58 44 27 52 46 62 52 58 75 106 173 213 230 225 255 345 347 282 236 226 235 200 229 317 318 307 323 344 344 376 455 527 547 571 639 698 667 571 558 526
-22 -17 -1 8 31 33 44 61 64 52 50 54 58 72 111 139 124 146 183 147 158 185 163 179 209 268 260 336 393 373 380 354 387 451 492 525 561 545 553 661 801 712 780
2 3 -3 -2 8 26 27 28 44 67 34 37 54 46 54 80 97 87 64 84 111 96 97 144 165 198 256 282 293 331 368 364 363 371 390 424 451 512 563 617 618 653 741
9 13 12 4 9 11 16 8 5 32 45 37 21 21 39 61 68 69 76 70 82 89 68 89 134 197 239 232 245 268 254 263 293 308 363 358 399 426 538 588 550 533 619
10 9 14 9 11 14 14 12 48 45 73 96 101 80 34 77 97 106 105 95 101 90 70 92 116 123 135 152 171 195 216 216 217 209 217 221 256 290 311 310 275 280 260
26 21 12 21 20 22 24 28 32 35 47 71 98 118 119 116 120 123 127 136 178 103 98 110 113 127 128 134 142 149 173 192 190 201 207 217 218 221 217 237 254 266 297
6 22 24 33 37 40 44 46 46 52 53 52 54 61 97 126 147 156 145 113 130 154 147 144 139 141 147 148 150 156 162 170 185 186 195 198 199 203 211 216 220 230 234
27 16 6 9 19 23 36 44 55 70 82 85 83 93 85 69 94 140 162 127 126 129 140 154 166 171 160 152 159 172 190 191 180 185 187 190 199 193 217 223 235 225 198
53 68 56 54 50 52 50 54 60 64 66 75 99 127 131 117 121 129 141 160 156 157 153 144 141 151 167 165 165 155 148 152 161 166 170 171 165 160 163 158 158 162 171
78 86 87 91 92 93 94 96 100 96 90 82 63 81 123 123 134 141 142 161 181 172 174 165 157 162 161 163 164 174 182 175 167 163 166 162 177 174 170 160 164 163 160
86 91 99 110 113 122 115 130 129 117 117 114 103 60 82 107 110 117 132 136 142 162 167 171 178 180 194 192 182 173 178 174 171 169 168 165 164 168 168 170 167 164 165
105 113 120 133 130 130 137 131 126 120 114 98 85 80 76 75 80 100 87 96 120 135 150 171 158 160 157 171 192 212 198 197 205 206 171 170 163 156 155 166 172 168 175
125 124 126 130 126 113 116 99 104 102 84 86 83 74 65 61 59 52 58 81 80 86 113 112 140 180 163 167 165 173 189 199 179 192 235 194 185 193 187 179 195 202 178
123 123 120 110 104 96 96 99 99 100 97 99 105 89 84 75 58 49 52 49 63 79 67 76 110 90 125 169 183 180 177 200 200 199 180 202 213 216 206 184 178 172 186
103 99 89 87 90 89 88 87 91 92 90 98 100 98 98 95 89 80 73 47 45 55 61 74 81 109 99 83 120 127 145 176 197 209 203 161 158 156 152 163 179 159 165

GFSGL_con_3kmhel_108.txt.gz
Helicity
31 58 72 113 131 77 29 67 140 142 47 89 137 157 166 231 216 253 198 211 218 190 232 221 216 200 158 162 161 235 220 214 160 120 144 150 125 165 186 205 278 277 297
33 48 76 90 143 132 59 91 187 205 170 58 87 150 169 213 238 220 277 261 215 261 238 232 152 208 137 147 196 168 157 144 163 150 165 202 181 141 171 197 258 369 399
62 70 75 111 146 179 163 186 165 180 134 129 52 107 144 193 197 256 246 258 248 149 192 75 107 138 131 162 182 169 163 173 137 143 158 245 302 217 193 216 359 532 559
81 101 112 122 150 151 195 231 235 180 154 190 283 111 161 106 154 200 204 216 192 172 164 121 94 121 108 132 169 139 145 141 153 174 204 272 317 263 267 440 480 526 583
95 118 123 117 129 130 124 190 337 200 106 187 342 383 358 304 232 152 138 143 101 134 284 206 222 211 237 228 173 136 113 128 163 122 196 282 256 267 392 464 613 679 652
91 108 120 110 130 131 129 196 229 317 156 90 287 572 313 390 453 284 132 192 215 202 197 101 181 225 207 184 162 159 152 112 117 140 137 209 264 319 432 579 667 674 629
77 89 114 126 135 151 120 140 206 317 321 227 238 297 297 364 577 582 417 405 395 389 380 295 231 204 212 158 132 159 180 205 199 163 202 222 282 405 531 536 546 650 575
73 83 119 141 136 145 156 156 145 187 223 275 255 245 217 328 558 623 587 543 546 390 413 323 268 218 209 145 141 156 167 177 224 181 284 313 311 380 531 488 621 757 590
86 101 126 91 83 77 122 121 91 76 102 148 260 294 369 256 349 439 578 594 583 495 479 416 317 242 208 149 170 180 168 180 200 350 453 511 537 538 640 739 778 661 631
83 72 56 36 42 56 54 68 68 52 53 63 135 214 341 354 364 487 393 646 649 534 481 455 384 305 235 205 192 175 184 182 190 262 430 590 669 728 681 515 526 495 607
25 20 21 35 18 37 30 44 41 30 28 58 71 115 180 248 256 288 524 332 457 545 546 493 326 267 278 260 272 239 196 196 235 252 322 426 545 671 666 584 447 390 566
-28 -16 -7 8 9 22 35 40 45 39 41 62 69 72 94 134 188 222 187 121 143 206 258 338 269 239 244 249 226 304 307 306 290 268 311 376 445 548 595 586 568 542 469
-24 -25 -27 -23 -15 2 13 25 28 29 19 28 31 52 70 97 81 109 134 161 129 53 74 163 178 144 212 258 274 309 296 276 309 379 390 362 377 414 498 591 693 681 730
-3 2 -19 -23 -15 -30 -41 -20 -14 7 -4 -8 -3 14 24 57 87 82 60 43 23 25 37 54 87 103 180 210 196 253 336 309 272 347 383 369 386 419 454 490 505 616 693
-1 -2 1 -5 -7 -12 -30 -60 -78 -62 -32 -18 -6 -20 0 20 32 50 57 55 37 37 11 37 64 86 120 128 152 197 197 183 229 237 279 292 324 364 412 437 464 476 577
23 11 13 12 9 6 3 -13 30 11 16 30 53 30 4 57 78 85 101 124 88 80 67 83 85 92 110 90 110 129 150 175 176 171 205 217 232 217 224 276 301 343 392
11 8 1 6 9 12 13 17 18 0 48 44 68 100 109 107 122 122 102 107 149 121 95 101 102 95 107 119 114 128 141 149 132 140 140 163 173 191 216 226 245 259 286
13 15 14 10 10 12 14 13 18 25 30 21 84 120 130 95 123 163 142 92 96 118 100 118 134 126 125 136 155 159 135 145 151 156 163 168 150 145 150 165 171 179 191
3 7 5 6 9 15 17 21 23 34 35 32 46 130 163 155 138 147 206 159 118 114 99 105 115 135 138 129 130 133 156 182 191 187 188 189 184 190 215 227 226 214 200
51 44 43 50 54 56 69 71 74 73 76 51 37 49 115 131 92 83 112 169 175 157 169 122 120 128 148 159 162 191 164 176 194 202 212 219 184 160 163 176 211 237 239
71 85 102 105 117 110 107 119 96 90 85 71 17 14 68 92 112 82 63 101 143 164 173 163 152 160 195 187 166 185 179 183 191 190 198 204 227 219 210 224 225 216 187
95 98 106 107 103 116 115 119 116 103 102 80 55 37 38 14 44 57 52 66 73 84 110 164 115 92 111 165 201 185 178 207 223 180 187 196 198 208 204 197 194 202 198
101 105 112 118 110 110 105 105 109 101 85 76 64 47 29 4 -7 4 20 30 40 36 50 73 91 130 146 120 116 161 189 174 172 199 231 200 181 179 172 203 211 213 212
100 101 108 106 96 88 90 90 90 100 97 89 90 86 61 51 28 15 8 15 15 25 33 32 29 59 98 148 147 125 140 179 198 203 273 223 201 212 188 191 194 185 173
88 90 86 84 84 84 92 97 99 97 97 101 96 96 99 84 76 62 44 7 -18 3 12 22 45 32 49 61 74 109 143 174 177 224 254 187 226 236 259 215 167 204 210
90 90 81 87 90 92 93 95 86 89 90 89 88 91 97 88 86 88 92 57 38 6 17 19 32 33 26 61 58 51 98 150 193 247 237 192 230 202 228 170 212 171 177

GFSGL_con_3kmhel_111.txt.gz
Helicity
26 27 28 45 56 67 72 108 90 69 67 78 84 58 55 83 127 40 193 296 294 309 305 282 134 119 204 213 348 208 233 237 165 141 139 157 107 119 157 150 167 159 145
38 26 30 50 60 80 90 129 125 97 119 154 147 93 68 78 79 118 181 187 259 237 206 210 150 215 161 240 261 272 172 188 159 156 181 146 107 80 107 150 147 190 153
45 51 57 72 84 117 115 131 128 136 166 188 153 172 182 109 52 142 116 136 136 161 214 183 228 176 174 215 233 269 247 199 165 195 176 195 147 116 153 163 263 305 289
64 65 83 94 92 93 97 101 120 159 204 283 166 150 71 205 216 177 130 176 222 223 181 215 189 114 91 234 283 268 179 179 148 162 171 186 186 176 187 283 317 359 374
77 76 95 101 89 101 113 107 125 173 262 252 285 222 233 437 355 153 129 122 239 207 241 203 189 207 212 177 127 131 159 170 165 140 162 183 191 219 243 327 389 440 458
88 87 85 71 87 134 139 127 156 204 193 210 315 209 199 268 249 303 133 115 231 232 280 237 259 366 284 199 220 276 240 149 145 155 153 160 156 217 284 387 438 399 425
100 83 72 59 83 115 137 174 179 216 217 243 266 210 218 236 322 199 475 478 422 387 346 346 331 276 206 245 268 274 290 263 233 196 147 142 173 203 286 332 379 459 531
85 75 52 63 86 90 118 133 149 121 156 247 304 249 193 223 384 315 206 610 638 620 539 446 327 248 207 187 231 224 249 227 218 201 177 130 158 204 311 359 423 629 653
103 67 56 37 36 61 77 66 55 69 105 114 195 244 198 252 288 329 234 286 530 663 594 498 410 380 317 221 215 249 210 205 190 199 253 319 324 186 421 575 587 613 595
54 36 7 7 14 26 31 26 -0 -20 -3 3 51 121 210 223 283 317 272 91 224 472 650 612 494 385 326 316 285 229 226 233 204 190 203 270 342 551 590 408 553 531 572
-17 -10 20 15 20 24 15 13 6 10 4 32 36 60 99 139 159 202 196 160 110 155 235 413 448 468 370 402 329 291 253 228 234 233 237 283 317 394 489 523 440 401 592
-16 -47 -42 -26 -15 10 24 40 28 4 7 15 21 45 91 126 129 103 99 108 108 94 43 144 311 396 390 396 350 358 305 265 258 282 295 332 326 343 346 408 452 469 400
14 9 -25 -31 -34 -39 -21 -2 21 9 -6 -6 -0 6 29 52 73 104 101 79 43 2 15 46 72 97 239 382 406 436 368 275 290 286 310 360 357 348 343 334 396 391 463
4 14 10 -3 -10 -26 -46 -47 -47 -20 -6 3 -8 -6 5 14 16 29 33 19 32 24 19 27 48 78 101 152 194 266 261 286 253 318 340 304 307 335 353 378 390 419 453
8 17 17 9 -3 -25 -46 -60 -85 -77 -48 -42 -19 -3 17 20 13 30 28 3 -0 21 24 54 84 89 100 120 128 139 162 145 192 245 274 295 298 315 340 310 288 329 400
7 11 16 18 13 -1 -9 -33 10 32 66 60 66 59 -2 81 103 93 103 118 113 89 58 73 77 86 99 106 120 116 117 125 123 134 175 205 240 260 245 292 314 357 347
28 36 32 33 36 38 22 14 10 -11 80 87 112 141 132 122 145 164 136 130 164 129 93 91 85 100 109 106 110 129 135 132 129 136 137 146 159 180 206 219 230 245 286
22 32 29 11 18 45 50 36 43 25 17 64 88 151 178 156 166 173 181 159 164 152 115 124 132 137 126 131 133 123 120 132 134 134 139 143 150 144 166 201 228 243 261
32 53 47 50 65 92 106 80 75 57 6 -5 20 76 105 164 156 178 179 115 135 165 157 142 149 162 173 176 180 171 167 165 158 153 150 122 128 128 139 146 143 163 182
74 97 95 78 83 113 125 121 105 95 76 39 26 15 10 30 53 54 68 85 113 126 137 100 124 148 168 186 193 183 175 180 187 195 206 182 167 165 184 190 195 192 185
87 118 107 93 110 120 122 125 129 105 84 61 20 -12 15 -2 -9 -14 -11 10 36 54 79 105 82 90 117 139 155 166 173 193 211 221 206 199 186 181 192 211 205 178 155
99 117 105 104 108 106 111 121 128 119 121 116 91 48 47 2 -5 5 6 -14 -28 -10 -18 3 34 59 85 89 105 128 153 184 212 228 229 202 172 178 170 175 195 203 195
90 107 111 99 87 88 94 100 101 94 100 109 105 133 106 56 10 -0 4 1 -19 -27 -15 -10 -4 11 37 64 73 84 103 138 164 183 220 206 174 162 173 186 186 208 215
97 101 93 89 89 86 88 87 85 84 101 102 111 107 101 108 95 44 5 -10 -3 -26 -21 -13 1 5 4 23 48 55 82 110 129 181 215 190 179 176 148 160 163 174 181
103 97 104 104 109 105 119 106 100 94 91 83 80 72 67 79 74 66 39 15 -8 -14 -25 -11 -16 -12 5 7 37 63 90 128 159 186 174 189 190 200 176 155 141 166 194
107 110 111 113 118 131 137 141 136 144 148 94 82 64 57 58 55 54 52 41 29 17 -1 -17 11 2 11 17 20 33 73 108 146 197 166 157 179 210 191 189 201 163 176

GFSGL_con_3kmhel_114.txt.gz
Helicity
85 82 76 65 54 42 28 30 29 44 48 54 81 69 52 51 91 135 144 105 125 120 76 179 197 231 233 236 244 248 250 286 226 236 207 185 144 124 122 119 122 114 28
65 74 76 65 55 40 21 41 60 55 63 76 93 95 65 83 109 89 169 105 112 112 126 163 157 274 271 240 253 232 205 181 237 258 192 155 133 108 92 118 155 129 129
85 77 72 78 79 66 62 51 75 82 73 109 120 140 137 107 187 282 158 112 93 53 135 206 132 212 262 268 191 163 130 142 174 187 204 162 169 144 146 162 170 200 186
95 90 94 84 64 68 72 89 104 102 117 132 176 183 183 172 167 233 242 162 111 4 101 172 152 155 180 160 177 141 44 -41 230 267 293 221 193 142 149 188 228 232 210
99 108 108 79 63 70 99 104 116 138 137 154 196 270 245 148 122 207 163 146 89 -126 147 250 246 205 109 83 153 183 189 201 274 265 307 202 172 182 157 204 203 274 269
109 123 112 94 81 74 100 120 120 146 170 228 266 253 247 145 228 240 189 160 229 293 293 287 273 291 217 164 277 273 196 235 268 265 191 153 146 146 166 239 289 285 243
119 123 118 99 87 79 49 66 142 175 167 202 271 320 324 282 248 252 334 273 335 268 485 433 327 320 206 267 392 376 339 288 232 169 160 171 165 159 208 237 274 271 253
123 121 112 92 58 46 23 5 11 28 40 72 153 240 332 376 372 321 315 187 184 374 412 510 439 425 351 269 293 404 326 284 280 231 220 263 233 209 201 202 263 401 401
95 67 53 49 20 27 29 9 -17 -6 31 47 44 87 169 245 326 326 300 295 266 320 167 414 524 399 405 328 235 251 306 333 283 240 202 178 177 175 119 315 415 449 341
30 12 12 32 29 41 38 27 -4 -13 -3 22 57 82 110 99 157 185 207 246 278 174 202 270 364 319 360 316 260 232 277 297 255 250 241 193 194 185 347 242 332 389 521
15 5 1 7 26 24 23 34 32 9 10 35 49 72 100 108 96 81 75 65 121 144 165 161 213 217 276 406 369 331 269 290 282 244 252 253 233 273 273 298 342 347 426
15 -10 -10 -1 -9 5 19 19 31 23 24 24 35 43 48 62 87 88 70 43 11 -7 61 108 92 116 209 244 298 369 388 350 288 316 298 318 270 329 302 312 291 360 371
14 5 -7 -21 -20 -15 -8 12 26 32 19 6 -13 -5 11 18 29 78 73 65 52 -0 1 32 68 93 111 142 155 201 224 320 375 385 340 340 273 270 252 275 306 299 353
13 13 6 -2 -4 -30 -53 -63 -50 -31 -29 -12 -2 1 -4 -8 -9 26 22 22 41 41 52 53 62 79 111 96 119 147 162 171 196 308 396 355 322 291 296 287 292 297 348
14 11 -5 -14 -29 -53 -72 -73 -64 -48 -23 -24 -13 -33 -8 10 23 39 38 2 14 37 45 87 130 125 123 139 162 144 126 137 160 196 203 312 296 386 288 328 302 307 341
-6 -15 -7 -4 1 -0 -1 -10 27 47 62 85 96 55 21 101 116 115 117 141 146 99 73 95 112 134 155 156 134 141 153 156 145 126 135 138 214 229 248 264 345 296 421
19 21 30 38 29 21 14 4 14 35 81 100 116 112 126 129 146 151 132 128 181 146 111 130 133 149 155 160 181 171 146 146 152 159 163 153 142 146 162 196 238 270 301
57 69 40 33 45 56 52 29 6 1 14 25 27 76 89 89 104 128 144 121 124 147 113 128 144 160 173 179 175 179 192 180 168 164 164 179 172 153 158 176 205 210 232
61 52 48 60 82 91 93 92 80 55 37 21 5 -2 -3 71 71 92 89 -15 6 52 84 108 122 138 149 157 171 170 169 183 197 185 176 159 152 149 166 166 175 203 207
90 93 79 81 95 102 106 112 115 114 106 88 47 28 7 1 -15 -16 -14 -27 -11 2 27 65 86 99 117 133 143 147 153 174 192 211 226 190 165 156 156 155 165 177 195
87 81 89 88 91 98 102 113 114 112 112 118 124 93 49 18 -4 -9 -25 -26 -11 -8 -10 1 41 55 72 95 117 139 151 155 166 185 194 199 176 152 153 153 162 168 169
85 87 94 94 97 105 100 103 103 102 102 118 100 100 103 73 37 10 10 -3 -30 -20 -25 -34 -29 5 41 49 59 79 99 131 156 180 183 175 160 143 137 144 153 157 173
104 111 103 105 107 113 120 115 115 113 118 112 107 102 82 79 78 55 51 5 -3 -2 -28 -16 -3 8 3 23 35 38 59 90 114 132 163 172 142 131 132 143 156 173 177
105 106 110 116 125 128 125 145 135 149 135 122 122 106 92 84 78 51 30 21 10 -0 -5 -19 -16 -7 -19 5 26 38 47 71 90 110 133 146 148 152 138 135 145 154 165
116 109 116 125 129 128 133 153 156 159 171 181 174 152 121 99 69 48 44 16 9 16 2 -3 -12 -6 -13 -2 30 48 57 91 105 125 118 127 141 162 155 151 147 147 166
124 129 135 131 143 147 144 134 145 155 172 181 193 220 226 212 185 123 75 40 38 31 7 -19 -5 -0 4 6 4 32 71 83 99 124 116 121 142 151 155 167 171 181 189

GFSGL_con_3kmhel_117.txt.gz
Helicity
40 40 54 82 84 84 74 64 63 50 48 46 40 26 25 49 63 74 105 82 135 131 150 174 195 211 262 220 195 197 227 234 215 111 126 177 184 155 182 173 149 139 133
61 62 81 96 92 103 102 84 74 74 66 45 35 33 48 64 74 78 107 132 85 128 151 190 157 156 91 55 53 163 240 264 218 131 81 171 150 175 175 176 169 140 120
70 85 89 86 88 88 85 84 69 80 65 99 100 85 97 98 110 122 122 128 137 84 134 155 132 111 68 120 172 210 222 341 295 234 201 191 195 167 179 172 159 149 138
113 109 119 117 97 96 83 64 56 58 93 140 158 148 155 111 135 182 193 184 200 160 146 125 104 101 72 97 135 197 293 246 312 197 224 265 222 188 142 173 213 265 228
119 106 109 106 101 91 86 95 70 65 68 97 148 193 204 162 139 202 219 191 193 179 192 248 177 95 25 121 205 235 280 273 248 125 171 241 265 230 258 247 215 251 224
87 97 89 87 91 71 69 85 75 87 88 101 157 184 233 185 293 281 265 115 145 228 188 211 204 155 190 324 221 201 221 205 161 149 168 241 199 256 276 265 299 240 182
104 108 105 87 73 82 60 52 71 57 32 30 69 141 181 264 320 294 308 230 219 311 284 180 173 276 485 350 324 330 258 232 171 162 148 217 216 238 310 269 268 234 180
80 82 90 66 56 42 36 42 38 24 9 1 20 53 59 129 226 287 274 229 260 267 282 269 142 191 205 249 95 207 224 264 231 427 318 327 326 379 242 218 208 250 272
71 61 47 27 29 45 57 47 28 10 33 43 20 44 66 65 108 105 137 183 195 216 233 288 277 215 278 246 231 245 254 360 424 316 352 308 289 311 254 277 267 273 214
5 26 27 18 18 21 42 41 30 14 17 19 31 37 52 88 121 85 40 24 91 139 160 186 319 251 246 174 182 264 283 249 243 317 294 368 283 271 283 267 223 227 303
2 7 12 15 17 18 15 20 29 20 18 28 32 39 55 67 76 98 88 16 -27 -22 25 66 135 238 230 160 137 240 201 255 157 265 338 275 317 263 263 243 264 227 308
15 6 -5 -9 -19 -8 6 6 4 7 7 12 11 21 38 57 90 89 82 55 37 -17 1 1 28 98 114 188 228 279 221 199 261 289 199 373 336 312 283 277 288 292 270
20 12 -6 -34 -28 -37 -18 -10 -17 -11 -18 -20 -15 -2 21 46 60 107 99 84 61 -4 -14 43 95 106 121 126 158 186 197 159 256 285 163 266 291 325 272 216 264 293 307
15 2 -15 -31 -44 -66 -71 -86 -86 -56 -45 -49 -45 -20 -5 2 14 27 44 53 65 53 50 39 58 72 95 111 144 169 135 132 169 189 212 194 185 280 262 266 226 271 266
-10 -15 -27 -33 -40 -55 -58 -58 -60 -41 -30 -47 -60 -57 -33 -23 -16 7 12 4 14 31 41 59 85 88 85 115 137 147 160 190 169 148 142 168 139 182 300 271 241 229 215
-14 -24 -22 -10 -8 -9 -19 -23 15 27 36 47 44 10 -27 37 58 59 60 81 108 72 40 47 75 92 101 110 103 121 136 158 177 176 187 163 143 176 170 200 220 277 279
-15 7 14 30 25 12 -11 -18 -21 -16 29 53 71 74 69 62 72 85 70 49 89 56 20 42 57 81 105 116 122 120 128 137 139 136 152 201 199 174 186 190 192 161 152
6 21 26 33 13 14 15 0 -11 -25 -26 -1 -14 34 57 85 94 97 93 54 73 74 23 32 40 57 77 96 117 130 138 151 152 146 147 145 189 192 179 202 234 227 223
40 37 34 27 31 48 46 46 52 54 56 52 46 40 14 53 63 60 70 -25 -6 12 21 22 22 31 48 61 79 99 112 130 150 163 170 173 166 146 183 181 179 238 238
44 42 39 44 54 53 61 62 70 80 84 82 71 59 47 34 15 10 -5 -19 -22 -18 -12 11 27 27 33 46 60 69 82 109 140 159 189 197 193 150 135 155 181 176 178
42 41 52 53 55 57 75 86 83 92 97 99 93 69 58 42 30 25 22 14 22 17 -7 -23 -12 11 23 33 41 52 54 63 90 132 161 184 199 191 149 127 129 147 167
52 41 47 58 68 85 86 90 95 94 93 103 93 82 80 78 69 50 43 42 18 0 -15 -11 -12 -36 -36 -10 17 48 71 83 95 116 147 169 165 159 156 146 143 136 144
61 63 72 82 79 97 107 108 108 111 121 122 116 108 104 100 85 65 55 48 40 48 41 35 24 10 -19 -18 -17 0 37 80 100 92 123 152 148 144 124 129 172 182 166
74 82 84 86 104 110 112 119 126 134 134 136 139 149 146 135 123 103 89 75 60 63 58 50 39 26 18 7 6 17 27 31 55 80 99 119 141 147 133 130 134 159 188
93 100 101 102 106 106 116 120 122 129 136 141 139 139 149 158 174 180 158 138 114 104 96 75 54 28 19 16 19 25 31 56 67 71 85 113 125 139 132 126 137 149 175
101 99 101 107 115 113 113 118 118 119 123 124 131 131 142 160 165 168 178 188 192 168 129 94 75 47 12 15 4 9 26 37 50 77 73 79 99 121 126 129 146 146 165

GFSGL_con_3kmhel_120.txt.gz
Helicity
-11 -21 3 45 60 54 60 80 88 102 104 109 92 66 74 74 94 107 117 120 125 126 103 108 83 122 172 160 184 210 230 282 277 227 218 167 177 158 138 130 161 190 202
49 52 55 52 62 76 94 99 96 80 70 58 66 73 73 93 85 82 104 140 149 155 129 106 103 93 128 159 199 172 209 257 252 156 276 232 210 53 124 98 108 179 187
53 71 80 89 98 98 93 109 111 107 107 101 94 108 96 100 98 101 107 138 166 196 218 247 119 109 138 167 174 196 202 231 161 168 191 335 279 242 200 116 126 160 182
100 103 112 113 113 114 109 109 113 104 117 132 134 117 101 126 111 98 101 149 191 208 265 284 256 274 285 175 167 142 95 159 136 178 251 304 295 211 172 163 187 224 249
97 111 125 118 105 79 65 60 49 53 77 98 114 130 130 149 138 147 112 130 167 239 281 319 306 284 169 168 144 97 53 106 105 172 227 293 279 190 165 215 225 289 271
83 94 97 101 84 57 28 37 38 43 43 58 69 106 162 160 200 167 105 78 135 168 206 250 301 345 318 215 179 97 204 42 106 242 219 304 248 248 280 228 311 310 260
71 82 93 81 73 38 13 23 41 48 32 26 36 37 54 72 107 84 104 59 74 157 189 218 237 256 279 193 170 217 394 457 524 364 288 268 260 245 210 273 318 259 307
64 72 86 55 33 45 46 52 70 47 37 25 45 45 50 96 113 66 -8 -15 15 78 150 198 194 228 292 243 190 192 368 327 276 277 312 315 241 169 221 237 328 378 443
48 25 5 21 33 49 61 52 52 46 31 14 -4 26 44 54 104 104 48 11 -7 6 15 69 163 200 275 295 190 265 464 458 273 168 256 349 415 527 540 516 409 374 331
16 21 20 19 26 33 31 29 26 12 3 1 -7 9 40 50 95 93 51 19 18 3 -5 4 66 88 207 210 193 256 96 151 234 224 114 192 426 634 870 683 418 355 341
3 7 6 -2 1 8 13 24 19 -8 6 4 -1 1 22 31 44 93 86 -1 -4 -11 -9 11 11 52 32 67 140 172 182 148 236 283 270 310 350 299 451 525 412 294 367
-5 -17 -25 -23 -16 -9 -3 -17 -22 -31 -16 -3 -2 5 11 31 64 78 77 49 36 -39 -7 8 11 68 71 84 63 94 160 186 207 274 311 370 390 279 330 336 311 286 255
0 -8 -12 -24 -42 -39 -36 -34 -47 -53 -54 -39 -44 -26 11 30 37 92 97 91 76 9 -6 24 78 88 96 78 126 133 73 47 91 194 308 352 288 320 139 131 178 239 254
2 -7 -21 -29 -30 -43 -65 -77 -87 -92 -87 -69 -55 -67 -66 -57 -29 -9 -11 10 35 38 38 47 48 47 53 54 89 104 70 84 43 33 102 182 177 262 279 236 199 295 246
2 -9 -14 -34 -36 -46 -48 -57 -81 -73 -76 -124 -138 -124 -102 -85 -58 -20 -33 -53 -40 -34 -21 -9 29 75 107 116 115 94 92 105 93 102 76 82 75 128 186 216 192 229 301
3 -17 -35 -29 -17 -4 -25 -42 -4 -1 -4 -6 -1 -30 -68 14 32 27 14 18 35 -2 -38 -36 -14 -12 -13 26 81 114 113 123 116 92 79 89 113 87 75 103 139 134 168
-7 -20 -23 -8 1 7 -16 -38 -38 -46 -17 -7 15 14 28 31 46 58 50 30 62 10 -58 -42 -32 -15 -2 4 8 24 79 112 114 96 93 101 115 108 92 104 116 109 123
-2 -7 -19 -14 -17 -13 -30 -48 -60 -76 -76 -44 -39 7 18 32 35 45 48 5 -18 -25 -62 -36 -17 -8 -6 -2 10 28 51 73 104 111 127 137 146 129 127 120 95 100 138
-2 -11 -9 -5 -5 -3 -18 -20 -24 -16 -7 2 5 34 26 55 61 35 34 -59 -36 -23 -17 -13 -27 -34 -21 -15 2 21 21 38 63 86 125 149 168 154 162 141 127 123 97
-9 15 13 -1 0 3 -8 -10 11 24 33 35 35 30 36 28 21 22 17 21 27 36 26 15 -9 -16 -23 -22 -6 9 22 39 71 87 116 127 159 161 165 166 154 135 117
22 25 23 18 20 8 -4 15 26 34 41 46 52 55 54 48 51 40 33 29 30 38 49 36 16 -2 -20 -25 -11 13 28 37 59 97 105 135 147 160 169 153 135 150 162
38 24 28 24 27 30 23 36 47 56 59 57 59 70 88 85 87 77 73 67 49 40 39 37 30 11 -17 -27 -29 -18 10 41 78 109 133 141 141 138 141 139 149 142 155
49 44 45 45 41 43 49 51 59 58 68 78 75 87 98 103 102 100 94 99 100 90 81 65 49 45 27 1 -31 -48 -32 12 45 57 103 123 131 135 126 125 144 161 177
64 56 43 43 47 50 48 65 61 84 82 84 86 91 101 96 105 115 116 119 123 123 115 97 72 66 49 30 7 -13 -17 -12 -1 24 47 77 102 121 109 107 123 133 154
63 56 59 53 60 62 74 76 78 77 75 81 85 85 96 98 109 113 111 106 105 104 109 100 85 82 83 71 47 18 -3 7 3 1 25 53 77 102 99 97 102 122 123
67 67 62 60 69 77 78 74 72 70 75 73 77 81 89 88 93 84 86 82 77 76 80 83 88 91 86 73 78 77 27 8 10 13 5 17 51 72 87 106 111 110 133

GFSGL_con_3kmhel_123.txt.gz
Helicity
70 73 68 78 84 55 82 73 98 114 138 143 130 121 128 133 123 131 116 109 113 128 127 135 129 127 116 95 105 146 158 155 170 145 153 160 116 115 131 148 129 159 204
68 67 72 61 57 69 81 83 86 97 99 134 154 154 174 176 159 113 124 147 166 192 192 188 182 161 199 87 112 139 164 161 172 159 163 181 172 183 135 108 174 211 223
74 84 90 105 92 93 89 85 71 57 64 92 137 184 181 194 187 150 137 155 161 185 199 204 232 229 268 219 228 158 134 132 148 188 164 167 204 240 198 214 201 166 208
70 80 88 94 93 92 77 68 66 53 39 54 63 105 144 181 148 134 152 178 183 188 185 183 198 222 249 267 208 158 178 121 157 167 158 229 287 254 240 234 232 182 180
60 58 59 63 65 73 65 38 19 21 42 49 40 57 66 84 109 132 107 141 172 185 203 193 185 222 255 228 166 158 152 140 138 195 157 164 261 251 278 298 271 191 229
60 65 65 75 88 100 53 30 32 32 37 33 35 30 54 48 62 31 -9 25 98 150 223 258 246 309 291 213 242 121 101 78 94 120 230 157 139 226 270 304 338 345 286
72 79 91 94 105 66 37 52 45 45 24 34 37 40 47 74 123 68 21 -35 -14 35 103 239 264 257 332 243 273 232 242 261 188 198 165 269 171 190 237 266 267 235 131
62 84 91 68 24 30 40 49 34 22 21 19 25 35 34 71 121 115 52 -2 -17 9 10 92 134 171 273 267 201 225 241 264 271 263 337 244 346 325 481 217 287 271 300
38 23 4 21 31 30 31 24 15 14 8 2 5 26 53 73 137 141 89 49 41 30 20 0 40 40 95 159 233 253 242 307 311 310 398 462 394 362 410 316 259 310 275
26 30 26 27 22 23 21 20 1 1 -7 -15 -1 20 34 55 110 112 81 33 31 35 41 49 103 85 108 99 4 36 188 258 257 276 321 275 338 326 368 168 354 356 349
22 25 19 6 8 8 -1 4 11 17 3 6 8 16 33 38 53 97 96 20 2 -4 4 41 50 114 100 108 90 38 12 44 142 160 185 285 428 447 390 456 323 291 357
22 12 3 1 -15 -11 9 21 24 29 41 34 35 29 27 34 70 65 60 36 22 -26 -7 -4 11 86 84 101 77 140 110 44 12 42 128 164 231 336 422 334 390 288 424
17 5 -11 -13 -13 0 23 23 15 13 9 5 -13 -17 -17 -6 3 54 53 52 38 -28 -30 3 44 74 87 79 129 139 95 58 23 33 47 109 140 174 179 273 310 305 246
6 -3 -17 -15 -4 8 6 -3 -10 -21 -32 -49 -70 -71 -70 -64 -57 -50 -57 -54 -38 -30 -17 -9 -13 -2 23 54 102 105 77 62 38 58 76 76 86 91 118 139 208 320 163
6 -2 -13 -17 -5 -2 -7 -14 -26 -24 -31 -54 -54 -59 -56 -74 -69 -31 -31 -53 -40 -28 -29 -6 25 56 86 92 79 82 105 110 110 110 100 108 96 118 107 76 87 118 70
13 -1 -6 -3 -18 -21 -18 -2 29 10 -5 -9 -18 -28 -52 0 19 20 17 34 27 -10 -42 -34 -23 -17 -3 35 67 79 59 89 106 92 87 82 92 104 102 124 95 32 79
26 19 10 0 -11 -13 -10 -9 -20 -31 -34 -20 3 26 31 19 28 26 0 -3 37 2 -49 -40 -46 -38 -27 -11 -8 8 46 43 40 49 69 89 108 108 120 108 124 146 74
39 29 2 -10 -13 -19 -27 -29 -31 -29 -32 -33 -22 9 22 40 42 44 34 19 11 -3 -31 -37 -26 -23 -20 -13 0 17 29 40 56 54 71 88 100 90 127 130 116 124 127
22 7 -1 -6 -9 -13 -12 -5 -10 -8 -4 0 8 27 37 41 54 68 70 14 11 21 19 22 5 -18 -26 -27 -24 -15 2 24 33 44 61 75 93 98 115 128 138 156 134
15 10 -2 1 6 8 2 3 2 2 6 14 24 30 29 34 43 37 26 17 15 15 13 22 24 31 34 18 -3 0 12 26 45 61 78 79 94 90 108 132 129 148 156
0 10 22 31 30 21 18 18 16 19 23 26 30 43 42 36 30 31 33 34 34 41 44 36 29 29 25 22 23 20 13 17 34 47 64 90 103 119 118 114 128 142 147
9 20 38 45 42 37 31 28 25 29 41 44 42 50 62 53 50 58 64 66 66 64 65 64 56 53 42 24 10 -4 -10 -2 6 36 70 84 94 107 121 138 155 162 160
36 43 49 50 52 50 46 41 41 44 49 51 49 53 52 58 67 75 74 76 79 82 86 82 76 72 68 52 36 18 -4 -19 -24 -23 15 53 76 98 106 119 142 166 178
51 52 53 60 55 50 46 47 47 60 57 58 50 47 52 60 65 67 67 68 72 76 81 78 77 79 69 67 63 57 37 15 -8 -12 -8 1 41 72 83 103 113 147 155
65 63 68 65 56 52 46 52 63 63 61 55 47 48 53 55 61 61 63 66 67 67 70 69 74 69 70 64 71 75 73 64 31 10 2 -2 28 56 66 77 106 122 149
67 71 69 61 55 48 58 68 69 66 61 47 43 47 49 50 55 53 56 62 63 62 63 66 63 62 61 64 73 66 74 77 62 41 15 5 12 35 57 79 112 104 133

GFSGL_con_3kmhel_126.txt.gz
Helicity
73 93 99 99 106 69 93 107 90 60 63 54 86 99 102 137 172 175 179 173 182 162 140 145 152 126 83 92 135 96 90 99 94 88 108 75 52 96 108 144 130 97 60
72 76 95 105 97 100 89 84 70 56 52 71 74 82 110 119 128 150 180 189 201 195 198 178 166 146 149 133 114 126 141 98 85 83 81 71 54 63 94 123 147 126 80
78 77 84 87 86 86 93 82 54 50 52 59 68 81 75 70 81 86 110 139 171 192 196 195 195 176 162 147 158 139 110 116 177 113 146 140 101 112 107 138 170 150 124
97 92 84 73 70 82 82 76 65 54 62 60 50 37 34 22 31 42 57 82 101 123 164 176 206 217 175 156 142 141 147 97 78 46 124 102 118 128 141 164 209 219 198
91 79 73 62 64 71 75 59 47 56 52 44 42 45 35 44 44 38 8 23 45 81 118 134 172 270 260 200 114 116 123 104 102 100 87 75 127 190 188 212 206 209 190
91 79 74 74 80 88 74 32 37 38 39 35 35 38 62 49 104 69 30 9 23 27 46 64 75 183 266 250 219 117 69 77 123 52 64 135 119 88 180 143 199 220 195
79 72 71 76 76 58 20 29 28 26 28 30 36 33 51 89 142 87 52 12 16 29 39 61 66 60 125 161 188 204 183 168 149 100 71 60 61 57 126 175 228 219 201
79 79 68 52 21 21 33 36 32 24 27 23 27 35 36 77 129 116 50 25 12 31 39 63 57 76 95 53 59 102 127 178 194 152 120 111 105 148 138 88 117 162 256
50 41 27 31 29 37 37 36 33 28 28 32 32 42 53 54 124 124 47 21 25 32 28 44 81 84 155 154 49 74 70 130 169 207 170 235 308 293 254 158 231 244 348
26 35 42 40 36 32 27 29 19 6 14 8 22 31 48 50 101 121 71 9 20 20 26 33 92 89 119 123 60 64 53 51 88 157 190 195 232 286 325 253 274 307 412
35 42 45 36 23 17 12 11 7 14 23 26 20 27 41 47 53 90 86 7 -19 -15 -10 -2 7 80 82 103 85 37 34 37 69 24 21 93 119 209 274 296 298 139 257
35 41 40 29 11 1 6 9 25 30 33 30 30 19 10 9 39 35 31 22 -4 -31 -25 -36 -22 38 44 79 75 120 124 76 55 57 64 54 102 123 234 271 263 187 127
28 27 17 3 -6 -3 13 23 28 35 37 41 37 29 19 15 4 34 24 8 1 -51 -47 -21 12 51 73 61 111 113 85 57 56 76 102 118 106 130 75 125 166 190 161
25 17 2 3 5 13 14 26 36 33 25 17 11 9 0 1 0 -7 -15 -20 -10 -19 -15 0 17 31 52 61 85 92 67 56 47 65 83 98 113 130 126 70 82 125 127
29 19 8 2 6 18 36 37 27 25 0 -18 -25 -8 -1 -2 -9 -7 10 0 -11 -12 1 25 50 67 78 84 74 71 82 101 111 94 90 107 125 129 148 132 84 56 25
26 21 18 12 14 14 15 26 37 19 30 25 42 25 12 30 27 9 3 26 26 19 7 4 12 18 25 28 28 34 30 47 58 72 80 86 102 108 122 137 116 111 72
32 29 20 16 24 22 14 13 18 38 38 33 17 10 13 12 23 16 -6 -7 28 13 10 6 5 10 15 21 22 28 43 38 45 25 32 63 85 94 111 101 106 125 153
50 45 37 44 36 29 27 22 10 -1 -10 -5 32 3 8 11 27 34 23 15 29 35 15 22 22 26 27 31 30 26 23 19 15 24 42 49 59 79 101 120 121 132 153
39 39 49 48 37 19 14 15 8 8 16 21 21 21 7 -17 13 34 40 22 19 23 18 21 26 36 42 47 49 44 37 31 27 27 27 34 47 69 88 103 117 157 149
48 44 42 36 27 20 27 29 29 30 32 34 37 29 7 9 32 36 35 26 20 21 17 22 29 33 36 41 46 57 66 63 51 45 50 59 64 53 72 109 117 140 146
36 39 44 35 28 23 36 41 38 39 36 36 44 48 13 22 39 38 31 27 29 33 38 37 36 46 48 47 48 49 55 58 58 49 34 37 47 75 93 88 105 128 145
43 45 43 42 41 45 46 55 54 47 48 44 39 49 29 43 43 35 34 36 32 30 38 39 42 52 58 58 53 52 44 40 36 33 35 33 30 42 72 93 103 119 139
50 52 54 55 54 54 64 70 65 56 49 48 44 48 48 54 45 44 45 44 38 41 45 47 50 63 67 62 57 65 62 59 40 21 13 12 27 34 43 63 89 105 132
55 57 64 65 63 75 78 76 70 63 51 47 49 52 58 60 52 49 50 46 42 40 45 50 55 61 55 60 58 69 69 68 56 39 27 7 10 28 35 50 65 90 106
66 70 75 74 77 78 79 81 71 63 55 57 56 63 69 53 48 49 46 37 36 35 43 46 52 48 49 42 56 69 59 54 61 61 45 14 22 32 34 37 54 77 101
79 85 83 82 81 83 90 80 82 71 59 57 64 67 58 50 52 43 40 37 37 34 40 46 41 41 43 50 71 54 56 61 69 66 69 34 36 29 34 49 70 67 90

GFSGL_con_3kmhel_129.txt.gz
Helicity
78 81 84 87 93 105 109 115 116 109 109 126 123 140 116 96 78 86 87 116 130 125 139 145 164 151 111 106 92 78 65 93 47 22 33 46 22 109 78 42 62 48 130
78 78 78 81 80 77 86 85 88 94 104 95 75 57 51 57 52 52 60 83 106 124 124 127 146 154 138 141 145 135 101 100 66 5 14 48 65 65 92 53 9 79 129
79 87 92 101 99 88 72 65 65 69 66 41 32 42 34 26 13 10 23 36 53 81 100 99 115 137 139 144 136 129 104 117 106 58 22 25 65 19 39 38 69 39 68
103 107 113 112 106 95 88 94 91 64 75 55 46 46 32 45 55 53 10 13 18 22 40 58 89 122 116 107 102 107 107 105 99 74 102 58 46 28 105 65 53 33 50
113 110 116 110 104 96 96 95 78 37 44 48 50 44 49 48 54 73 23 25 28 36 35 36 31 82 94 53 38 68 71 97 79 85 46 114 41 21 15 21 13 78 97
118 113 108 106 103 98 92 61 37 42 43 48 53 43 60 45 98 70 38 26 35 51 65 66 68 116 143 85 40 43 20 23 9 21 1 32 108 80 91 -2 -22 -137 -15
107 110 105 104 98 82 59 33 44 42 41 45 57 53 59 87 111 92 45 21 23 32 50 66 71 85 130 110 79 50 28 60 62 23 23 14 32 70 -7 75 65 45 53
112 110 100 78 70 29 25 43 38 30 36 42 52 57 52 78 115 95 33 19 13 23 27 49 54 75 111 127 87 72 51 49 37 3 14 57 57 61 58 38 37 6 -4
102 85 49 39 24 38 43 42 40 33 35 37 36 41 45 47 115 122 49 13 19 15 10 18 53 55 110 137 83 94 100 122 111 106 66 65 78 87 89 63 79 52 -45
67 49 46 51 45 45 41 37 36 32 32 19 22 32 48 51 95 105 77 15 20 4 0 7 59 48 78 96 37 52 62 73 95 140 130 139 123 106 93 27 24 47 15
66 61 61 50 41 39 39 31 23 17 11 14 21 27 43 49 72 110 97 25 5 -11 -8 -7 0 66 52 69 50 11 14 15 44 42 43 68 112 140 133 124 48 36 28
65 59 53 49 39 29 21 8 9 8 20 30 37 32 28 47 87 87 78 55 47 4 0 -13 -14 39 48 56 42 80 79 47 26 36 44 65 87 121 173 160 150 104 59
57 44 37 37 25 14 22 25 21 24 35 37 33 30 33 35 38 87 79 64 43 2 -14 6 40 49 60 38 95 108 82 57 50 40 38 57 55 63 78 130 165 173 99
42 36 37 43 35 40 31 37 45 45 38 34 26 20 13 14 16 14 14 11 15 7 16 19 17 9 11 16 34 47 25 18 8 28 47 58 69 96 90 73 83 124 114
42 38 35 22 18 38 56 55 46 54 58 36 28 27 16 15 11 7 2 3 6 -4 -7 -1 3 4 5 -1 -2 -3 -5 21 49 60 55 72 84 103 111 94 85 85 83
44 46 45 35 28 23 25 44 53 40 37 34 40 31 17 32 35 44 29 15 45 15 11 11 17 15 16 21 31 38 33 36 29 25 15 24 39 65 91 93 93 94 96
65 58 49 46 46 48 47 46 40 43 38 40 42 47 36 22 29 42 28 -16 22 3 -3 -7 -12 -12 -10 -4 -5 -7 -12 -10 12 18 8 24 41 56 70 64 109 100 129
114 103 66 56 51 48 53 56 43 32 25 37 55 41 20 2 17 39 24 0 7 12 -3 -3 2 4 8 12 12 10 6 3 1 2 8 15 15 22 32 56 90 103 137
71 69 62 49 44 43 44 46 43 30 19 21 33 42 29 4 31 43 36 8 -5 0 3 5 7 10 14 17 12 13 17 20 18 19 17 21 29 39 24 46 81 116 133
88 82 49 37 39 54 59 54 43 40 38 43 55 54 25 8 28 28 25 15 7 10 12 10 9 11 16 23 23 26 30 34 39 40 39 33 29 29 21 39 44 70 111
62 62 56 47 59 67 67 67 62 58 56 54 68 75 33 13 38 35 34 32 26 21 21 14 10 20 31 34 38 34 36 37 40 38 36 39 44 45 20 30 24 39 67
72 63 60 61 64 77 80 78 76 67 64 65 64 75 47 46 41 38 40 39 29 24 23 25 20 33 46 49 37 31 35 39 39 33 28 24 22 31 19 14 13 29 39
76 65 60 69 75 69 80 86 83 73 73 72 70 72 60 54 48 46 41 36 35 30 28 33 31 53 59 48 41 39 52 45 42 34 24 23 14 16 22 23 14 18 42
72 64 65 75 83 87 90 90 85 83 81 80 82 74 67 56 53 46 47 45 39 31 30 45 46 52 53 58 51 61 63 60 53 44 27 25 23 13 20 22 25 35 38
77 74 71 77 83 89 86 93 92 90 89 89 82 72 71 61 55 54 54 47 47 47 46 51 57 51 58 44 49 82 53 44 50 48 55 37 26 21 34 27 34 43 56
85 83 86 85 89 92 99 97 98 95 90 89 81 79 71 73 71 63 60 60 59 51 54 59 50 52 50 50 71 48 50 52 54 51 71 60 53 50 38 32 37 34 46

GFSGL_con_3kmhel_135.txt.gz
Helicity
116 79 65 72 70 71 70 62 59 61 73 73 53 53 73 116 138 77 63 64 134 107 115 154 186 188 139 135 141 145 150 141 74 33 2 30 58 0 94 146 139 187 199
67 75 106 150 146 119 109 115 108 129 86 93 58 52 73 111 119 71 51 35 54 86 38 87 144 149 180 147 151 169 154 121 103 71 57 42 64 77 100 125 172 133 199
101 161 163 162 168 160 143 137 130 151 89 82 98 88 100 117 131 90 52 52 54 77 27 31 84 94 115 104 85 140 165 151 139 80 62 75 61 93 128 134 143 169 178
209 180 187 191 197 192 167 150 161 171 154 53 51 42 91 127 127 106 48 56 74 73 73 12 80 91 86 92 67 78 84 91 118 125 122 115 110 147 70 81 170 191 229
186 191 188 217 208 184 162 141 125 134 134 30 30 65 91 118 114 52 34 39 59 62 66 72 82 95 101 99 45 75 90 79 61 52 88 130 166 216 202 175 133 161 133
223 209 224 216 204 175 147 122 88 87 69 40 56 77 104 105 140 87 47 23 37 62 80 85 92 124 111 100 100 108 110 94 86 47 19 48 77 121 173 163 187 170 87
189 185 182 167 168 149 110 85 52 48 70 72 65 69 81 89 111 119 80 28 30 39 50 65 74 89 87 88 86 88 105 126 95 39 43 39 42 63 56 74 109 122 132
229 187 157 142 121 107 74 36 32 35 29 20 58 78 85 90 114 107 92 27 11 29 43 26 46 61 66 77 58 76 86 80 65 28 24 25 28 43 40 17 48 59 47
197 186 159 120 84 66 84 64 41 36 28 25 23 61 94 79 102 104 72 30 24 36 50 44 15 46 98 113 72 81 87 118 91 92 92 97 104 110 92 35 60 5 3
162 136 106 73 63 51 33 33 39 27 30 21 29 33 98 93 84 84 73 38 43 50 75 82 89 64 87 102 62 78 87 109 98 103 119 131 130 137 154 78 36 11 -9
115 86 64 51 40 29 37 34 32 37 26 25 24 36 58 57 62 89 90 34 39 27 35 56 27 86 85 79 86 55 65 57 91 86 84 109 138 158 153 133 97 23 39
174 88 36 34 39 38 46 50 44 88 85 44 28 33 50 64 89 96 98 81 59 17 9 4 12 78 82 85 50 101 117 67 56 87 106 131 135 168 182 160 147 140 107
138 92 52 45 65 101 125 139 144 138 80 60 45 30 44 48 43 65 70 71 36 -1 -10 27 43 43 47 21 92 100 50 49 38 63 65 63 54 63 87 131 131 141 161
97 51 59 78 103 95 100 102 102 92 86 54 48 30 31 46 47 41 32 32 28 7 3 14 27 30 11 15 24 39 20 9 16 13 23 41 52 62 46 70 84 122 144
53 61 99 117 123 78 88 72 81 70 59 51 32 23 41 45 54 76 60 16 16 25 24 18 28 21 12 14 0 -3 -21 -19 -12 -20 0 11 27 31 25 38 38 50 62
74 77 73 79 80 79 54 55 74 81 91 76 51 37 24 74 100 75 64 74 68 69 18 7 2 4 -3 10 18 21 12 25 14 5 1 -10 -1 -21 -9 -4 -3 3 21
69 52 62 69 68 56 44 39 38 47 64 67 69 57 68 66 70 79 81 96 95 76 25 22 4 2 17 28 24 20 21 13 1 -6 -10 -20 -23 -25 -27 -33 -26 -19 31
172 174 179 155 118 72 33 28 32 36 38 39 72 73 71 35 86 104 99 101 69 82 42 33 27 26 26 20 14 14 5 -1 -5 -10 -11 -19 -21 -29 -28 -17 -14 -25 -11
214 206 171 142 118 99 96 88 58 42 47 90 62 72 115 124 139 134 128 84 63 48 38 42 41 33 20 10 -1 -3 -9 -5 -7 -9 -9 -20 -20 -27 -33 -28 -38 -18 -23
185 149 131 108 94 97 92 110 125 138 133 96 67 70 117 109 90 77 77 65 67 67 55 49 40 19 3 2 4 20 11 19 18 11 5 3 1 -17 -29 -18 -13 -9 -6
156 108 90 97 116 123 121 121 128 144 115 92 66 70 116 119 103 90 77 74 70 61 45 36 26 12 9 10 28 31 11 9 19 16 16 15 18 19 34 39 23 22 15
136 147 152 154 145 133 134 139 133 139 120 89 76 112 151 126 110 89 86 76 66 63 52 39 33 24 12 25 29 21 24 20 25 21 17 20 28 35 52 60 37 46 46
112 148 155 139 137 158 165 158 157 137 140 153 138 142 124 113 106 96 89 78 73 72 64 47 41 29 21 24 25 30 24 30 25 20 18 33 33 46 63 69 37 61 58
146 160 142 110 112 137 133 124 132 156 165 162 149 139 128 122 127 104 105 94 86 72 75 56 49 48 37 42 44 24 27 29 37 37 40 39 52 67 80 76 64 72 72
161 172 148 133 147 132 112 101 105 115 151 160 166 152 139 148 149 117 119 102 87 91 77 59 63 55 47 55 59 38 38 39 50 54 66 68 73 85 101 90 83 80 77
157 142 121 112 114 104 119 137 151 163 167 162 162 161 150 154 138 126 130 106 96 93 78 72 70 56 52 63 66 66 49 50 63 74 97 98 116 118 103 99 86 94 79

GFSGL_con_3kmhel_138.txt.gz
Helicity
131 95 83 82 88 93 119 131 150 135 101 96 103 107 122 121 84 51 52 72 96 35 67 96 148 189 169 129 125 124 121 88 38 61 94 85 101 172 219 225 244 215 257
112 131 162 163 148 149 162 180 189 145 124 83 93 123 135 134 113 57 75 83 98 65 60 59 77 72 109 98 92 120 140 112 95 96 109 131 138 171 162 211 241 226 263
180 192 203 197 194 186 193 192 206 128 116 103 110 130 140 120 76 33 57 71 88 82 74 76 72 73 84 69 62 86 98 42 48 52 90 124 162 201 237 217 242 282 216
240 232 230 223 209 197 189 200 201 132 110 98 105 115 113 105 83 50 52 59 61 56 59 62 49 75 81 74 58 67 52 49 46 31 54 84 149 223 196 254 325 284 189
269 264 234 226 213 194 184 187 174 142 99 91 85 113 108 95 47 53 57 66 69 69 64 58 62 68 76 63 30 64 65 45 29 36 50 50 103 159 206 222 231 262 117
315 256 233 213 193 178 163 165 149 117 91 85 76 104 98 71 82 84 43 45 58 63 66 53 47 83 46 60 73 103 92 40 43 27 25 56 86 106 120 92 95 119 100
315 249 217 195 180 163 149 137 115 95 101 107 91 75 93 69 84 73 64 39 50 45 56 59 46 45 63 42 55 71 70 72 41 -1 -2 -3 20 56 65 56 99 72 50
272 222 188 180 169 148 126 89 86 82 93 87 97 76 42 70 78 71 69 56 72 73 49 58 35 22 75 54 39 52 61 52 37 2 -3 -4 9 16 15 -9 9 24 -10
277 199 162 166 155 120 77 74 72 82 88 98 93 101 70 28 87 73 49 49 73 78 61 21 18 14 84 93 58 60 59 76 41 46 47 62 63 75 59 3 4 -35 -11
198 174 156 153 126 87 71 67 59 82 68 76 93 104 107 51 71 91 60 35 57 55 51 52 92 55 89 100 54 67 81 116 121 130 116 102 82 57 72 -6 -28 -49 -61
188 177 162 131 83 67 57 94 96 87 68 57 73 89 97 90 44 63 72 31 27 30 44 38 42 102 101 113 107 75 78 58 90 80 88 103 99 94 71 41 -27 -83 -61
195 185 157 111 73 60 89 93 101 88 64 41 59 80 76 69 78 77 74 67 64 45 38 27 44 84 94 96 76 115 126 82 91 102 124 154 162 175 155 134 85 50 -43
196 168 138 106 104 107 119 133 145 105 63 49 60 76 82 78 60 62 76 79 91 53 43 71 87 88 80 57 95 106 71 77 76 86 97 112 125 128 107 151 140 132 80
197 160 150 138 142 148 135 134 123 94 71 49 47 62 66 77 66 46 62 84 92 84 80 69 51 42 38 28 48 77 76 62 56 66 68 54 61 67 68 92 128 169 166
195 181 150 131 127 119 117 99 94 71 57 41 19 40 58 75 64 59 42 45 68 59 71 63 56 42 52 67 62 59 58 51 57 44 51 55 63 49 52 29 32 42 46
197 192 132 139 118 115 126 122 102 85 75 60 52 50 40 79 93 101 111 107 118 109 78 63 66 51 45 45 43 35 26 31 28 14 9 1 12 20 38 28 4 1 19
163 131 113 130 109 103 84 81 80 67 84 70 59 68 66 90 107 106 117 126 117 105 61 59 46 43 33 26 20 23 28 32 33 25 30 32 37 11 1 -12 -19 -13 25
112 91 114 101 100 83 62 52 57 58 63 66 76 83 69 126 126 103 108 124 100 81 63 62 46 39 39 49 57 54 42 47 49 40 31 17 20 -11 -3 -7 -9 -31 -19
145 130 134 114 95 73 69 67 68 72 86 74 62 95 122 174 151 126 136 100 79 80 79 77 63 56 52 48 48 43 18 35 41 34 21 8 18 -6 -9 -17 -20 -40 -30
163 163 157 128 108 97 82 81 81 92 105 97 85 115 159 161 126 117 94 95 104 90 74 70 65 52 45 51 43 44 41 44 46 30 35 34 31 2 -8 -9 -10 -37 -24
171 146 139 149 142 131 128 142 135 137 124 96 84 102 126 127 113 100 106 108 97 85 77 70 66 55 46 44 45 46 44 38 40 42 46 44 43 31 20 14 1 -9 5
158 147 152 153 147 145 138 144 143 143 134 127 131 131 143 134 129 125 115 103 95 93 81 79 73 57 50 51 46 49 42 48 50 52 47 48 42 33 26 24 23 9 21
163 176 171 162 152 163 164 147 144 137 130 143 148 140 132 135 132 130 120 100 103 106 100 91 81 67 51 53 42 47 51 51 49 49 42 46 43 41 41 36 35 14 32
179 178 167 159 171 164 160 152 142 144 148 161 156 141 138 140 138 138 127 115 108 100 109 99 87 69 58 54 52 54 51 48 52 48 45 49 51 55 64 56 52 32 41
139 151 150 144 152 153 143 137 144 155 163 159 153 157 151 160 155 154 138 122 111 116 114 95 87 75 66 68 71 65 61 56 60 63 75 67 61 68 70 67 58 59 56
148 150 139 133 130 128 126 126 121 141 154 153 157 167 161 166 156 150 132 126 116 113 103 93 90 79 77 81 81 84 74 69 80 83 97 94 92 90 91 78 69 79 66